[[{"header":{"parameterUnit":"m.s-1","parameterCategory":1,"la1":30.6,"la2":29.2853,"lo1":-89.7004,"lo2":-87.6739,"dy":0.0162,"dx":0.0183,"nx":112,"ny":82,"refTime":"2023-09-24T06:00:00:Z","depth":0,"parameterNumber":2,"parameterNumberName":"U-component_of_WINDS"},"data":[0.0,0.0,0.0,0.0,0.0,0.0,0.0,0.0,0.0,0.0,0.0,0.0,0.0,0.0,0.0,0.0,0.0,0.0,0.0,0.0,0.0,0.0,0.0,0.0,0.0,0.0,0.0,0.0,0.0,0.0,0.0,0.0,0.0,0.0,0.0,0.0,0.0,0.0,0.0,0.0,0.0,0.0,0.0,0.0,0.0,0.0,0.0,0.0,0.0,0.0,0.0,0.0,0.0,0.0,0.0,0.0,0.0,0.0,0.0,0.0,0.0,0.0,0.0,0.0,0.0,0.0,0.0,0.0,0.0,0.0,0.0,0.0,0.0,0.0,0.0,0.0,0.0,0.0,0.0,0.0,0.0,0.0,0.0,0.0,0.0,0.0,0.0,0.0,0.0,0.0,0.8328,0.8328,0.8187,0.8084,0.8084,0.8064,0.805,0.805,0.0,0.0,0.0,0.0,0.0,0.0,0.0,0.0,0.0,0.0,0.0,0.0,0.0,0.0,0.0,0.0,0.0,0.0,0.0,0.0,0.0,0.0,0.0,0.0,0.0,0.0,0.0,0.0,0.0,0.0,0.0,0.0,0.0,0.0,0.0,0.0,0.0,0.0,0.0,0.0,0.0,0.0,0.0,0.0,0.0,0.0,0.0,0.0,0.0,0.0,0.0,0.0,0.0,0.0,0.0,0.0,0.0,0.0,0.0,0.0,0.0,0.0,0.0,0.0,0.0,0.0,0.0,0.0,0.0,0.0,0.0,0.0,0.0,0.0,0.0,0.0,0.0,0.0,0.0,0.0,0.0,0.0,0.0,0.0,0.0,0.0,0.0,0.0,0.0,0.0,0.0,0.0,0.0,0.0,0.0,0.0,0.0,0.0,0.0,0.0,0.0,0.0,0.0,0.0,0.8478,0.8478,0.8454,0.8414,0.8414,0.8332,0.826,0.826,0.0,0.0,0.0,0.0,0.0,0.0,0.0,0.0,0.0,0.0,0.0,0.0,0.0,0.0,0.0,0.0,0.0,0.0,0.0,0.0,0.0,0.0,0.0,0.0,0.0,0.0,0.0,0.0,0.0,0.0,0.0,0.0,0.0,0.0,0.0,0.0,0.0,0.0,0.0,0.0,0.0,0.0,0.0,0.0,0.0,0.0,0.0,0.0,0.0,0.0,0.0,0.0,0.0,0.0,0.0,0.0,0.0,0.0,0.0,0.0,0.0,0.0,0.0,0.0,0.0,0.0,0.0,0.0,0.0,0.0,0.0,0.0,0.0,0.0,0.0,0.0,0.0,0.0,0.0,0.0,0.0,0.0,0.0,0.0,0.0,0.0,0.0,0.0,0.0,0.0,0.0,0.0,0.0,0.0,0.0,0.0,0.0,0.0,0.0,0.0,0.0,0.0,0.0,0.8567,0.8574,0.8515,0.8509,0.8509,0.8509,0.8447,0.8376,0.8301,0.8204,0.0,0.0,0.0,0.0,0.0,0.0,0.0,0.0,0.0,0.0,0.0,0.0,0.0,0.0,0.0,0.0,0.0,0.0,0.0,0.0,0.0,0.0,0.0,0.0,0.0,0.0,0.0,0.0,0.0,0.0,0.0,0.0,0.0,0.0,0.0,0.0,0.0,0.0,0.0,0.0,0.0,0.0,0.0,0.0,0.0,0.0,0.0,0.0,0.0,0.0,0.0,0.0,0.0,0.0,0.0,0.0,0.0,0.0,0.0,0.0,0.0,0.0,0.0,0.0,0.0,0.0,0.0,0.0,0.0,0.0,0.0,0.0,0.0,0.0,0.0,0.0,0.0,0.0,0.0,0.0,0.0,0.0,0.0,0.0,0.0,0.0,0.0,0.0,0.0,0.0,0.0,0.0,0.0,0.0,0.0,0.0,0.0,0.0,0.0,0.0,0.0,0.0,0.8737,0.872,0.8601,0.8587,0.8587,0.8587,0.8557,0.8515,0.8406,0.8335,0.0,0.0,0.0,0.0,0.0,0.0,0.0,0.0,0.0,0.0,0.0,0.0,0.0,0.0,0.0,0.0,0.0,0.0,0.0,0.0,0.0,0.0,0.0,0.0,0.0,0.0,0.0,0.0,0.0,0.0,0.0,0.0,0.0,0.0,0.0,0.0,0.0,0.0,0.0,0.0,0.0,0.0,0.0,0.0,0.0,0.0,0.0,0.0,0.0,0.0,0.0,0.0,0.0,0.0,0.0,0.0,0.0,0.0,0.0,0.0,0.0,0.0,0.0,0.0,0.0,0.0,0.0,0.0,0.0,0.0,0.0,0.0,0.0,0.0,0.0,0.0,0.0,0.0,0.0,0.0,0.0,0.0,0.0,0.0,0.0,0.0,0.0,0.0,0.0,0.0,0.0,0.0,0.0,0.0,0.0,0.0,0.0,0.0,0.0,0.0,0.0,0.0,0.8896,0.8892,0.8879,0.8879,0.8879,0.8879,0.8747,0.8689,0.8679,0.8447,0.0,0.0,0.0,0.0,0.0,0.0,0.0,0.0,0.0,0.0,0.0,0.0,0.0,0.0,0.0,0.0,0.0,0.0,0.0,0.0,0.0,0.0,0.0,0.0,0.0,0.0,0.0,0.0,0.0,0.0,0.0,0.0,0.0,0.0,0.0,0.0,0.0,0.0,0.0,0.0,0.0,0.0,0.0,0.0,0.0,0.0,0.0,0.0,0.0,0.0,0.0,0.0,0.0,0.0,0.0,0.0,0.0,0.0,0.0,0.0,0.0,0.0,0.0,0.0,0.0,0.0,0.0,0.0,0.0,0.0,0.0,0.0,0.0,0.0,0.0,0.0,0.0,0.0,0.0,0.0,0.0,0.0,0.0,0.0,0.0,0.0,0.0,0.0,0.0,0.0,0.0,0.0,0.0,0.0,0.0,0.0,0.0,0.0,0.0,0.0,0.0,0.0,0.8912,0.8912,0.8912,0.8912,0.8912,0.8912,0.8858,0.8784,0.8716,0.0,0.0,0.0,0.0,0.0,0.0,0.0,0.0,0.0,0.0,0.0,0.0,0.0,0.0,0.0,0.0,0.0,0.0,0.0,0.0,0.0,0.0,0.0,0.0,0.0,0.0,0.0,0.0,0.0,0.0,0.0,0.0,0.0,0.0,0.0,0.0,0.0,0.0,0.0,0.0,0.0,0.0,0.0,0.0,0.0,0.0,0.0,0.0,0.0,0.0,0.0,0.0,0.0,0.0,0.0,0.0,0.0,0.0,0.0,0.0,0.0,0.0,0.0,0.0,0.0,0.0,0.0,0.0,0.0,0.0,0.0,0.0,0.0,0.0,0.0,0.0,0.0,0.0,0.0,0.0,0.0,0.0,0.0,0.0,0.0,0.0,0.0,0.0,0.0,0.0,0.0,0.0,0.0,0.0,0.0,0.0,0.0,0.0,0.0,0.0,0.0,0.0,0.8912,0.8912,0.8912,0.8912,0.8912,0.8912,0.8912,0.8912,0.8869,0.8764,0.0,0.0,0.0,0.0,0.0,0.0,0.0,0.0,0.0,0.0,0.0,0.0,0.0,0.0,0.0,0.0,0.0,0.0,0.0,0.0,0.0,0.0,0.0,0.0,0.0,0.0,0.0,0.0,0.0,0.0,0.0,0.0,0.0,0.0,0.0,0.0,0.0,0.0,0.0,0.0,0.0,0.0,0.0,0.0,0.0,0.0,0.0,0.0,0.0,0.0,0.0,0.0,0.0,0.0,0.0,0.0,0.0,0.0,0.0,0.0,0.0,0.0,0.0,0.0,0.0,0.0,0.0,0.0,0.0,0.0,0.0,0.0,0.0,0.0,0.0,0.0,0.0,0.0,0.0,0.0,0.0,0.0,0.0,0.0,0.0,0.0,0.0,0.0,0.0,0.0,0.0,0.0,0.0,0.0,0.0,0.0,0.0,0.0,0.0,0.0,0.0,0.0,0.8912,0.8912,0.8912,0.8912,0.8912,0.8912,0.8912,0.8912,0.8912,0.0,0.0,0.0,0.0,0.0,0.0,0.0,0.0,0.0,0.0,0.0,0.0,0.0,0.0,0.0,0.0,0.0,0.0,0.0,0.0,0.0,0.0,0.0,0.0,0.0,0.0,0.0,0.0,0.0,0.0,0.0,0.0,0.0,0.0,0.0,0.0,0.0,0.0,0.0,0.0,0.0,0.0,0.0,0.0,0.0,0.0,0.0,0.0,0.0,0.0,0.0,0.0,0.0,0.0,0.0,0.0,0.0,0.0,0.0,0.0,0.0,0.0,0.0,0.0,0.0,0.0,0.0,0.0,0.0,0.0,0.0,0.0,0.0,0.0,0.0,0.0,0.0,0.0,0.0,0.0,0.0,0.0,0.0,0.0,0.0,0.0,0.0,0.0,0.0,0.0,0.0,0.0,0.0,0.0,0.0,0.0,0.0,0.0,0.0,0.0,0.0,0.0,0.0,0.8912,0.8912,0.8912,0.8912,0.8912,0.8912,0.8912,0.8912,0.8912,0.8912,0.0,0.0,0.0,0.0,0.0,0.0,0.0,0.0,0.0,0.0,0.0,0.0,0.0,0.0,0.0,0.0,0.0,0.0,0.0,0.0,0.0,0.0,0.0,0.0,0.0,0.0,0.0,0.0,0.0,0.0,0.0,0.0,0.0,0.0,0.0,0.0,0.0,0.0,0.0,0.0,0.0,0.0,0.0,0.0,0.0,0.0,0.0,0.0,0.0,0.0,0.0,0.0,0.0,0.0,0.0,0.0,0.0,0.0,0.0,0.0,0.0,0.0,0.0,0.0,0.0,0.0,0.0,0.0,0.0,0.0,0.0,0.0,0.0,0.0,0.0,0.0,0.0,0.0,0.0,0.0,0.0,0.0,0.0,0.0,0.0,0.0,0.0,0.0,0.0,0.0,0.0,0.0,0.0,0.0,0.0,0.0,0.0,0.0,0.0,0.0,0.0,0.0,0.8912,0.8912,0.8912,0.8912,0.8912,0.8912,0.8912,0.8912,0.8912,0.8912,0.0,0.0,0.0,0.0,0.0,0.0,0.0,0.0,0.0,0.0,0.0,0.0,0.0,0.0,0.0,0.0,0.0,0.0,0.0,0.0,0.0,0.0,0.0,0.0,0.0,0.0,0.0,0.0,0.0,0.0,0.0,0.0,0.0,0.0,0.0,0.0,0.0,0.0,0.0,0.0,0.0,0.0,0.0,0.0,0.0,0.0,0.0,0.0,0.0,0.0,0.0,0.0,0.0,0.0,0.0,0.0,0.0,0.0,0.0,0.0,0.0,0.0,0.0,0.0,0.0,0.0,0.0,0.0,0.0,0.0,0.0,0.0,0.0,0.0,0.0,0.0,0.0,0.0,0.0,0.0,0.0,0.0,0.0,0.0,0.0,0.0,0.0,0.0,0.0,0.0,0.0,0.0,0.0,0.0,0.0,0.0,0.0,0.0,0.0,0.0,0.0,0.0,0.8912,0.8912,0.8912,0.8912,0.8912,0.8912,0.8912,0.8912,0.8912,0.8912,0.0,0.0,0.0,0.0,0.0,0.0,0.0,0.0,0.0,0.0,0.0,0.0,0.0,0.0,0.0,0.0,0.0,0.0,0.0,0.0,0.0,0.0,0.0,0.0,0.0,0.0,0.0,0.0,0.0,0.0,0.0,0.0,0.0,0.0,0.0,0.0,0.0,0.0,0.0,0.0,0.0,0.0,0.0,0.0,0.0,0.0,0.0,0.0,0.0,0.0,0.0,0.0,0.0,0.0,0.0,0.0,0.0,0.0,0.0,0.0,0.0,0.0,0.0,0.0,0.0,0.0,0.0,0.0,0.0,0.0,0.0,0.0,0.0,0.0,0.0,0.0,0.0,0.0,0.0,0.0,0.0,0.0,0.0,0.0,0.0,0.0,0.0,0.0,0.0,0.0,0.0,0.0,0.0,0.0,0.0,0.0,0.0,0.0,0.0,0.0,0.0,0.0,0.8912,0.8912,0.8912,0.8912,0.8912,0.8912,0.8912,0.8912,0.8912,0.8912,0.8912,0.0,0.0,0.0,0.0,0.0,0.0,0.0,0.0,0.0,0.0,0.0,0.0,0.0,0.0,0.0,0.0,0.0,0.0,0.0,0.0,0.0,0.0,0.0,0.0,0.0,0.0,0.0,0.0,0.0,0.0,0.0,0.0,0.0,0.0,0.0,0.0,0.0,0.0,0.0,0.0,0.0,0.0,0.0,0.0,0.0,0.0,0.0,0.0,0.0,0.0,0.0,0.0,0.0,0.0,0.0,0.0,0.0,0.0,0.0,0.0,0.0,0.0,0.0,0.0,0.0,0.0,0.0,0.0,0.0,0.0,0.0,0.0,0.0,0.0,0.0,0.0,0.0,0.0,0.0,0.0,0.0,0.0,0.0,0.0,0.0,0.0,0.0,0.0,0.0,0.0,0.0,0.0,0.0,0.0,0.0,0.0,0.0,0.0,0.0,0.0,0.0,0.915,0.915,0.915,0.915,0.915,0.915,0.915,0.9083,0.9042,0.9042,0.895,0.0,0.0,0.0,0.0,0.0,0.0,0.0,0.0,0.0,0.0,0.0,0.0,0.0,0.0,0.0,0.0,0.0,0.0,0.0,0.0,0.0,0.0,0.0,0.0,0.0,0.0,0.0,0.0,0.0,0.0,0.0,0.0,0.0,0.0,0.0,0.0,0.0,0.0,0.0,0.0,0.0,0.0,0.0,0.0,0.0,0.0,0.0,0.0,0.0,0.0,0.0,0.0,0.0,0.0,0.0,0.0,0.0,0.0,0.0,0.0,0.0,0.0,0.0,0.0,0.0,0.0,0.0,0.0,0.0,0.0,0.0,0.0,0.0,0.0,0.0,0.0,0.0,0.0,0.0,0.0,0.0,0.0,0.0,0.0,0.0,0.0,0.0,0.9792,0.9758,0.9673,0.0,0.0,0.0,0.0,0.0,0.0,0.0,0.0,0.0,0.0,0.0,0.941,0.941,0.941,0.941,0.941,0.941,0.941,0.9294,0.9223,0.9223,0.9079,0.8987,0.0,0.0,0.0,0.0,0.0,0.0,0.0,0.0,0.0,0.0,0.0,0.0,0.0,0.0,0.0,0.0,0.0,0.0,0.0,0.0,0.0,0.0,0.0,0.0,0.0,0.0,0.0,0.0,0.0,0.0,0.0,0.0,0.0,0.0,0.0,0.0,0.0,0.0,0.0,0.0,0.0,0.0,0.0,0.0,0.0,0.0,0.0,0.0,0.0,0.0,0.0,0.0,0.0,0.0,0.0,0.0,0.0,0.0,0.0,0.0,0.0,0.0,0.0,0.0,0.0,0.0,0.0,0.0,0.0,0.0,0.0,0.0,0.0,0.0,0.0,0.0,0.0,0.0,0.0,0.0,0.0,0.0,0.0,0.0,0.9792,0.9792,0.9792,0.9785,0.0,0.9761,0.9721,0.9608,0.9581,0.0,0.0,0.0,0.0,0.0,0.0,0.0,0.941,0.941,0.941,0.941,0.941,0.941,0.941,0.939,0.9379,0.9379,0.9362,0.9323,0.9323,0.9323,0.0,0.0,0.0,0.0,0.0,0.0,0.0,0.0,0.0,0.0,0.0,0.0,0.0,0.0,0.0,0.0,0.0,0.0,0.0,0.0,0.0,0.0,0.0,0.0,0.0,0.0,0.0,0.0,0.0,0.0,0.0,0.0,0.0,0.0,0.0,0.0,0.0,0.0,0.0,0.0,0.0,0.0,0.0,0.0,0.0,0.0,0.0,0.0,0.0,0.0,0.0,0.0,0.0,0.0,0.0,0.0,0.0,0.0,0.0,0.0,0.0,0.0,0.0,0.0,0.0,0.0,0.0,0.0,0.0,0.0,0.0,0.0,0.0,0.0,0.0,0.0,0.0,0.0,0.0,0.0,0.0,0.0,0.9792,0.9792,0.9792,0.9792,0.9792,0.9792,0.9771,0.0,0.9697,0.9707,0.9639,0.0,0.0,0.0,0.0,0.9629,0.9629,0.9629,0.9629,0.9629,0.9629,0.9629,0.9629,0.9554,0.951,0.951,0.9429,0.941,0.941,0.941,0.9379,0.0,0.0,0.0,0.0,0.0,0.0,0.0,0.0,0.0,0.0,0.0,0.0,0.0,0.0,0.0,0.0,0.0,0.0,0.0,0.0,0.0,0.0,0.0,0.0,0.0,0.0,0.0,0.0,0.0,0.0,0.0,0.0,0.0,0.0,0.0,0.0,0.0,0.0,0.0,0.0,0.0,0.0,0.0,0.0,0.0,0.0,0.0,0.0,0.0,0.0,0.0,0.0,0.0,0.0,0.0,0.0,0.0,0.0,0.0,0.0,0.0,0.0,0.0,0.0,0.0,0.0,0.0,0.0,0.0,0.0062,0.053,0.2112,0.3708,0.3264,0.0,0.0,0.0,0.0,0.9792,0.9792,0.9792,0.9792,0.9792,0.9792,0.9792,0.9792,0.9792,0.9792,0.0,0.9792,0.9792,0.9792,0.0,0.0,0.0,0.9792,0.9792,0.9792,0.9792,0.9792,0.9792,0.9792,0.9792,0.9792,0.9724,0.9663,0.9663,0.9557,0.9493,0.9493,0.9493,0.9476,0.9442,0.0,0.0,0.0,0.0,0.0,0.0,0.0,0.0,0.0,0.0,0.0,0.0,0.0,0.0,0.0,0.0,0.0,0.0,0.0,0.0,0.0,0.0,0.0,0.0,0.0,0.0,0.0,0.0,0.0,0.0,0.0,0.0,0.0,0.0,0.0,0.0,0.0,0.0,0.0,0.0,0.0,0.0,0.0,0.0,0.0,0.0,0.0,0.0,0.0,0.0,0.0,0.0,0.0,0.0,0.0,0.0,0.0,0.0,0.0,0.0,0.0,0.0,0.0,0.0,0.0,0.0,0.0,0.0,0.029,0.1991,0.4728,0.7036,0.5306,0.706,0.0,0.0,0.862,0.9792,0.9792,0.9792,0.9792,0.9792,0.9792,0.9792,0.9792,0.9792,0.9792,0.0,0.9792,0.9792,0.9792,0.0,0.9792,0.9792,0.9792,0.9792,0.9792,0.9792,0.9792,0.9792,0.9792,0.9792,0.9792,0.9785,0.9781,0.9781,0.9771,0.9768,0.9768,0.9768,0.9734,0.9602,0.9598,0.0,0.0,0.0,0.0,0.0,0.0,0.0,0.0,0.0,0.0,0.0,0.0,0.0,0.0,0.0,0.0,0.0,0.0,0.0,0.0,0.0,0.0,0.0,0.0,0.0,0.0,0.0,0.0,0.0,0.0,0.0,0.0,0.0,0.0,0.0,0.0,0.0,0.0,0.0,0.0,0.0,0.0,0.0,0.0,0.0,0.0,0.0,0.0,0.0,0.0,0.0,0.0,0.0,0.0,0.0673,0.1745,0.1729,0.106,0.0099,0.1292,0.1721,0.1884,0.3043,0.3488,0.3484,0.3484,0.3472,0.376,0.5426,0.678,0.7793,0.8232,0.9199,0.9988,0.9418,0.9672,1.0117,1.0117,1.0117,1.0117,1.0117,1.0117,1.009,0.9957,0.9937,0.9907,0.9808,0.9792,0.9792,0.9792,0.9792,0.9792,0.9792,0.9792,0.9792,0.9792,0.9792,0.9792,0.9792,0.9792,0.9792,0.9792,0.9792,0.9792,0.9792,0.9792,0.9792,0.9792,0.9792,0.9768,0.9717,0.9714,0.972,0.0,0.0,0.0,0.0,0.0,0.0,0.0,0.0,0.0,0.0,0.0,0.0,0.0,0.0,0.0,0.0,0.0,0.0,0.0,0.0,0.0,0.0,0.0,0.0,0.0,0.0,0.0,0.0,0.0,0.0,0.0,0.0,0.0,0.0,0.0,0.0,0.0,0.0,0.0,0.0,0.0,0.0,0.0,0.0,0.0,0.0,0.0,0.0,0.0,0.0,0.0,0.0,0.0,0.0673,0.178,0.178,0.1445,0.1075,0.2919,0.3623,0.3752,0.4942,0.5388,0.5414,0.5394,0.5797,0.6442,0.7481,0.821,0.8913,0.9972,1.0312,1.0312,1.0312,1.0312,1.0312,1.0312,1.0312,1.0312,1.0312,1.0312,1.0253,1.0116,1.0096,1.0065,0.9995,0.989,0.9792,0.9792,0.9792,0.9792,0.9792,0.9792,0.9792,0.9792,0.9792,0.9792,0.9792,0.9792,0.9792,0.9792,0.9792,0.9792,0.9792,0.9792,0.9792,0.9792,0.9792,0.9792,0.9792,0.9792,0.9792,0.9792,0.0,0.0,0.0,0.0,0.0,0.0,0.0,0.0,0.0,0.0,0.0,0.0,0.0,0.0,0.0,0.0,0.0,0.0,0.0,0.0,0.0,0.0,0.0,0.0,0.0,0.0,0.0,0.0,0.0,0.0,0.0,0.0,0.0,0.0,0.0,0.0,0.0,0.0,0.0,0.0,0.0,0.0,0.0,0.0,0.0,0.0,0.0,0.0,0.0,0.0,0.0,0.0067,0.0101,0.0168,0.0235,0.1311,0.312,0.4762,0.5431,0.5498,0.5531,0.5563,0.5563,0.5563,0.6664,0.8048,0.7943,0.9089,1.0473,1.0334,1.0293,1.0293,1.0293,1.0293,1.0293,1.0293,1.0293,1.0293,1.0293,1.0293,1.0325,1.0318,1.0318,1.0318,1.0312,1.0039,0.9805,0.9805,0.9805,0.9805,0.9805,0.9805,0.0,0.9805,0.9805,0.9805,0.9805,0.9805,0.9805,0.9805,0.9805,0.9805,0.9805,0.9805,0.9805,0.9805,0.9805,0.9805,0.9805,0.9805,0.9805,0.9805,0.0,0.0,0.0,0.0,0.0,0.0,0.0,0.0,0.0,0.0,0.0,0.0,0.0,0.0,0.0,0.0,0.0,0.0,0.0,0.0,0.0,0.0,0.0,0.0,0.0,0.0,0.0,0.0,0.0,0.0,0.0,0.0,0.0,0.0,0.0,0.0,0.0,0.0,0.0,0.0,0.0,0.0,0.0,0.0,0.0,0.0,0.0,0.0,0.0,0.0,0.0067,0.1378,0.2719,0.4024,0.5292,0.6862,0.8302,0.6199,0.6164,0.7431,0.8773,0.9244,0.9244,0.9244,0.9543,0.9938,0.9904,1.0224,1.0649,1.0612,1.0599,1.0599,1.0599,1.0599,1.0599,1.0599,1.0599,1.0599,1.0599,1.0599,1.0568,1.046,1.0465,1.0437,1.0332,1.0244,1.0154,1.0154,1.0154,1.0154,1.0154,1.0154,0.0,1.0154,1.0154,1.0154,1.0154,1.0154,1.0154,1.0154,1.0154,1.0154,1.0154,1.0154,1.0154,1.0154,1.0154,1.0154,1.0154,1.0154,1.0154,0.0,0.0,0.0,0.0,0.0,0.0,0.0,0.0,0.0,0.0,0.0,0.0,0.0,0.0,0.0,0.0,0.0,0.0,0.0,0.0,0.0,0.0,0.0,0.0,0.0,0.0,0.0,0.0,0.0,0.0,0.0,0.0,0.0,0.0,0.0,0.0,0.0,0.0,0.0,0.0,0.0,0.0,0.0,0.0,0.0,0.0,0.0,0.0404,0.1143,0.1143,0.1545,0.2317,0.3388,0.4426,0.5464,0.6496,0.7966,0.0,0.0,0.0,0.0,0.0,1.0688,1.0688,1.0688,1.0688,1.0688,1.0688,1.0688,1.0688,1.0688,1.0688,1.0688,1.0688,1.0688,1.0688,1.0688,1.0688,1.0688,1.0688,1.0688,1.0697,1.0605,1.0585,1.0565,1.048,1.0466,0.0,1.0466,1.0361,1.0312,1.0312,1.0312,1.0312,1.0312,1.0312,1.0312,1.0312,1.0312,1.0312,1.0312,1.0312,0.0,0.0,0.0,1.0312,1.0312,1.0312,0.0,0.0,0.0,1.0312,1.0312,0.0,0.0,0.0,1.0226,1.0232,0.0,0.0,0.0,0.0,0.0,0.0,0.0,0.0,0.0,0.0,0.0,0.0,0.0,0.0,0.0,0.0,0.0,0.0,0.0,0.0,0.0,0.0,0.0,0.0,0.0,0.0,0.0,0.0,0.0,0.0,0.0,0.0,0.0,0.0,0.0,0.0101,0.0303,0.0303,0.0404,0.0605,0.0605,0.1445,0.3021,0.3021,0.389,0.5397,0.5598,0.5698,0.5698,0.5899,0.6898,0.8468,1.0081,1.0688,1.0688,1.0688,1.0688,1.0688,1.0688,0.0,0.0,1.0688,1.0688,1.0688,1.0688,1.0688,1.0688,1.0688,1.0688,1.0688,1.0688,1.0688,1.0688,1.0688,1.0688,1.0688,1.0688,1.0688,1.0688,1.0688,1.0688,1.0688,1.0688,1.0504,1.0363,1.0363,1.0363,1.0363,1.0363,1.0363,1.0363,1.0363,0.0,0.0,1.0363,1.0363,1.0363,1.0363,1.0363,1.0363,1.0363,1.0363,1.0363,1.0363,1.0363,1.0363,1.0363,1.0456,1.0517,1.0514,1.0388,1.0363,0.0,0.0,0.0,0.0,0.0,0.0,0.0,0.0,0.0,0.0,0.0,0.0,0.0,0.0,0.0,0.0,0.0,0.0,0.0,0.0,0.0,0.0,0.0,0.0,0.0,0.0,0.0,0.0,0.0,0.0,0.0,0.0,0.0,0.0,0.0,0.0706,0.2149,0.2183,0.2919,0.436,0.0,0.0,0.4862,0.4862,0.5061,0.5464,0.6898,0.7498,0.7598,0.9075,0.9878,1.0216,1.0552,1.0688,1.0688,1.0688,1.0688,1.0688,1.0688,1.0688,1.0688,1.0688,1.0688,1.0688,1.0688,1.0688,0.0,1.0688,1.0688,1.0688,1.0688,1.0688,1.0688,1.0688,1.0688,1.0688,1.0688,1.0688,1.0688,1.0688,1.0688,1.0688,1.0688,1.0673,1.0636,1.0636,1.0636,1.0636,1.0636,1.0636,1.0636,1.0636,1.0636,1.0636,1.0636,1.0636,1.0636,1.0636,1.0636,1.0636,1.0636,1.0636,1.0636,1.0636,1.0636,1.0636,1.0636,1.0663,1.0677,1.0673,1.0617,1.0636,0.0,0.0,0.0,0.0,0.0,0.0,0.0,0.0,0.0,0.0,0.0,0.0,0.0,0.0,0.0,0.0,0.0,0.0,0.0,0.0,0.0,0.0,0.0,0.0,0.0,0.0,0.0,0.0,0.0,0.0404,0.1311,0.1344,0.178,0.2685,0.2719,0.312,0.4057,0.4059,0.4494,0.5397,0.5397,0.5863,0.6698,0.6698,0.7198,0.8105,0.8972,0.9341,0.9407,1.0316,1.0688,1.0688,1.0688,1.0688,1.0688,1.0688,1.0688,1.0688,1.0688,1.0688,1.0688,1.0688,1.0688,1.0688,1.0688,1.0688,1.0688,1.0688,1.0688,1.0688,1.0688,1.0688,1.0688,1.0688,1.0688,1.0688,1.0688,1.0688,1.0688,1.0688,1.0688,1.0688,1.0688,1.0688,1.0688,1.0688,1.0688,1.0688,1.0688,1.0688,1.0688,1.0688,1.0688,1.0688,1.0688,1.0688,1.0688,1.0688,1.0688,1.0688,1.0688,1.0688,1.0688,1.0688,1.0688,1.0688,1.0688,1.0688,1.0688,1.0688,1.0688,1.0688,0.0,0.0,0.0,0.0,0.0,0.0,0.0,0.0,0.0,0.0,0.0,0.0,0.0,0.0,0.0,0.0,0.0,0.0135,0.0471,0.0538,0.0639,0.1009,0.0437,0.0,0.0,0.0,0.0135,0.0504,0.0538,0.1311,0.312,0.3221,0.3891,0.5364,0.5397,0.5563,0.5897,0.5897,0.6097,0.6433,0.6433,0.7167,0.8535,0.8535,0.9305,1.0688,1.0688,1.0688,1.0688,1.0688,1.0688,1.0688,1.0688,1.0688,1.0688,1.0688,1.0688,1.0688,1.0688,1.0688,1.0688,1.0688,1.0688,1.0688,1.0688,1.0688,1.0688,1.0688,1.0688,1.0688,1.0688,1.0688,1.0688,1.0688,1.0688,1.0688,1.0688,1.0688,1.0688,1.0688,1.0688,1.0688,1.0688,1.0688,1.0688,1.0688,1.0688,1.0688,1.0688,1.0688,1.0688,1.0688,1.0688,1.0688,1.0688,1.0688,1.0688,1.0688,1.0688,1.0688,1.0688,1.0688,1.0688,1.0688,1.0688,1.0688,1.0688,1.0688,1.0688,1.0688,1.0688,1.0688,0.0,0.0,0.0,0.0,0.0,0.0,0.0,0.0,0.0,0.0,0.0,0.0,0.0,0.0,0.0,0.0,0.0,0.0572,0.2183,0.2383,0.2987,0.4593,0.1948,0.0,0.0,0.0,0.0673,0.2283,0.2383,0.3187,0.4996,0.5095,0.5197,0.5397,0.5397,0.6131,0.7698,0.7698,0.8501,1.0117,1.0117,1.0216,1.0416,1.0416,1.0518,1.0688,1.0688,1.0688,1.0688,1.0688,1.0688,1.0688,1.0688,1.0688,1.0688,1.0688,1.0688,1.0688,1.0688,1.0688,1.0688,1.0688,1.0688,1.0688,1.0688,1.0688,1.0688,1.0688,1.0688,1.0688,1.0688,1.0688,1.0688,1.0688,1.0688,1.0688,1.0688,1.0688,1.0688,1.0688,1.0688,1.0688,1.0688,1.0688,1.0688,1.0688,1.0688,1.0688,1.0688,1.0688,1.0688,1.0688,1.0688,1.0688,1.0688,1.0688,1.0688,1.0688,1.0688,1.0688,1.0688,1.0688,1.0688,1.0688,1.0688,1.0688,1.0688,1.0688,1.0688,1.0688,1.0688,1.0688,0.0,0.0,0.0,0.0,0.0,0.0,0.0,0.0,0.0,0.0,0.084,0.1579,0.1579,0.2417,0.3154,0.3154,0.3154,0.3422,0.4158,0.4258,0.4559,0.5297,0.4059,0.3154,0.3154,0.3154,0.3456,0.4226,0.4258,0.5061,0.6829,0.6898,0.74,0.844,0.8473,0.8839,0.9573,0.9573,0.9945,1.0688,1.0688,1.0688,1.0688,1.0688,1.0688,1.0688,1.0688,1.0688,1.0688,1.0688,1.0688,1.0688,1.0688,1.0688,1.0688,1.0688,1.0688,1.0688,1.0688,1.0688,1.0688,1.0688,1.0688,1.0688,1.0688,1.0688,1.0688,1.0688,1.0688,1.0688,1.0688,1.0688,1.0688,1.0688,1.0688,1.0688,1.0688,1.0688,1.0688,1.0688,1.0688,1.0688,1.0688,1.0688,1.0688,1.0688,1.0688,1.0688,1.0688,1.0688,1.0688,1.0688,1.0688,1.0688,1.0688,1.0688,1.0688,1.0688,1.0688,1.0688,1.0688,1.0688,1.0688,1.0688,1.0688,1.0688,1.0688,1.0688,1.0688,1.0688,1.0688,1.0688,0.0135,0.037,0.0639,0.0135,0.037,0.074,0.074,0.1143,0.1478,0.1478,0.2518,0.3456,0.3456,0.4527,0.5397,0.5397,0.5397,0.5563,0.6064,0.6131,0.6297,0.68,0.6867,0.6867,0.6867,0.5965,0.5598,0.6097,0.6131,0.6898,0.8668,0.8734,0.9341,1.0651,1.0688,1.0688,1.0688,1.0688,1.0708,1.0748,1.0748,1.0769,1.0843,1.0843,1.0843,1.0843,1.0843,1.0843,1.0843,1.0843,1.0819,1.0748,1.0748,1.0725,1.0688,1.0688,1.0688,1.0688,1.0688,1.0688,1.0688,1.0688,1.0688,1.0688,1.0688,1.0688,1.0688,1.0688,1.0688,1.0688,1.0688,1.0688,1.0688,1.0688,1.0688,1.0688,1.0688,1.0688,1.0688,1.0688,1.0688,1.0688,1.0688,1.0688,1.0688,1.0688,1.0688,1.0688,1.0688,1.0688,1.0688,1.0688,1.0688,1.0688,1.0688,1.0688,1.0688,1.0688,1.0688,1.0688,1.0688,1.0688,1.0688,1.0688,1.0688,1.0688,1.0688,1.0688,1.0688,1.0688,1.0688,1.0688,0.0471,0.1277,0.2183,0.0437,0.1311,0.2618,0.2618,0.3992,0.5228,0.5228,0.5297,0.533,0.533,0.5364,0.5397,0.5397,0.5397,0.5997,0.7698,0.7931,0.8568,1.0316,1.0552,1.0552,1.0552,0.7436,0.6097,0.7797,0.7931,0.8701,1.0518,1.0621,1.0651,1.0688,1.0688,1.0688,1.0688,1.0688,1.0762,1.0873,1.0873,1.1016,1.1183,1.1183,1.1183,1.1183,1.1183,1.1183,1.1183,1.1183,1.1067,1.0873,1.0873,1.0816,1.0688,1.0688,1.0688,1.0688,1.0688,1.0688,1.0688,1.0688,1.0688,1.0688,1.0688,1.0688,1.0688,1.0688,1.0688,1.0688,1.0688,1.0688,1.0688,1.0688,1.0688,1.0688,1.0688,1.0688,1.0688,1.0688,1.0688,1.0688,1.0688,1.0688,1.0688,1.0688,1.0688,1.0688,1.0688,1.0688,1.0688,1.0688,1.0688,1.0688,1.0688,1.0688,1.0688,1.0688,1.0688,1.0688,1.0688,1.0688,1.0688,1.0688,1.0688,1.0688,1.0688,1.0688,1.0688,1.0688,1.0688,1.0688,0.2283,0.312,0.436,0.3724,0.4024,0.4494,0.4494,0.4961,0.5397,0.5397,0.6331,0.7131,0.7131,0.8102,0.8909,0.8909,0.8909,0.9108,0.9709,0.9779,1.0011,1.0621,1.0688,1.0688,1.0688,0.9613,0.9175,0.9742,0.9779,1.0047,1.0688,1.0688,1.0735,1.0833,1.0836,1.0884,1.1046,1.1012,1.104,1.109,1.109,1.1118,1.1196,1.1196,1.1196,1.1196,1.1196,1.1196,1.1196,1.1196,1.1169,1.109,1.109,1.1002,1.0836,1.0836,1.0775,1.0688,1.0688,1.0688,1.0688,1.0688,1.0688,1.0688,1.0688,1.0688,1.0688,1.0688,1.0688,1.0688,1.0688,1.0688,1.0688,1.0688,1.0688,1.0688,1.0688,1.0688,1.0688,1.0688,1.0688,1.0688,1.0688,1.0688,1.0688,1.0688,1.0688,1.0688,1.0688,1.0688,1.0688,1.0688,1.0688,1.0688,1.0688,1.0688,1.0688,1.0688,1.0688,1.0688,1.0688,1.0688,1.0688,1.0688,1.0688,1.0688,1.0688,1.0688,1.0688,1.0688,1.0688,1.0688,0.4158,0.4959,0.6164,0.5563,0.5863,0.6331,0.6331,0.6833,0.7303,0.7303,0.8169,0.8969,0.8969,0.9911,1.0688,1.0688,1.0688,1.0688,1.0688,1.0735,1.0769,1.0769,1.0813,1.0877,1.0877,1.0877,1.0856,1.0772,1.0769,1.0789,1.0877,1.0877,1.0924,1.0988,1.1026,1.107,1.1196,1.1196,1.1227,1.1281,1.1336,1.1324,1.1324,1.1324,1.1324,1.1324,1.1324,1.1324,1.1324,1.1324,1.1294,1.1278,1.1278,1.1155,1.1026,1.1026,1.0897,1.0762,1.0708,1.0688,1.0688,1.0688,1.0688,1.0688,1.0688,1.0688,1.0688,1.0688,1.0688,1.0688,1.0688,1.0688,1.0688,1.0688,1.0688,1.0688,1.0688,1.0688,1.0688,1.0688,1.0688,1.0688,1.0688,1.0688,1.0688,1.0688,1.0688,1.0688,1.0688,1.0688,1.0688,1.0688,1.0688,1.0688,1.0688,1.0688,1.0688,1.0688,1.0688,1.0688,1.0688,1.0688,1.0688,1.0688,1.0688,1.0688,1.0688,1.0688,1.0688,1.0688,1.0688,1.0688,0.5997,0.6798,0.7731,0.6097,0.6931,0.813,0.813,0.9474,1.0688,1.0688,1.0688,1.0688,1.0688,1.0688,1.0688,1.0688,1.0694,1.0698,1.0698,1.083,1.0924,1.0924,1.108,1.1196,1.1196,1.1196,1.1107,1.0948,1.0931,1.0985,1.1189,1.1196,1.12,1.121,1.121,1.1213,1.122,1.122,1.1295,1.1406,1.1548,1.1584,1.1584,1.1584,1.1584,1.1584,1.1584,1.1584,1.1584,1.1584,1.1535,1.1402,1.1402,1.1342,1.121,1.121,1.1084,1.0904,1.0759,1.0698,1.0688,1.0688,1.0688,1.0688,1.0688,1.0688,1.0688,1.0688,1.0688,1.0688,1.0688,1.0688,1.0688,1.0688,1.0688,1.0688,1.0688,1.0688,1.0688,1.0688,1.0688,1.0688,1.0688,1.0688,1.0688,1.0688,1.0688,1.0688,1.0688,1.0688,1.0688,1.0688,1.0688,1.0688,1.0688,1.0688,1.0688,1.0688,1.0688,1.0688,1.0688,1.0688,1.0688,1.0688,1.0688,1.0688,1.0688,1.0688,1.0688,1.0688,1.0688,1.0688,0.7833,0.8637,0.9911,0.9477,0.9679,1.0011,1.0011,1.0382,1.0688,1.0688,1.0688,1.0688,1.0688,1.0688,1.0688,1.0688,1.0782,1.0857,1.0857,1.1016,1.1107,1.1107,1.1176,1.1196,1.1196,1.1196,1.123,1.1274,1.1172,1.1159,1.1196,1.1196,1.1251,1.1366,1.1335,1.1389,1.1501,1.1504,1.1525,1.1562,1.1563,1.1584,1.1584,1.1584,1.1584,1.1584,1.1584,1.1584,1.1584,1.1584,1.1596,1.1562,1.1562,1.1467,1.1335,1.1335,1.1236,1.1135,1.1063,1.0904,1.0688,1.0688,1.0688,1.0688,1.0688,1.0688,1.0688,1.0688,1.0688,1.0688,1.0688,1.0688,1.0688,1.0688,1.0688,1.0688,1.0688,1.0688,1.0688,1.0688,1.0688,1.0688,1.0688,1.0688,1.0688,1.0688,1.0688,1.0688,1.0688,1.0688,1.0688,1.0688,1.0688,1.0688,1.0688,1.0688,1.0688,1.0688,1.0688,1.0688,1.0688,1.0688,1.0688,1.0688,1.0688,1.0688,1.0688,1.0688,1.0688,1.0688,1.0688,1.0688,0.9474,0.9911,1.0688,1.0688,1.0688,1.0688,1.0688,1.0688,1.0688,1.0688,1.0688,1.0688,1.0688,1.0688,1.0711,1.0775,1.086,1.0934,1.1033,1.1168,1.1298,1.1298,1.1321,1.1362,1.1362,1.1362,1.1399,1.1484,1.1348,1.1329,1.1358,1.1362,1.1402,1.1491,1.1491,1.1535,1.1584,1.1584,1.1584,1.1584,1.1584,1.1584,1.1584,1.1584,1.1584,1.1584,1.1584,1.1584,1.1584,1.1584,1.1584,1.1584,1.1584,1.1565,1.1491,1.1491,1.1396,1.1298,1.1298,1.1145,1.0904,1.0809,1.0786,1.0775,1.0708,1.0688,1.0688,1.0688,1.0688,1.0688,1.0688,1.0688,1.0688,1.0688,1.0688,1.0688,1.0688,1.0688,1.0688,1.0688,1.0688,1.0708,1.0775,1.0786,1.0809,1.0904,1.0914,1.0914,1.0914,1.0826,1.0813,1.0907,1.0914,1.0914,1.0914,1.0914,1.0914,1.0914,1.0914,1.0887,1.0789,1.0786,1.0755,1.0688,1.0688,1.0688,1.0688,1.0688,1.0688,1.0688,1.0688,1.0688,1.0688,1.0688,1.0688,1.0688,1.0688,1.0688,1.0688,1.0688,1.0688,1.0688,1.0688,1.0688,1.0688,1.0701,1.0762,1.0894,1.0948,1.1019,1.121,1.1324,1.1419,1.1419,1.1538,1.1584,1.1584,1.1584,1.1584,1.1584,1.1497,1.148,1.1577,1.1584,1.1584,1.1584,1.1584,1.1584,1.1584,1.1584,1.1584,1.1584,1.1584,1.1584,1.1584,1.1584,1.1584,1.1584,1.1584,1.1584,1.1584,1.1584,1.1584,1.1584,1.1584,1.1584,1.1584,1.1584,1.1535,1.1419,1.1419,1.1335,1.123,1.0995,1.0945,1.0917,1.0786,1.0765,1.0718,1.0718,1.0701,1.0688,1.0688,1.0688,1.0688,1.0688,1.0688,1.0688,1.0688,1.0701,1.0718,1.0718,1.0765,1.0786,1.0921,1.0945,1.0985,1.1176,1.1196,1.1203,1.1227,1.1067,1.1026,1.1186,1.1196,1.1196,1.1196,1.1196,1.1196,1.1196,1.1196,1.1107,1.0948,1.0945,1.088,1.0782,1.0778,1.0778,1.0778,1.0778,1.0735,1.0718,1.0718,1.0708,1.0688,1.0688,1.0688,1.0688,1.0688,1.0688,1.0688,1.0688,1.0688,1.0688,1.0688,1.0688,1.0688,1.0789,1.0884,1.0911,1.112,1.1324,1.1348,1.1484,1.1579,1.1579,1.1603,1.1584,1.1584,1.1584,1.1584,1.1584,1.1596,1.1592,1.1616,1.1584,1.1584,1.1584,1.1584,1.1584,1.1584,1.1584,1.1584,1.1584,1.1584,1.1584,1.1584,1.1584,1.1584,1.1584,1.1584,0.0,1.1584,1.1584,1.1584,1.1584,1.1584,1.1584,1.1584,1.1584,1.1603,1.1579,1.1579,1.1562,1.1494,1.1216,1.1159,1.1155,1.1128,1.1002,1.0874,1.0874,1.0786,1.0688,1.0688,1.0688,1.0688,1.0688,1.0688,1.0688,1.0688,1.0786,1.0874,1.0874,1.1006,1.1128,1.1155,1.1159,1.1169,1.1193,1.1196,1.1244,1.1335,1.1254,1.1169,1.1196,1.1196,1.1196,1.1196,1.1196,1.1196,1.1196,1.1196,1.1186,1.1162,1.1159,1.1149,1.1121,1.1121,1.1121,1.1121,1.1121,1.1023,1.0874,1.0874,1.0809,1.0688,1.0688,1.0688,1.0688,1.0688,1.0688,1.0688,1.0688,1.0688,1.0688,1.0688,1.0688,1.0688,1.0813,1.0938,1.105,1.1246,1.1419,1.1497,1.1572,1.1584,1.1584,1.1584,1.1584,1.1584,1.1584,1.1584,1.1584,1.1584,1.1584,1.1584,1.1584,1.1584,1.1584,1.1584,1.1584,1.1584,1.1584,1.1584,1.1584,1.1584,1.1584,1.1584,1.1584,1.1584,1.1584,1.1584,1.1584,1.1584,1.1584,1.1584,1.1584,1.1584,1.1584,1.1584,1.1584,1.1584,1.1584,1.1584,1.1584,1.1596,1.1447,1.1348,1.1302,1.1223,1.1114,1.106,1.106,1.1006,1.0951,1.0951,1.0951,1.0951,1.0951,1.0951,1.0951,1.0951,1.1009,1.106,1.106,1.1118,1.1223,1.1302,1.1315,1.1342,1.1389,1.1399,1.1426,1.1501,1.1447,1.1399,1.1399,1.1399,1.1399,1.1399,1.1399,1.1399,1.1399,1.1399,1.1365,1.1322,1.1315,1.1278,1.12,1.1196,1.1196,1.1196,1.1196,1.1162,1.106,1.106,1.1019,1.0688,1.0688,1.0688,1.0688,1.0688,1.0688,1.0688,1.0688,1.0688,1.0688,1.0688,1.0688,1.0688,1.0836,1.1029,1.1179,1.1353,1.1484,1.1603,1.1584,1.1584,1.1584,1.1584,1.1584,1.1584,1.1584,1.1584,1.1584,1.1584,1.1584,1.1584,1.1584,1.1584,1.1584,1.1584,1.1584,1.1584,1.1584,1.1584,1.1584,1.1584,1.1584,1.1584,1.1584,1.1584,1.1584,1.1584,1.1584,1.1584,1.1584,1.1584,1.1584,1.1584,1.1584,1.1584,1.1584,1.1584,1.1584,1.1584,1.1584,1.1584,1.1584,1.1538,1.1416,1.1332,1.1274,1.1247,1.1247,1.1223,1.1196,1.1196,1.1196,1.1196,1.1196,1.1196,1.1196,1.1196,1.1223,1.1247,1.1247,1.1274,1.1332,1.1419,1.144,1.148,1.1567,1.1584,1.1584,1.1584,1.1584,1.1584,1.1584,1.1584,1.1584,1.1584,1.1584,1.1584,1.1584,1.1584,1.1565,1.1447,1.144,1.1385,1.1298,1.1295,1.1295,1.1295,1.1295,1.1278,1.1247,1.1247,1.123,1.0688,1.0688,1.0688,1.0688,1.0688,1.0688,1.0688,1.0688,1.0688,1.0688,1.0688,1.0688,1.0688,1.0951,1.1183,1.1196,1.1409,1.1603,1.1616,1.1584,1.1584,1.1584,1.1584,1.1584,1.1584,1.1584,1.1584,1.1584,1.1584,1.1584,1.1584,1.1584,1.1584,1.1584,1.1584,1.1584,1.1584,1.1584,1.1584,1.1584,1.1584,1.1584,1.1584,1.1584,1.1584,1.1584,1.1584,1.1584,0.0,1.1584,1.1584,1.1584,1.1584,1.1584,1.1584,1.1584,1.1584,1.1584,1.1584,1.1584,1.1584,1.1584,1.1573,1.1596,1.1582,1.148,1.1369,1.1369,1.1305,1.1196,1.1196,1.1196,1.1196,1.1196,1.1196,1.1196,1.1196,1.1305,1.1369,1.1369,1.1484,1.1582,1.1596,1.1563,1.1603,1.1616,1.1584,1.1584,1.1584,1.1584,1.1584,1.1584,1.1584,1.1584,1.1584,1.1584,1.1584,1.1584,1.1584,1.1577,1.1563,1.1563,1.1592,1.1575,1.1575,1.1575,1.1575,1.1575,1.1504,1.1369,1.1369,1.1332,1.0688,1.0688,1.0688,1.0688,1.0688,1.0688,1.0688,1.0688,1.0688,1.0688,1.0688,1.0688,1.0688,1.0962,1.1196,1.1196,1.1419,1.1584,1.1584,1.1584,1.1584,1.1584,1.1658,1.1709,1.1709,1.1833,1.1847,1.1715,1.1667,1.1584,1.1584,1.1584,1.1584,1.1584,1.1584,1.1584,1.1584,1.1584,1.1584,1.1584,1.1584,1.1584,1.1584,1.1584,1.1584,1.1584,1.1584,1.1584,0.0,1.1584,1.1584,1.1584,1.1584,1.1584,1.1584,1.1584,1.1584,1.1584,1.1584,1.1584,1.1584,1.1584,1.1584,1.1584,1.1584,1.1575,1.1528,1.1528,1.1484,1.1436,1.1436,1.1436,1.1436,1.1436,1.1436,1.1436,1.1436,1.1487,1.1528,1.1528,1.1575,1.1584,1.1584,1.1584,1.1584,1.1584,1.1584,1.1584,1.1584,1.1584,1.1584,1.1584,1.1584,1.1584,1.1584,1.1584,1.1584,1.1584,1.1584,1.1584,1.1584,1.1584,1.1584,1.1584,1.1584,1.1584,1.1584,1.1584,1.1589,1.1528,1.1528,1.1497,1.0688,1.0688,1.0688,1.0688,1.0688,1.0688,1.0688,1.0688,1.0688,1.0688,1.0688,1.0701,1.0745,1.0992,1.121,1.1257,1.145,1.1584,1.1584,1.1584,1.1584,1.1584,1.1709,1.1793,1.1793,1.1972,1.2053,1.1908,1.1806,1.1731,1.1648,1.1644,1.1627,1.1584,1.1584,1.1584,1.1584,1.1584,1.1584,1.1584,1.1584,1.1584,1.1584,1.1627,1.1644,1.1648,1.1731,1.1752,0.0,1.1752,1.1752,1.1752,1.1752,1.1752,1.1745,1.1661,1.1644,1.1641,1.1597,1.1584,1.1584,1.1584,1.1584,1.1584,1.1584,1.1584,1.1584,1.1584,1.1584,1.1584,1.1584,1.1584,1.1584,1.1584,1.1584,1.1584,1.1584,1.1584,1.1584,1.1584,1.1584,1.1584,1.1584,1.1584,1.1584,1.1584,1.1584,1.1584,1.1584,1.1584,1.1584,1.1584,1.1584,1.1584,1.1584,1.1584,1.1584,1.1584,1.1584,1.1584,1.1584,1.1584,1.1584,1.1584,1.1584,1.1584,1.1584,1.1584,1.1584,1.1584,1.1584,1.1584,1.0688,1.0688,1.0688,1.0688,1.0688,1.0688,1.0688,1.0688,1.0688,1.0688,1.0688,1.0732,1.0884,1.1063,1.1247,1.1365,1.1518,1.1584,1.1584,1.1584,1.1584,1.1584,1.1709,1.1793,1.1793,1.1972,1.2098,1.2098,1.2094,1.2026,1.18,1.1793,1.1729,1.1587,1.1584,1.1584,1.1584,1.1584,1.1584,1.1584,1.1584,1.1584,1.1587,1.1729,1.1793,1.18,1.2026,1.2094,0.0,1.2094,1.2094,1.2094,1.2094,1.2094,1.2077,1.1884,1.1793,1.1773,1.1634,1.1584,1.1584,1.1584,1.1584,1.1584,1.1584,1.1584,1.1584,1.1584,1.1584,1.1584,1.1584,1.1584,1.1584,1.1584,1.1584,1.1584,1.1584,1.1584,1.1584,1.1584,1.1584,1.1584,1.1584,1.1584,1.1584,1.1584,1.1584,1.1584,1.1584,1.1584,1.1584,1.1584,1.1584,1.1584,1.1584,1.1584,1.1584,1.1584,1.1584,1.1584,1.1584,1.1584,1.1584,1.1584,1.1584,1.1584,1.1584,1.1584,1.1584,1.1584,1.1584,1.1584,1.0688,1.0688,1.0688,1.0688,1.0688,1.0688,1.0688,1.0688,1.0688,1.0688,1.0688,1.0735,1.0887,1.1067,1.1247,1.1365,1.1518,1.1584,1.1584,1.1584,1.1617,1.1715,1.1989,1.2182,1.2277,1.2247,1.2258,1.2258,1.2159,1.2077,1.2026,1.2026,1.1877,1.1626,1.1584,1.1584,1.1584,1.1584,1.1634,1.1729,1.1729,1.182,1.1925,1.2006,1.2026,1.2026,1.2077,1.2098,1.2098,1.2098,1.2098,1.2098,1.2098,1.2098,1.2094,1.2043,1.2026,1.1969,1.1816,1.1729,1.1712,1.1614,1.1584,1.1584,1.1584,1.1584,1.1584,1.1584,1.1584,1.1584,1.1584,1.1584,1.1584,1.1584,1.1584,1.1584,1.1584,1.1584,1.1584,1.1584,1.1584,1.1584,1.1584,1.1584,1.1584,1.1584,1.1584,1.1584,1.1584,1.1584,1.1657,1.1715,1.1729,1.1688,1.1594,1.1584,1.1584,1.1584,1.1584,1.1584,1.1584,1.1584,1.1584,1.1584,1.1584,1.1584,1.1584,1.1584,1.1584,1.1584,1.1584,1.1584,1.0688,1.0688,1.0688,1.0688,1.0688,1.0688,1.0688,1.0688,1.0688,1.0688,1.0732,1.0819,1.0968,1.1148,1.1336,1.1453,1.1558,1.1584,1.1584,1.1584,1.1694,1.1894,1.2138,1.2345,1.2488,1.2423,1.2369,1.2369,1.2281,1.2241,1.219,1.2186,1.2074,1.1796,1.1786,1.1786,1.1786,1.1786,1.183,1.1918,1.1918,1.1969,1.2101,1.2159,1.2186,1.219,1.2241,1.2264,0.0,1.2264,1.2264,1.2264,1.2264,1.2264,1.2223,1.2207,1.2186,1.2166,1.1972,1.1918,1.1894,1.1745,1.1627,1.1584,1.1584,1.1584,1.1584,1.1584,1.1584,1.1584,1.1584,1.1584,1.1584,1.1584,1.1584,1.1584,1.1584,1.1584,1.1584,1.1584,1.1584,1.1584,1.1584,1.1584,1.1636,1.1655,1.1661,1.1685,1.1779,1.1786,1.182,1.1908,1.1918,1.1884,1.1796,1.1731,1.1641,1.1587,1.1584,1.1584,1.1584,1.1584,1.1584,1.1584,1.1584,1.1584,1.1584,1.1584,1.1584,1.1584,1.1584,1.1584,0.0,1.0688,1.0688,1.0688,1.0688,1.0688,1.0688,1.0688,0.0,1.0701,1.0816,1.0961,1.1186,1.1329,1.1443,1.1596,1.1584,1.1584,1.1584,1.1636,1.1759,1.2081,1.2213,1.2355,1.2488,1.2501,1.2501,1.2501,1.2501,1.2444,1.2315,1.2305,1.2278,1.2135,1.2132,1.2121,1.2098,1.2098,1.2104,1.2115,1.2115,1.2121,1.2135,1.224,1.2305,1.2315,1.2444,1.2501,1.2501,1.2501,1.2501,1.2501,1.2501,1.2501,1.2484,1.2352,1.2305,1.2284,1.2169,1.2115,1.2091,1.1898,1.1722,1.165,1.165,1.1636,1.1584,1.1584,1.1584,1.1584,1.1584,1.1584,1.1584,1.1584,1.1584,1.1584,1.1584,1.1584,1.1584,1.1584,1.1594,1.16,1.16,1.1643,1.1694,1.179,1.181,1.1898,1.2081,1.2098,1.2101,1.2115,1.2115,1.2115,1.2115,1.1935,1.1753,1.1624,1.165,1.165,1.165,1.165,1.165,1.165,1.1604,1.16,1.16,1.1587,1.1584,1.1584,1.1584,1.1584,1.0688,0.0,1.0688,1.0688,1.0688,1.0688,0.0,1.0688,1.0721,1.0836,1.089,1.0995,1.1287,1.1365,1.1443,1.1596,1.1584,1.1584,1.1584,1.1813,1.2064,1.2213,1.2366,1.2464,1.2498,1.2501,1.2501,1.2501,1.2501,1.2488,1.2454,1.2454,1.2433,1.24,1.24,1.2329,1.2101,1.2098,1.2159,1.2237,1.2237,1.2294,1.24,1.2433,1.2454,1.2454,1.2488,1.2501,1.2501,1.2501,1.2501,1.2501,1.2501,1.2501,1.2498,1.2464,1.2454,1.243,1.2288,1.2237,1.221,1.2094,1.2023,1.1996,1.1996,1.1799,1.1584,1.1584,1.1584,1.1584,1.1584,1.1584,1.1584,1.1584,1.1584,1.1584,1.1584,1.1584,1.1584,1.1584,1.1671,1.1746,1.1746,1.1881,1.2006,1.2003,1.2043,1.2057,1.2094,1.2098,1.2145,1.2223,1.2237,1.2237,1.2237,1.2135,1.203,1.1996,1.1996,1.1996,1.1996,1.1996,1.1996,1.1996,1.1843,1.1746,1.1746,1.1638,1.1584,1.1584,1.1584,1.1584,1.0688,1.0688,1.0688,1.0688,1.0688,1.0688,1.0688,1.0742,1.0816,1.0897,1.1022,1.1164,1.1362,1.145,1.1525,1.1606,1.1584,1.1607,1.1671,1.1976,1.2234,1.2281,1.2416,1.2501,1.2501,1.2501,1.2501,1.2501,1.2501,1.2501,1.2501,1.2501,1.2501,1.2501,1.2501,1.2423,1.2267,1.2264,1.2305,1.2386,1.2386,1.2427,1.2501,1.2501,1.2501,1.2501,1.2501,1.2501,1.2501,1.2501,1.2501,1.2501,1.2501,1.2501,1.2501,1.2501,1.2501,1.2491,1.2413,1.2345,1.2277,1.223,1.2159,1.2098,1.2098,1.1989,1.1806,1.1735,1.1634,1.1584,1.1584,1.1584,1.1584,1.1584,1.1584,1.1636,1.1665,1.1678,1.1738,1.1809,1.1884,1.1938,1.1938,1.2043,1.2125,1.2193,1.2207,1.2227,1.2295,1.2264,1.2294,1.2379,1.2386,1.2386,1.2386,1.2311,1.2244,1.2108,1.2098,1.2098,1.2098,1.2098,1.2098,1.2098,1.1979,1.1938,1.1938,1.186,1.1823,1.182,1.1712,1.1678,1.0688,1.0688,1.0688,1.0688,1.0688,1.0724,1.0718,1.0823,1.0928,1.0972,1.1216,1.1399,1.1419,1.1531,1.1584,1.1584,1.1636,1.1665,1.1847,1.2111,1.2298,1.2322,1.2427,1.2617,1.2919,1.2958,1.307,1.3414,1.3417,1.3417,1.3417,1.3417,1.3417,1.3417,1.3417,1.3417,1.3417,1.2807,1.2501,1.2501,1.2501,1.2501,1.2501,1.2501,1.2501,1.2501,1.2501,0.0,1.2501,1.2501,1.2501,1.2501,1.2501,1.2501,1.2501,1.2501,1.2501,1.2501,1.2501,1.2423,1.2322,1.2322,1.2233,1.2166,1.2166,1.2152,1.2104,1.1938,1.1796,1.1687,1.1687,1.1687,1.1687,1.1687,1.1687,1.1721,1.1803,1.1867,1.1904,1.2074,1.2118,1.2135,1.2135,1.2152,1.221,1.2301,1.2322,1.2366,1.2484,1.2501,1.2501,1.2501,1.2501,1.2501,1.2501,1.2501,1.2393,1.2183,1.2166,1.2166,1.2166,1.2166,1.2166,1.2166,1.2145,1.2135,1.2135,1.2111,1.2098,1.2094,1.1928,1.1867,1.0688,1.0688,1.0688,1.0688,1.0688,1.0721,1.085,1.0897,1.0985,1.127,1.1358,1.143,1.1558,1.1603,1.1584,1.1584,1.1685,1.1853,1.2043,1.2217,1.2335,1.2454,1.2488,1.3186,1.4855,1.5046,1.5765,1.755,1.7663,1.7663,1.7663,1.7663,1.7663,1.7663,1.7663,1.7663,1.7663,1.4214,1.2501,1.2501,1.2501,1.2501,1.2501,1.2501,1.2501,1.2501,0.0,1.2501,1.2501,1.2501,1.2501,1.2501,1.2501,1.2501,1.2501,1.2501,1.2501,1.2501,1.2501,1.2488,1.2471,1.2471,1.2454,1.2433,1.2433,1.2349,1.225,1.2227,1.2149,1.2033,1.2033,1.2033,1.2033,1.2033,1.2033,1.2036,1.2057,1.2064,1.207,1.2094,1.2207,1.2254,1.2254,1.2355,1.244,1.2467,1.2471,1.2478,1.2498,1.2501,1.2501,1.2501,1.2501,1.2501,1.2501,1.2501,1.2481,1.2437,1.2433,1.2433,1.2433,1.2433,1.2433,1.2433,1.2318,1.2254,1.2254,1.2162,1.2098,1.2098,1.2074,1.2064,1.0688,1.0688,1.0708,1.0789,1.0809,1.083,1.0897,1.1039,1.1226,1.1362,1.1457,1.1535,1.1606,1.1584,1.1607,1.1685,1.1857,1.201,1.2162,1.2311,1.2846,1.3976,1.4137,1.4935,1.698,1.717,1.7588,1.8534,1.861,1.861,1.861,1.861,1.861,1.861,1.861,1.861,1.861,1.6756,1.5807,1.5807,1.5807,1.5807,1.5769,1.4629,1.4137,1.4061,0.0,1.2501,1.2501,1.2501,1.2501,1.2501,1.2501,1.2501,1.2501,1.2501,1.2501,1.2501,1.2501,1.2501,1.2501,1.2501,1.2501,1.2501,1.2501,1.2457,1.2406,1.2406,1.2278,1.2098,1.2098,1.2098,1.2098,1.2098,1.2098,1.2121,1.2207,1.2224,1.2244,1.2284,1.2355,1.2406,1.2406,1.2461,1.2501,1.2501,1.2501,1.2501,1.2501,1.2501,1.2501,1.2501,1.2501,1.2501,1.2501,1.2501,1.2501,1.2501,1.2501,1.2501,1.2501,1.2501,1.2501,1.2501,1.2437,1.2406,1.2406,1.2335,1.2336,1.2298,1.2258,1.2224,1.0688,1.0688,1.0725,1.0877,1.0914,1.0931,1.1002,1.1229,1.1402,1.1436,1.1538,1.1584,1.1584,1.1647,1.1668,1.1776,1.1989,1.234,1.2905,1.3128,1.3945,1.5994,1.6223,1.7056,1.9101,1.929,1.9516,1.9967,2.001,2.001,2.001,2.001,2.001,2.001,2.001,2.001,2.001,2.001,1.9516,1.861,1.861,1.861,1.8534,1.6451,1.5501,1.5387,1.3375,1.2501,1.2501,1.2501,1.2501,1.2501,1.2501,1.2501,1.2501,1.2501,1.2501,1.2501,1.2501,1.2501,1.2501,1.2501,1.2501,1.2501,1.2501,1.2501,1.2501,1.2501,1.2338,1.2203,1.2203,1.2203,1.2203,1.2203,1.2203,1.2234,1.2315,1.2338,1.2372,1.2481,1.2501,1.2501,1.2501,1.2501,1.2501,1.2501,1.2501,1.2501,1.2501,1.2501,1.2501,1.2501,1.2501,1.2501,1.2501,1.2501,1.2501,1.2501,1.2501,1.2501,1.2501,1.2501,1.2501,1.2501,1.2501,1.2501,1.2501,1.2501,1.2501,1.2501,1.2389,1.2338,1.0688,1.0688,1.0725,1.0877,1.0914,1.0988,1.1297,1.1375,1.1433,1.1572,1.1577,1.1584,1.1584,1.1692,1.1783,1.1793,1.2081,1.2946,1.481,1.5194,1.6032,1.8118,1.8383,1.9176,2.1184,2.1371,2.2167,2.4025,2.4179,2.4179,2.4179,2.4179,2.4179,2.4179,2.4179,2.4179,2.4179,2.4179,2.2279,1.861,1.861,1.861,1.8534,1.6451,1.5501,1.5387,1.3375,1.2501,1.2501,1.2501,1.2501,1.2501,1.2501,1.2501,1.2501,1.2501,1.2501,1.2501,1.2501,1.2501,1.2501,1.2501,1.2501,1.2501,1.2501,1.2501,1.2501,1.2501,1.2484,1.2471,1.2471,1.2471,1.2471,1.2471,1.2471,1.2474,1.2484,1.2484,1.2488,1.2501,1.2501,1.2501,1.2501,1.2501,1.2501,1.2501,1.2501,1.2501,1.2501,1.2501,1.2501,1.2501,1.2501,1.2501,1.2501,1.2501,1.2501,1.2501,1.2501,1.2501,1.2501,1.2501,1.2501,1.2501,1.2501,1.2501,1.2501,1.2501,1.2501,1.2501,1.2491,1.2484,1.0688,1.0759,1.0863,1.1046,1.1151,1.1253,1.1365,1.1463,1.1548,1.1606,1.1584,1.1647,1.1698,1.1874,1.2404,1.3747,1.4095,1.4893,1.7034,1.7383,1.8189,2.0236,2.0461,2.1259,2.3264,2.3456,2.3759,2.4525,2.4599,2.4599,2.4599,2.4599,2.4599,2.4599,2.4599,2.4599,2.4599,2.4599,2.384,2.2316,2.1066,2.0461,2.0348,1.7013,1.5501,1.5387,1.3375,1.2501,1.2501,1.2501,1.2501,1.2501,1.2501,1.2501,1.2501,1.2501,1.2501,1.2501,1.2501,1.2501,1.2501,1.2501,1.2501,1.2501,1.2501,1.2501,1.2501,1.2501,1.2501,1.2501,1.2501,1.2501,1.2501,1.2501,1.2501,1.2501,1.2501,1.2501,1.2501,1.2501,1.2501,1.2501,1.2501,1.2501,1.2501,1.2501,1.2501,1.2501,1.2501,1.2501,1.2501,1.2501,1.2501,1.2501,1.2501,1.2501,1.2501,1.2501,1.2501,1.2501,1.2501,1.2501,1.2501,1.2501,1.2501,1.2501,1.2501,1.2501,1.2501,1.2501,1.2501,1.2501,1.0688,1.0799,1.0948,1.1162,1.1312,1.1402,1.1453,1.1545,1.1584,1.1584,1.2154,1.2482,1.1987,1.3089,1.4343,1.516,1.5905,1.7082,1.9231,1.9553,2.0273,2.2316,2.2546,2.3079,2.4488,2.4599,2.4599,2.4599,2.4599,2.4599,2.4599,2.4599,2.4599,2.4599,2.4599,2.4599,2.4599,2.4599,2.4599,2.4562,2.2546,2.1937,2.2391,1.834,1.6489,1.6337,1.3641,1.2501,1.2501,1.2501,1.2501,1.2501,1.2501,1.2501,1.2501,1.2501,1.2501,1.2501,1.2501,1.2501,1.2501,1.2501,1.2501,1.2501,1.2501,1.2501,1.2501,1.2501,1.2501,1.2501,1.2501,1.2501,1.2501,1.2501,1.2501,1.2501,1.2501,1.2501,1.2501,1.2501,1.2501,1.2501,1.2501,1.2501,1.2501,1.2501,1.2501,1.2501,1.2501,1.2501,1.2501,1.2501,1.2501,1.2501,1.2501,1.2501,1.2501,1.2501,1.2501,1.2501,1.2501,1.2501,1.2501,1.2501,1.2501,1.2501,1.2501,1.2501,1.2501,1.2501,1.2501,1.2501,1.0717,1.0799,1.0951,1.1162,1.1312,1.1433,1.1586,1.1584,1.1584,1.1584,1.3341,1.4342,1.2476,1.551,1.7671,1.5665,1.7185,1.9327,2.1334,2.1633,2.236,2.4371,2.4599,2.4599,2.4599,2.4599,2.4599,2.4599,2.4599,2.4599,2.4599,2.4599,2.4599,2.4599,2.4599,2.4599,2.4599,2.4599,2.4599,2.4556,2.2583,2.2657,2.4408,2.0386,1.8572,1.8307,1.4253,1.2501,1.2501,1.2501,1.2501,1.2501,1.2501,1.2501,1.2501,1.2501,1.2501,1.2501,1.2501,1.2501,1.2501,1.2501,1.2501,1.2501,1.2501,1.2501,1.2501,1.2501,1.2501,1.2501,1.2501,1.2501,1.2501,1.2501,1.2501,1.2501,1.2501,1.2501,1.2501,1.2501,1.2501,1.2501,1.2501,1.2501,1.2501,1.2501,1.2501,1.2501,1.2501,1.2501,1.2501,1.2501,1.2501,1.2501,1.2501,1.2501,1.2501,1.2501,1.2501,1.2501,1.2501,1.2501,1.2501,1.2501,1.2501,1.2501,1.2501,1.2501,1.2501,1.2501,1.2501,1.2501,1.2545,1.1836,1.1145,1.1186,1.1358,1.1562,1.1573,1.1584,1.1647,1.1712,1.3571,1.5001,1.4462,1.6641,1.8767,1.9597,2.0298,2.1409,2.3419,2.3722,2.3914,2.4525,2.4599,2.4599,2.4599,2.4599,2.4599,2.4599,2.4599,2.4599,2.4599,2.4599,2.4599,2.4599,2.4599,2.4599,2.4599,2.4399,2.4335,2.4292,2.3695,2.2362,2.0273,1.7625,1.5654,1.4249,1.3035,1.2501,1.2501,1.2501,1.2501,1.2501,1.2501,1.2501,1.2501,1.2501,1.2501,1.2501,1.2501,1.2501,1.2501,1.2501,1.2501,1.2501,1.2501,1.2501,1.2501,1.2501,1.2501,1.2501,1.2501,1.2501,1.2501,1.2501,1.2501,1.2501,1.2501,1.2501,1.2501,1.2501,1.2501,1.2501,1.2501,1.2501,1.2501,1.2501,1.2501,1.2501,1.2501,1.2501,1.2501,1.2501,1.2501,1.2501,1.2501,1.2501,1.2501,1.2501,1.2501,1.2501,1.2501,1.2501,1.2501,1.2501,1.2501,1.2501,1.2501,1.2501,1.2501,1.2501,1.2501,1.2501,1.2533,1.1785,1.121,1.1274,1.1995,1.2728,1.2795,1.224,1.1959,1.2904,1.4905,1.6506,1.6588,1.9007,2.1104,2.1521,2.2279,2.3227,2.4445,2.4599,2.4599,2.4599,2.4599,2.4599,2.4599,2.4599,2.4599,2.4599,2.4599,2.4599,2.4599,2.4599,2.4599,2.4599,2.4486,2.4426,2.4426,2.4182,2.4028,2.4028,2.4028,2.2056,1.8366,1.7246,1.607,1.4821,1.3225,1.2501,1.2501,1.2501,1.2501,1.2501,1.2501,1.2501,1.2501,1.2501,1.2501,1.2501,1.2501,1.2501,1.2501,1.2501,1.2501,1.2501,1.2501,1.2501,1.2501,1.2501,1.2501,1.2501,1.2501,1.2501,1.2501,1.2501,1.2501,1.2501,1.2501,1.2501,1.2501,1.2501,1.2501,1.2501,1.2501,1.2501,1.2501,1.2501,1.2501,1.2501,1.2501,1.2501,1.2501,1.2501,1.2501,1.2501,1.2501,1.2501,1.2501,1.2501,1.2501,1.2501,1.2501,1.2501,1.2501,1.2501,1.2501,1.2501,1.2501,1.2501,1.2501,1.2501,1.2501,1.2501,1.1769,1.1289,1.1268,1.1594,1.3039,1.4447,1.4673,1.336,1.2655,1.4687,1.6819,1.8436,1.8796,2.2012,2.3988,2.2167,2.3419,2.4599,2.4599,2.4599,2.4599,2.4599,2.4599,2.4599,2.4599,2.4599,2.4599,2.4599,2.4599,2.4599,2.4599,2.4599,2.4599,2.4599,2.4356,2.4202,2.4202,2.3888,2.3763,2.3763,2.3763,2.1949,1.8558,1.8543,1.8363,1.7853,1.4099,1.2501,1.2501,1.2501,1.2501,1.2501,1.2501,1.2501,1.2501,1.2501,1.2501,1.2501,1.2501,1.2501,1.2501,1.2501,1.2501,1.2501,1.2501,1.2501,1.2501,1.2501,1.2501,1.2501,1.2501,1.2501,1.2501,1.2501,1.2501,1.2501,1.2501,1.2501,1.2501,1.2501,1.2501,1.2501,1.2501,1.2501,1.2501,1.2501,1.2501,1.2501,1.2501,1.2501,1.2501,1.2501,1.2501,1.2501,1.2501,1.2501,1.2501,1.2501,1.2501,1.2501,1.2501,1.2501,1.2501,1.2501,1.2501,1.2501,1.2501,1.2501,1.2501,1.2501,1.2501,1.2501,1.504,1.3134,1.1573,1.3211,1.4011,1.4479,1.4777,1.461,1.4543,1.5126,1.6997,1.9039,2.0643,2.2961,2.4445,2.4025,2.4334,2.4599,2.4599,2.4599,2.4599,2.4599,2.4599,2.4599,2.4599,2.4599,2.4599,2.4599,2.4599,2.4599,2.4599,2.4599,2.4599,2.4599,2.4356,2.4202,2.4202,2.3688,2.342,2.342,2.342,2.2983,2.208,1.9421,1.6606,1.3757,1.2881,1.2501,1.2501,1.2501,1.2501,1.2501,1.2501,1.2501,1.2501,1.2501,1.2501,1.2501,1.2501,1.2501,1.2501,1.2501,1.2501,1.2501,1.2501,1.2501,1.2501,1.2501,1.2501,1.2501,1.2501,1.2501,1.2501,1.2501,1.2501,1.2501,1.2501,1.2501,1.2501,1.2501,1.2501,1.2501,1.2501,1.2501,1.2501,1.2501,1.2501,1.2501,1.2501,1.2501,1.2501,1.2501,1.2501,1.2501,1.2501,1.2501,1.2501,1.2501,1.2501,1.2501,1.2501,1.2501,1.2501,1.2501,1.2501,1.2501,1.2501,1.2501,1.2501,1.2501,1.2501,1.2501,1.6489,1.5085,1.4319,1.6466,1.6387,1.6096,1.737,1.7025,1.6789,1.8063,1.9243,2.0648,2.2664,2.3877,2.4599,2.4599,2.4599,2.4599,2.4599,2.4599,2.4599,2.4599,2.4599,2.4599,2.4599,2.4599,2.4599,2.4599,2.4599,2.4599,2.4599,2.4599,2.4532,2.4399,2.4148,2.3928,2.3781,2.3333,2.3106,2.3106,2.3106,2.2214,2.0462,1.8843,1.6037,1.2501,1.2501,1.2501,1.2501,1.2501,1.2501,1.2501,1.2501,1.2501,1.2501,1.2501,1.2501,1.2501,1.2501,1.2501,1.2501,1.2501,1.2501,1.2501,1.2501,1.2501,1.2501,1.2501,1.2501,1.2501,1.2501,1.2501,1.2501,1.2501,1.2501,1.2501,1.2501,1.2501,1.2501,1.2501,1.2501,1.2501,1.2501,1.2501,1.2501,1.2501,1.2501,1.2501,1.2501,1.2501,1.2501,1.2501,1.2501,1.2501,1.2501,1.2501,1.2501,1.2501,1.2501,1.2501,1.2501,1.2501,1.2501,1.2501,1.2501,1.2501,1.2501,1.2501,1.2501,1.2501,1.2501,1.2501,1.7301,1.7115,1.7572,1.9219,1.8653,1.8206,2.0221,1.9512,1.9119,2.1548,2.1796,2.2205,2.4216,2.4599,2.4599,2.4599,2.4599,2.4599,2.4599,2.4599,2.4599,2.4599,2.4599,2.4599,2.4599,2.4599,2.4599,2.4599,2.4599,2.4599,2.4599,2.4552,2.4412,2.4209,2.3868,2.3574,2.3292,2.302,2.2893,2.2893,2.2893,2.0994,1.7515,1.7846,1.5958,1.2467,1.2491,1.2501,1.2501,1.2501,1.2501,1.2501,1.2501,1.2501,1.2501,1.2501,1.2501,1.2501,1.2501,1.2501,1.2501,1.2501,1.2501,1.2501,1.2501,1.2501,1.2501,1.2501,1.2501,1.2579,1.2919,1.3035,1.3112,1.3452,1.3568,1.3375,1.2652,1.2501,1.2501,1.2501,1.2501,1.2501,1.2501,1.2501,1.2501,1.2501,1.2501,1.2501,1.2501,1.2501,1.2501,1.2501,1.2501,1.2501,1.2501,1.2501,1.2501,1.2501,1.2501,1.2501,1.2501,1.2501,1.2501,1.2501,1.2501,1.2501,1.2501,1.2501,1.2501,1.2501,1.2501,1.2501,1.8776,1.9237,1.9306,1.7938,1.8653,1.9854,2.0386,2.0513,2.1125,2.3406,2.2651,2.2205,2.4216,2.4599,2.4599,2.4599,2.4599,2.4599,2.4599,2.4599,2.4599,2.4599,2.4599,2.4599,2.4599,2.4599,2.4599,2.4599,2.4599,2.4599,2.4599,2.4396,2.4242,2.4202,2.3674,2.3332,2.3292,2.302,2.2893,2.2893,2.2893,2.0994,1.7505,1.756,1.5668,1.2325,1.2447,1.2501,1.2501,1.2501,1.2501,1.2501,1.2501,1.2501,1.2501,1.2501,1.2501,1.2501,1.2501,1.2501,1.2501,1.2501,1.2501,1.2501,1.2501,1.2501,1.2501,1.2501,1.2501,1.2881,1.4667,1.5085,1.554,1.736,1.7777,1.679,1.3263,1.2501,1.2501,1.2501,1.2501,1.2501,1.2501,1.2501,1.2501,1.2501,1.2501,1.2501,1.2501,1.2501,1.2501,1.2501,1.2501,1.2501,1.2501,1.2501,1.2501,1.2501,1.2501,1.2501,1.2501,1.2501,1.2501,1.2501,1.2501,1.2501,1.2501,1.2501,1.2501,1.2501,1.2501,1.2501,2.0617,2.1059,2.1223,2.0575,2.1038,2.1741,2.1998,2.2156,2.2621,2.3921,2.3589,2.3388,2.4418,2.4599,2.4599,2.4599,2.4599,2.4599,2.4599,2.4599,2.4599,2.4599,2.4599,2.4599,2.4599,2.4599,2.4599,2.4599,2.4599,2.4599,2.4599,2.4362,2.4128,2.3968,2.3547,2.3247,2.3073,2.2967,2.2893,2.2859,2.0721,1.8883,1.7253,1.5232,1.3569,1.2294,1.2355,1.2427,1.2501,1.2501,1.2501,1.2501,1.2501,1.2501,1.2501,1.2501,1.2501,1.2501,1.2501,1.2501,1.2501,1.2501,1.2501,1.2501,1.2501,1.2501,1.2501,1.2501,1.2501,1.2691,1.3606,1.4667,1.5726,1.6637,1.7739,1.8118,1.6299,1.5922,1.5578,1.4402,1.3263,1.2501,1.2501,1.2501,1.2501,1.2501,1.2501,1.2501,1.2501,1.2501,1.2501,1.2501,1.2501,1.2958,1.4099,1.4172,1.4667,1.5845,1.4821,1.4172,1.4172,1.3109,1.2501,1.2501,1.2501,1.2501,1.2501,1.2501,1.2501,1.2501,1.2501,1.3109,2.1844,2.2198,2.2492,2.282,2.2893,2.296,2.3153,2.3232,2.3419,2.3888,2.4102,2.4269,2.4446,2.4546,2.4599,2.4599,2.4599,2.4599,2.4599,2.4599,2.4599,2.4599,2.4599,2.4599,2.4599,2.4599,2.4599,2.4599,2.4599,2.4566,2.4492,2.4249,2.3961,2.3667,2.3367,2.31,2.29,2.2893,2.2893,2.2859,2.0016,1.8404,1.7819,1.4612,1.3085,1.2883,1.2481,1.2349,1.245,1.2488,1.2501,1.2501,1.2501,1.2501,1.2501,1.2501,1.2501,1.2501,1.2501,1.2501,1.2501,1.2501,1.2501,1.2501,1.2501,1.2501,1.2501,1.2501,1.2881,1.3379,1.391,1.554,1.7165,1.7696,1.8983,1.9854,1.8837,1.861,1.8156,1.6599,1.5085,1.4061,1.4061,1.4061,1.4061,1.4061,1.4061,1.4061,1.4061,1.4061,1.4061,1.4061,1.4061,1.4667,1.6146,1.6299,1.6942,1.8497,1.7132,1.6299,1.6299,1.4859,1.4061,1.4061,1.4061,1.3795,1.3263,1.3263,1.3529,1.4061,1.4061,1.4859,2.1937,2.2198,2.2492,2.282,2.2893,2.29,2.292,2.3113,2.3299,2.3332,2.3814,2.4209,2.4222,2.4412,2.4599,2.4599,2.4599,2.4599,2.4599,2.4599,2.4599,2.4599,2.4599,2.4599,2.4599,2.4599,2.4599,2.4599,2.4599,2.4479,2.4242,2.3991,2.3654,2.3325,2.3046,2.2914,2.2893,2.2893,2.2893,2.2893,2.2688,2.1665,1.9883,1.786,1.605,1.4479,1.2944,1.2294,1.2311,1.2447,1.2501,1.2501,1.2501,1.2501,1.2501,1.2501,1.2501,1.2501,1.2501,1.2501,1.2501,1.2501,1.2501,1.2501,1.2501,1.2501,1.2501,1.2501,1.3868,1.5803,1.7777,1.9784,2.1751,2.3685,2.4216,2.3227,1.9403,1.861,1.8572,1.8459,1.834,1.8265,1.8265,1.8265,1.8265,1.8265,1.8265,1.8265,1.8265,1.8265,1.8265,1.8265,1.8265,1.8345,1.8416,1.8459,1.8497,1.861,1.8497,1.8459,1.8459,1.8345,1.8265,1.8265,1.8265,1.7322,1.5348,1.5348,1.6375,1.8265,1.8265,1.8345,2.1662,2.1957,2.2211,2.2505,2.2753,2.2893,2.2893,2.298,2.3086,2.3252,2.3647,2.3981,2.4168,2.4406,2.4599,2.4599,2.4599,2.4599,2.4599,2.4599,2.4599,2.4599,2.4599,2.4599,2.4599,2.4599,2.4599,2.4599,2.4426,2.4309,2.4209,2.3748,2.344,2.3292,2.3026,2.2893,2.2893,2.2893,2.2893,2.2893,2.1672,2.0756,1.9987,1.6826,1.507,1.4407,1.2703,1.2108,1.2294,1.2345,1.242,1.2501,1.2501,1.2501,1.2501,1.2501,1.2501,1.2501,1.2501,1.2501,1.2501,1.2501,1.2501,1.2501,1.2501,1.2501,1.2501,1.2501,1.3035,1.4022,1.607,1.8118,2.0498,2.3803,2.4599,2.4223,2.2775,2.1446,2.0542,2.0542,1.9478,1.861,1.861,1.861,1.861,1.861,1.861,1.861,1.861,1.861,1.861,1.861,1.861,1.9139,2.0423,2.0542,2.1066,2.2354,2.1259,2.0542,2.0542,1.929,1.861,1.861,1.861,1.8227,1.7474,1.7474,1.7853,1.861,1.861,1.929,2.1502,2.1796,2.2051,2.2345,2.2639,2.2893,2.2893,2.2893,2.2954,2.3126,2.3414,2.3681,2.3875,2.4229,2.4486,2.4586,2.4599,2.4599,2.4599,2.4599,2.4599,2.4599,2.4599,2.4599,2.4599,2.4512,2.4452,2.4452,2.4222,2.4015,2.3915,2.3505,2.3245,2.3173,2.3,2.2893,2.2893,2.2893,2.2893,2.2893,2.1631,2.0721,1.9987,1.6791,1.4995,1.4298,1.25,1.1868,1.2138,1.2193,1.2298,1.243,1.243,1.2461,1.2501,1.2501,1.2501,1.2501,1.2501,1.2501,1.2501,1.2501,1.2501,1.2501,1.2501,1.2958,1.3529,1.3529,1.4518,1.5841,1.7208,1.9058,2.1297,2.3951,2.4599,2.4599,2.4599,2.3537,2.262,2.262,2.1521,2.0611,2.0611,2.0611,2.0611,2.0611,2.0611,2.0611,2.0611,2.0611,2.0611,2.0611,2.0611,2.1147,2.2509,2.262,2.319,2.4525,2.3345,2.262,2.262,2.1334,2.0611,2.0611,2.0611,2.0611,2.0611,1.993,1.9935,2.0611,2.0611,2.1334,0.0,0.0,0.0,2.2338,2.2639,2.2893,2.2893,2.2893,2.2893,2.2893,2.3106,2.3292,2.3292,2.3801,2.4282,2.4526,2.4586,2.4599,2.4599,2.4599,2.4599,2.4599,2.4592,2.4586,2.4586,2.4362,2.4189,2.4189,2.3921,2.3627,2.3305,2.3285,2.3173,2.2907,2.2893,2.2893,2.2893,2.2893,2.2893,2.2893,2.2893,2.1947,2.0091,1.8094,1.6197,1.4361,1.2431,1.1661,1.18,1.2026,1.2183,1.2284,1.2284,1.2369,1.2488,1.2488,1.2488,1.2488,1.2494,1.2494,1.2494,1.2501,1.2501,1.2501,1.2579,1.3945,1.5501,1.5578,1.8454,2.1521,2.1596,2.3079,2.4599,2.4599,2.4599,2.4599,2.4599,2.4599,2.4599,2.4599,2.4599,2.4599,2.4599,2.4599,2.4599,2.4599,2.4599,2.4599,2.4599,2.4599,2.4599,2.4599,2.4599,2.4599,2.4599,2.4599,2.4599,2.4599,2.4599,2.4599,2.4599,2.4599,2.4599,2.4599,2.4599,2.4599,2.4599,2.262,2.2701,2.4599,2.4599,2.4599,2.1209,0.0,0.0,0.0,0.0,0.0,2.2893,2.2893,2.2893,2.2893,2.3106,2.3292,2.3292,2.3634,2.3915,2.3995,2.4362,2.4599,2.4599,2.4599,2.4599,2.4599,2.4412,2.4322,2.4322,2.4062,2.3924,2.3924,2.3621,2.3414,2.3292,2.3113,2.2987,2.29,2.2893,2.2893,2.2893,2.2893,2.2893,2.2893,2.2893,2.2619,2.2016,1.8723,1.6937,1.6268,1.2996,1.1607,1.1655,1.1833,1.1986,1.2162,1.2162,1.2186,1.222,1.222,1.222,1.2237,1.2311,1.2349,1.2366,1.2467,1.2501,1.2768,1.421,1.5046,1.5803,1.7322,1.8572,1.9779,2.1222,2.3079,2.4599,2.4599,2.4599,2.4599,2.4599,2.4599,2.4599,2.4599,2.4599,2.4599,2.4599,2.4599,2.4599,2.4599,2.4599,2.4599,2.4599,2.4599,2.4599,2.4599,2.4599,2.4599,2.4599,2.4599,2.4599,2.4599,2.4599,2.4599,2.4599,2.4599,2.4599,2.4599,2.4599,2.4599,2.4599,2.4031,2.4068,2.4599,2.4599,2.4599,2.1109,2.145,2.187,2.1957,0.0,0.0,2.2867,2.2893,2.2893,2.2893,2.3006,2.3133,2.3133,2.338,2.3587,2.3587,2.3975,2.4275,2.4275,2.4275,2.4275,2.4275,2.4122,2.4022,2.4022,2.3761,2.3587,2.3587,2.3307,2.3133,2.3133,2.2994,2.2893,2.2893,2.2893,2.2893,2.2893,2.2893,2.2893,2.2893,2.2893,2.2475,2.1665,1.9426,1.7529,1.591,1.3733,1.2323,1.1626,1.1671,1.183,1.1965,1.1965,1.2043,1.2098,1.2098,1.2098,1.2111,1.22,1.2234,1.2258,1.2366,1.2413,1.2804,1.4873,1.6108,1.7203,1.9252,2.0466,2.1371,2.2546,2.3722,2.4599,2.4599,2.4599,2.4599,2.4599,2.4599,2.4599,2.4599,2.4599,2.4599,2.4599,2.4599,2.4599,2.4599,2.4599,2.4599,2.4599,2.4599,2.4599,2.4599,2.4599,2.4599,2.4599,2.4599,2.4599,2.4599,2.4599,2.4599,2.4599,2.4599,2.4599,2.4599,2.4599,2.4599,2.4599,2.4599,2.4599,2.4599,2.4599,2.4599,2.1109,2.1381,2.1696,2.1957,2.2225,0.0,2.284,2.2893,2.2893,2.2893,2.2893,2.2893,2.2893,2.3086,2.328,2.328,2.35,2.373,2.3797,2.381,2.381,2.381,2.3777,2.3721,2.3721,2.3454,2.328,2.328,2.302,2.2893,2.2893,2.2893,2.2893,2.2893,2.2893,2.2893,2.2893,2.2893,2.2893,2.2893,2.2893,2.2022,2.0403,2.0196,1.8264,1.5031,1.4783,1.3662,1.19,1.19,1.1871,1.1773,1.1773,1.1891,1.205,1.205,1.205,1.2053,1.2067,1.2074,1.2098,1.2213,1.2267,1.2702,1.5075,1.7094,1.9027,2.1285,2.3227,2.4599,2.4599,2.4599,2.4599,2.4599,2.4599,2.4599,2.4599,2.4599,2.4599,2.4599,2.4599,2.4599,2.4599,2.4599,2.4599,2.4599,2.4599,2.4599,2.4599,2.4599,2.4599,2.4599,2.4599,2.4599,2.4599,2.4599,2.4599,2.4599,2.4599,2.4599,2.4599,2.4599,2.4599,2.4599,2.4599,2.4599,2.4599,2.4599,2.4599,2.4599,2.4599,2.4599,2.1109,2.1496,2.1943,0.0,2.2418,0.0,2.288,2.2893,2.2893,2.2893,2.2893,2.2893,2.2893,2.2947,2.2987,2.2987,2.3041,2.3248,2.3736,2.381,2.381,2.381,2.3561,2.3414,2.3414,2.3133,2.2987,2.2987,2.2934,2.2893,2.2893,2.2893,2.2893,2.2893,2.2893,2.2893,2.2893,2.2893,2.2893,2.2893,2.2893,2.2722,2.2297,2.079,1.9704,1.8898,1.7318,1.5597,1.3836,1.3836,1.2975,1.1624,1.1624,1.1644,1.1708,1.1708,1.1708,1.1721,1.1837,1.1874,1.1901,1.2094,1.2142,1.2833,1.6595,1.8033,1.9154,2.2936,2.4297,2.4599,2.4599,2.4599,2.4599,2.4599,2.4599,2.4599,2.4599,2.4599,2.4599,2.4599,2.4599,2.4599,2.4599,2.4599,2.4599,2.4599,2.4599,2.4599,2.4599,2.4599,2.4599,2.4599,2.4599,2.4599,2.4599,2.4599,2.4599,2.4599,2.4599,2.4599,2.4599,2.4599,2.4599,2.4599,2.4599,2.4599,2.4599,2.4599,2.4599,2.4599,2.4599,2.4599,0.0,0.0,0.0,2.2164,0.0,0.0,0.0,2.2893,2.2893,2.2893,2.2893,2.2893,2.2893,2.2893,2.2893,2.2893,2.2893,2.3,2.3308,2.3348,2.3348,2.3348,2.3187,2.3093,2.3093,2.2987,2.2893,2.2893,2.2893,2.2893,2.2893,2.2893,2.2893,2.2893,2.2893,2.2893,2.2893,2.2893,2.2893,2.2893,2.2893,2.2893,2.2859,2.1913,2.1004,2.0057,1.9072,1.7037,1.4397,1.4397,1.3274,1.1584,1.1584,1.1584,1.1584,1.1584,1.1584,1.1594,1.1665,1.1688,1.1712,1.1898,1.1945,1.2571,1.5801,1.7563,1.9095,2.2243,2.3116,2.3345,2.4334,2.4599,2.4599,2.4599,2.4599,2.4599,2.4599,2.4599,2.4599,2.4599,2.4599,2.4599,2.4599,2.4599,2.4599,2.4599,2.4599,2.4599,2.4599,2.4599,2.4599,2.4599,2.4599,2.4599,2.4599,2.4599,2.4599,2.4599,2.4599,2.4599,2.4599,2.4599,2.4599,2.4599,2.4599,2.4599,2.4599,2.4599,2.4599,2.4599,2.4599,2.4599,0.0,0.0,0.0,0.0,0.0,2.2565,0.0,0.0,0.0,2.2893,2.2893,2.2893,2.2893,2.2893,2.288,2.282,2.286,2.288,2.282,2.286,2.2893,2.2893,2.2893,2.2893,2.2893,2.2893,2.2893,2.2893,2.2893,2.2893,2.2893,2.2893,2.2893,2.2893,2.2893,2.2893,2.2893,2.2893,2.2893,2.2893,2.2893,2.2893,2.2893,2.2893,2.2057,2.0652,2.0652,1.8473,1.4924,1.4924,1.3626,1.1584,1.1584,1.1584,1.1584,1.1584,1.1584,1.1584,1.1584,1.1584,1.1604,1.1715,1.2058,1.2751,1.4662,1.7095,1.9495,2.113,2.1596,2.2055,2.4068,2.4297,2.4105,2.4519,2.4599,2.4599,2.4599,2.4599,2.4599,2.4599,2.4599,2.4599,2.4599,2.4599,2.4599,2.4599,2.4599,2.4599,2.4599,2.4599,2.4599,2.4599,2.4599,2.4599,2.4599,2.4599,2.4599,2.4599,2.4599,2.4599,2.4599,2.4599,2.4599,2.4599,2.4599,2.4599,2.4599,2.4599,2.4599,2.4599,2.4599,2.4599,0.0,0.0,0.0,0.0,2.2619,0.0,0.0,0.0,2.2893,2.2893,0.0,2.2893,2.2893,0.0,0.0,2.2512,2.2726,2.2806,2.2505,2.2692,2.2893,2.2893,2.2893,2.2893,2.2893,2.2893,2.2893,2.2893,2.2893,2.2893,2.2893,2.2893,2.2893,2.2893,2.2893,2.2893,2.2893,2.2893,2.2893,2.2893,2.2893,2.2893,2.2893,2.2893,2.2791,2.2578,2.2578,2.0403,1.6866,1.6866,1.4791,1.1584,1.1584,1.1584,1.1584,1.1584,1.1584,1.1584,1.1584,1.1584,1.1587,1.1604,1.2944,1.4604,1.4993,1.7918,2.1149,2.1494,2.1596,2.2055,2.4068,2.3264,2.2397,2.4179,2.4599,2.4599,2.4599,2.4599,2.4599,2.4599,2.4599,2.4599,2.4599,2.4599,2.4599,2.4599,2.4599,2.4599,2.4599,2.4599,2.4599,2.4599,2.4599,2.4599,2.4599,2.4599,2.4599,2.4599,2.4599,2.4599,2.4599,2.4599,2.4599,2.4599,2.4599,2.4599,2.4599,2.4599,2.4599,2.4599,2.4599,2.4599,0.0,0.0,0.0,0.0,0.0,0.0,2.2893,0.0,2.2605,0.0,0.0,0.0,0.0,0.0,0.0,0.0,2.2672,2.2853,2.2726,2.282,2.2893,2.2893,2.2893,2.2893,2.2893,2.2893,2.2893,2.2893,2.2893,2.2893,2.2893,2.2893,2.2893,2.2893,2.2893,2.2893,2.2893,2.2893,2.2893,2.2893,2.2893,2.2893,2.2893,2.2893,2.2893,2.2893,2.2893,2.1383,1.8793,1.7674,1.5632,1.3135,1.2043,1.1584,1.1584,1.1584,1.1584,1.1584,1.1584,1.1584,1.1584,1.1584,1.2287,1.3104,1.3176,1.4559,1.6361,1.7602,1.8015,1.8794,2.2012,2.2242,2.213,2.4105,2.4599,2.4599,2.4599,2.4599,2.4599,2.4599,2.4599,2.4599,2.4599,2.4599,2.4599,2.4599,2.4599,2.4599,2.4599,2.4599,2.4599,2.4599,2.4599,2.4599,2.4599,2.4599,2.4599,2.4599,2.4599,2.4599,2.4599,2.4599,2.4599,2.4599,2.4599,2.4599,2.4599,2.4599,2.4599,2.4599,2.4599,2.4599,2.2893,0.0,0.0,0.0,0.0,0.0,0.0,0.0,0.0,0.0,0.0,0.0,0.0,0.0,2.2271,2.2191,0.0,2.2653,2.2653,2.2726,2.2806,2.2887,2.2893,2.2893,2.2893,2.2893,2.2893,2.2893,2.2893,2.2893,2.2893,2.2893,2.2893,2.2893,2.2893,2.2893,2.2893,2.2893,2.2893,2.2893,2.2893,2.2893,2.2893,2.2893,2.2893,2.2893,2.2893,2.1527,1.9217,1.7779,1.5774,1.3484,1.2112,1.1584,1.1584,1.1584,1.1584,1.1584,1.1584,1.1584,1.1584,1.1584,1.1655,1.1742,1.1783,1.2353,1.333,1.4856,1.5765,1.7095,2.0669,2.1596,2.213,2.4105,2.4599,2.4599,2.4599,2.4599,2.4599,2.4599,2.4599,2.4599,2.4599,2.4599,2.4599,2.4599,2.4599,2.4599,2.4599,2.4599,2.4599,2.4599,2.4599,2.4599,2.4599,2.4599,2.4599,2.4599,2.4599,2.4599,2.4599,2.4599,2.4599,2.4599,2.4599,2.4599,2.4599,2.4599,2.4599,2.4599,2.4599,2.4599,0.0,0.0,0.0,2.2893,0.0,0.0,0.0,0.0,2.28,0.0,0.0,0.0,0.0,0.0,0.0,0.0,2.1856,0.0,0.0,2.2258,2.2539,2.286,2.2893,2.2893,2.2893,2.2893,2.2893,2.2893,2.2893,2.2893,2.2893,2.2893,2.2893,2.2893,2.2893,2.2893,2.2893,2.2893,2.2893,2.2893,2.2893,2.2893,2.2893,2.2893,2.2893,2.2893,2.2893,2.0756,1.7288,1.7218,1.5004,1.1691,1.1619,1.1584,1.1584,1.1584,1.1584,1.1584,1.1584,1.1584,1.1584,1.1584,1.1587,1.1614,1.1753,1.3206,1.4873,1.5192,1.6712,1.8736,2.1003,2.1596,2.213,2.4105,2.4599,2.4599,2.4599,2.4599,2.4599,2.4599,2.4599,2.4599,2.4599,2.4599,2.4599,2.4599,2.4599,2.4599,2.4599,2.4599,2.4599,2.4599,2.4599,2.4599,2.4599,2.4599,2.4599,2.4599,2.4599,2.4599,2.4599,2.4599,2.4599,2.4599,2.4599,2.4599,2.4599,2.4599,2.4599,2.4599,2.4599,2.4599,0.0,0.0,2.2893,2.2893,0.0,0.0,0.0,0.0,0.0,0.0,0.0,0.0,0.0,0.0,0.0,0.0,0.0,2.1984,0.0,2.2231,2.2452,2.2559,2.2746,2.2893,2.2893,2.2893,2.2893,2.2893,2.2893,2.2893,2.2893,2.2893,2.2893,2.2893,2.2893,2.2893,2.2893,2.2893,2.2893,2.2893,2.2893,2.2893,2.2893,2.2893,2.2893,2.2893,2.2893,2.1459,1.9008,1.7744,1.5703,1.3345,1.2076,1.1584,1.176,1.2992,1.2678,1.1796,1.3028,1.3448,1.3448,1.3448,1.3448,1.3214,1.2031,1.3119,1.4527,1.3335,1.5474,1.836,1.9181,2.0488,2.213,2.4105,2.4599,2.4599,2.4599,2.4599,2.4599,2.4599,2.4599,2.4599,2.4599,2.4599,2.4599,2.4599,2.4599,2.4599,2.4599,2.4599,2.4599,2.4599,2.4599,2.4599,2.4599,2.4599,2.4599,2.4599,2.4599,2.4599,2.4599,2.4599,2.4599,2.4599,2.4599,2.4599,2.4599,2.4599,2.4599,2.4599,2.4599,2.4599,2.2893,2.2893,0.0,2.2893,2.2893,0.0,2.2893,0.0,2.2545,0.0,0.0,0.0,0.0,0.0,0.0,0.0,0.0,0.0,0.0,2.2231,2.2425,2.2565,2.278,2.2893,2.2893,2.2893,2.2893,2.2893,2.2893,2.2893,2.2893,2.2893,2.2893,2.2893,2.2893,2.2893,2.2893,2.2893,2.2893,2.2893,2.2893,2.2893,2.2893,2.2893,2.2893,2.2893,2.2893,2.1844,1.9953,1.7989,1.6091,1.4219,1.2323,1.1584,1.176,1.2956,1.2642,1.1864,1.3765,1.4397,1.4499,1.5172,1.5385,1.5172,1.3947,1.4525,1.5345,1.4151,1.6383,1.9132,1.9286,2.0988,2.3005,2.429,2.4599,2.4599,2.4599,2.4599,2.4599,2.4599,2.4599,2.4599,2.4599,2.4599,2.4599,2.4599,2.4599,2.4599,2.4599,2.4599,2.4599,2.4599,2.4599,2.4599,2.4599,2.4599,2.4599,2.4599,2.4599,2.4599,2.4599,2.4599,2.4599,2.4599,2.4599,2.4599,2.4599,2.4599,2.4599,2.4599,2.4599,2.4599]},{"header":{"parameterUnit":"m.s-1","parameterCategory":1,"la1":30.6,"la2":29.2853,"lo1":-89.7004,"lo2":-87.6739,"dy":0.0162,"dx":0.0183,"nx":112,"ny":82,"refTime":"2023-09-24T06:00:00:Z","depth":0,"parameterNumber":3,"parameterNumberName":"V-component_of_WINDS"},"data":[0.0,0.0,0.0,0.0,0.0,0.0,0.0,0.0,0.0,0.0,0.0,0.0,0.0,0.0,0.0,0.0,0.0,0.0,0.0,0.0,0.0,0.0,0.0,0.0,0.0,0.0,0.0,0.0,0.0,0.0,0.0,0.0,0.0,0.0,0.0,0.0,0.0,0.0,0.0,0.0,0.0,0.0,0.0,0.0,0.0,0.0,0.0,0.0,0.0,0.0,0.0,0.0,0.0,0.0,0.0,0.0,0.0,0.0,0.0,0.0,0.0,0.0,0.0,0.0,0.0,0.0,0.0,0.0,0.0,0.0,0.0,0.0,0.0,0.0,0.0,0.0,0.0,0.0,0.0,0.0,0.0,0.0,0.0,0.0,0.0,0.0,0.0,0.0,0.0,0.0,4.7081,4.7081,4.6432,4.5994,4.5994,4.5879,4.5802,4.5802,0.0,0.0,0.0,0.0,0.0,0.0,0.0,0.0,0.0,0.0,0.0,0.0,0.0,0.0,0.0,0.0,0.0,0.0,0.0,0.0,0.0,0.0,0.0,0.0,0.0,0.0,0.0,0.0,0.0,0.0,0.0,0.0,0.0,0.0,0.0,0.0,0.0,0.0,0.0,0.0,0.0,0.0,0.0,0.0,0.0,0.0,0.0,0.0,0.0,0.0,0.0,0.0,0.0,0.0,0.0,0.0,0.0,0.0,0.0,0.0,0.0,0.0,0.0,0.0,0.0,0.0,0.0,0.0,0.0,0.0,0.0,0.0,0.0,0.0,0.0,0.0,0.0,0.0,0.0,0.0,0.0,0.0,0.0,0.0,0.0,0.0,0.0,0.0,0.0,0.0,0.0,0.0,0.0,0.0,0.0,0.0,0.0,0.0,0.0,0.0,0.0,0.0,0.0,0.0,4.7928,4.7928,4.7793,4.7721,4.7721,4.7101,4.6697,4.6697,0.0,0.0,0.0,0.0,0.0,0.0,0.0,0.0,0.0,0.0,0.0,0.0,0.0,0.0,0.0,0.0,0.0,0.0,0.0,0.0,0.0,0.0,0.0,0.0,0.0,0.0,0.0,0.0,0.0,0.0,0.0,0.0,0.0,0.0,0.0,0.0,0.0,0.0,0.0,0.0,0.0,0.0,0.0,0.0,0.0,0.0,0.0,0.0,0.0,0.0,0.0,0.0,0.0,0.0,0.0,0.0,0.0,0.0,0.0,0.0,0.0,0.0,0.0,0.0,0.0,0.0,0.0,0.0,0.0,0.0,0.0,0.0,0.0,0.0,0.0,0.0,0.0,0.0,0.0,0.0,0.0,0.0,0.0,0.0,0.0,0.0,0.0,0.0,0.0,0.0,0.0,0.0,0.0,0.0,0.0,0.0,0.0,0.0,0.0,0.0,0.0,0.0,0.0,4.8586,4.8625,4.8139,4.8101,4.8101,4.8101,4.7755,4.7351,4.6928,4.6528,0.0,0.0,0.0,0.0,0.0,0.0,0.0,0.0,0.0,0.0,0.0,0.0,0.0,0.0,0.0,0.0,0.0,0.0,0.0,0.0,0.0,0.0,0.0,0.0,0.0,0.0,0.0,0.0,0.0,0.0,0.0,0.0,0.0,0.0,0.0,0.0,0.0,0.0,0.0,0.0,0.0,0.0,0.0,0.0,0.0,0.0,0.0,0.0,0.0,0.0,0.0,0.0,0.0,0.0,0.0,0.0,0.0,0.0,0.0,0.0,0.0,0.0,0.0,0.0,0.0,0.0,0.0,0.0,0.0,0.0,0.0,0.0,0.0,0.0,0.0,0.0,0.0,0.0,0.0,0.0,0.0,0.0,0.0,0.0,0.0,0.0,0.0,0.0,0.0,0.0,0.0,0.0,0.0,0.0,0.0,0.0,0.0,0.0,0.0,0.0,0.0,0.0,4.9707,4.9452,4.8779,4.8702,4.8702,4.8702,4.8529,4.8139,4.7524,4.712,0.0,0.0,0.0,0.0,0.0,0.0,0.0,0.0,0.0,0.0,0.0,0.0,0.0,0.0,0.0,0.0,0.0,0.0,0.0,0.0,0.0,0.0,0.0,0.0,0.0,0.0,0.0,0.0,0.0,0.0,0.0,0.0,0.0,0.0,0.0,0.0,0.0,0.0,0.0,0.0,0.0,0.0,0.0,0.0,0.0,0.0,0.0,0.0,0.0,0.0,0.0,0.0,0.0,0.0,0.0,0.0,0.0,0.0,0.0,0.0,0.0,0.0,0.0,0.0,0.0,0.0,0.0,0.0,0.0,0.0,0.0,0.0,0.0,0.0,0.0,0.0,0.0,0.0,0.0,0.0,0.0,0.0,0.0,0.0,0.0,0.0,0.0,0.0,0.0,0.0,0.0,0.0,0.0,0.0,0.0,0.0,0.0,0.0,0.0,0.0,0.0,0.0,5.0611,5.0592,5.0515,5.0515,5.0515,5.0515,4.9764,4.9279,4.9221,4.7755,0.0,0.0,0.0,0.0,0.0,0.0,0.0,0.0,0.0,0.0,0.0,0.0,0.0,0.0,0.0,0.0,0.0,0.0,0.0,0.0,0.0,0.0,0.0,0.0,0.0,0.0,0.0,0.0,0.0,0.0,0.0,0.0,0.0,0.0,0.0,0.0,0.0,0.0,0.0,0.0,0.0,0.0,0.0,0.0,0.0,0.0,0.0,0.0,0.0,0.0,0.0,0.0,0.0,0.0,0.0,0.0,0.0,0.0,0.0,0.0,0.0,0.0,0.0,0.0,0.0,0.0,0.0,0.0,0.0,0.0,0.0,0.0,0.0,0.0,0.0,0.0,0.0,0.0,0.0,0.0,0.0,0.0,0.0,0.0,0.0,0.0,0.0,0.0,0.0,0.0,0.0,0.0,0.0,0.0,0.0,0.0,0.0,0.0,0.0,0.0,0.0,0.0,5.0707,5.0707,5.0707,5.0707,5.0707,5.0707,5.0399,4.9976,4.9433,0.0,0.0,0.0,0.0,0.0,0.0,0.0,0.0,0.0,0.0,0.0,0.0,0.0,0.0,0.0,0.0,0.0,0.0,0.0,0.0,0.0,0.0,0.0,0.0,0.0,0.0,0.0,0.0,0.0,0.0,0.0,0.0,0.0,0.0,0.0,0.0,0.0,0.0,0.0,0.0,0.0,0.0,0.0,0.0,0.0,0.0,0.0,0.0,0.0,0.0,0.0,0.0,0.0,0.0,0.0,0.0,0.0,0.0,0.0,0.0,0.0,0.0,0.0,0.0,0.0,0.0,0.0,0.0,0.0,0.0,0.0,0.0,0.0,0.0,0.0,0.0,0.0,0.0,0.0,0.0,0.0,0.0,0.0,0.0,0.0,0.0,0.0,0.0,0.0,0.0,0.0,0.0,0.0,0.0,0.0,0.0,0.0,0.0,0.0,0.0,0.0,0.0,5.0707,5.0707,5.0707,5.0707,5.0707,5.0707,5.0707,5.0707,5.0457,4.9861,0.0,0.0,0.0,0.0,0.0,0.0,0.0,0.0,0.0,0.0,0.0,0.0,0.0,0.0,0.0,0.0,0.0,0.0,0.0,0.0,0.0,0.0,0.0,0.0,0.0,0.0,0.0,0.0,0.0,0.0,0.0,0.0,0.0,0.0,0.0,0.0,0.0,0.0,0.0,0.0,0.0,0.0,0.0,0.0,0.0,0.0,0.0,0.0,0.0,0.0,0.0,0.0,0.0,0.0,0.0,0.0,0.0,0.0,0.0,0.0,0.0,0.0,0.0,0.0,0.0,0.0,0.0,0.0,0.0,0.0,0.0,0.0,0.0,0.0,0.0,0.0,0.0,0.0,0.0,0.0,0.0,0.0,0.0,0.0,0.0,0.0,0.0,0.0,0.0,0.0,0.0,0.0,0.0,0.0,0.0,0.0,0.0,0.0,0.0,0.0,0.0,0.0,5.0707,5.0707,5.0707,5.0707,5.0707,5.0707,5.0707,5.0707,5.0707,0.0,0.0,0.0,0.0,0.0,0.0,0.0,0.0,0.0,0.0,0.0,0.0,0.0,0.0,0.0,0.0,0.0,0.0,0.0,0.0,0.0,0.0,0.0,0.0,0.0,0.0,0.0,0.0,0.0,0.0,0.0,0.0,0.0,0.0,0.0,0.0,0.0,0.0,0.0,0.0,0.0,0.0,0.0,0.0,0.0,0.0,0.0,0.0,0.0,0.0,0.0,0.0,0.0,0.0,0.0,0.0,0.0,0.0,0.0,0.0,0.0,0.0,0.0,0.0,0.0,0.0,0.0,0.0,0.0,0.0,0.0,0.0,0.0,0.0,0.0,0.0,0.0,0.0,0.0,0.0,0.0,0.0,0.0,0.0,0.0,0.0,0.0,0.0,0.0,0.0,0.0,0.0,0.0,0.0,0.0,0.0,0.0,0.0,0.0,0.0,0.0,0.0,0.0,5.0707,5.0707,5.0707,5.0707,5.0707,5.0707,5.0707,5.0707,5.0707,5.0707,0.0,0.0,0.0,0.0,0.0,0.0,0.0,0.0,0.0,0.0,0.0,0.0,0.0,0.0,0.0,0.0,0.0,0.0,0.0,0.0,0.0,0.0,0.0,0.0,0.0,0.0,0.0,0.0,0.0,0.0,0.0,0.0,0.0,0.0,0.0,0.0,0.0,0.0,0.0,0.0,0.0,0.0,0.0,0.0,0.0,0.0,0.0,0.0,0.0,0.0,0.0,0.0,0.0,0.0,0.0,0.0,0.0,0.0,0.0,0.0,0.0,0.0,0.0,0.0,0.0,0.0,0.0,0.0,0.0,0.0,0.0,0.0,0.0,0.0,0.0,0.0,0.0,0.0,0.0,0.0,0.0,0.0,0.0,0.0,0.0,0.0,0.0,0.0,0.0,0.0,0.0,0.0,0.0,0.0,0.0,0.0,0.0,0.0,0.0,0.0,0.0,0.0,5.0707,5.0707,5.0707,5.0707,5.0707,5.0707,5.0707,5.0707,5.0707,5.0707,0.0,0.0,0.0,0.0,0.0,0.0,0.0,0.0,0.0,0.0,0.0,0.0,0.0,0.0,0.0,0.0,0.0,0.0,0.0,0.0,0.0,0.0,0.0,0.0,0.0,0.0,0.0,0.0,0.0,0.0,0.0,0.0,0.0,0.0,0.0,0.0,0.0,0.0,0.0,0.0,0.0,0.0,0.0,0.0,0.0,0.0,0.0,0.0,0.0,0.0,0.0,0.0,0.0,0.0,0.0,0.0,0.0,0.0,0.0,0.0,0.0,0.0,0.0,0.0,0.0,0.0,0.0,0.0,0.0,0.0,0.0,0.0,0.0,0.0,0.0,0.0,0.0,0.0,0.0,0.0,0.0,0.0,0.0,0.0,0.0,0.0,0.0,0.0,0.0,0.0,0.0,0.0,0.0,0.0,0.0,0.0,0.0,0.0,0.0,0.0,0.0,0.0,5.0707,5.0707,5.0707,5.0707,5.0707,5.0707,5.0707,5.0707,5.0707,5.0707,0.0,0.0,0.0,0.0,0.0,0.0,0.0,0.0,0.0,0.0,0.0,0.0,0.0,0.0,0.0,0.0,0.0,0.0,0.0,0.0,0.0,0.0,0.0,0.0,0.0,0.0,0.0,0.0,0.0,0.0,0.0,0.0,0.0,0.0,0.0,0.0,0.0,0.0,0.0,0.0,0.0,0.0,0.0,0.0,0.0,0.0,0.0,0.0,0.0,0.0,0.0,0.0,0.0,0.0,0.0,0.0,0.0,0.0,0.0,0.0,5.6601,5.6601,0.0,0.0,0.0,0.0,0.0,0.0,0.0,0.0,0.0,0.0,0.0,0.0,0.0,0.0,0.0,0.0,0.0,0.0,0.0,0.0,0.0,0.0,0.0,0.0,0.0,0.0,0.0,0.0,0.0,0.0,0.0,0.0,0.0,0.0,0.0,0.0,0.0,0.0,0.0,0.0,5.0707,5.0707,5.0707,5.0707,5.0707,5.0707,5.0707,5.0707,5.0707,5.0707,5.0707,0.0,0.0,0.0,0.0,0.0,0.0,0.0,0.0,0.0,0.0,0.0,0.0,0.0,0.0,0.0,0.0,0.0,0.0,0.0,0.0,0.0,0.0,0.0,0.0,0.0,0.0,0.0,0.0,0.0,0.0,0.0,0.0,0.0,0.0,0.0,0.0,0.0,0.0,0.0,0.0,0.0,0.0,0.0,0.0,0.0,0.0,0.0,0.0,0.0,0.0,0.0,0.0,0.0,0.0,0.0,0.0,0.0,0.0,0.0,5.6601,5.6601,0.0,0.0,0.0,0.0,0.0,0.0,0.0,0.0,0.0,0.0,0.0,0.0,0.0,0.0,0.0,0.0,0.0,0.0,0.0,0.0,0.0,0.0,0.0,0.0,0.0,0.0,0.0,0.0,0.0,0.0,0.0,0.0,0.0,0.0,0.0,0.0,0.0,0.0,0.0,0.0,5.1895,5.1895,5.1895,5.1895,5.1895,5.1895,5.1895,5.151,5.1279,5.1279,5.0919,0.0,0.0,0.0,0.0,0.0,0.0,0.0,0.0,0.0,0.0,0.0,0.0,0.0,0.0,0.0,0.0,0.0,0.0,0.0,0.0,0.0,0.0,0.0,0.0,0.0,0.0,0.0,0.0,0.0,0.0,0.0,0.0,0.0,0.0,0.0,0.0,0.0,0.0,0.0,0.0,0.0,0.0,0.0,0.0,0.0,0.0,0.0,0.0,0.0,0.0,0.0,0.0,0.0,5.7051,5.7051,5.7051,5.7051,5.7051,5.7051,5.7051,5.6875,5.6601,5.6601,0.0,0.0,0.0,0.0,0.0,0.0,0.0,0.0,0.0,0.0,0.0,0.0,0.0,0.0,0.0,0.0,0.0,0.0,0.0,0.0,0.0,0.0,0.0,0.0,5.5708,5.5516,5.4857,0.0,0.0,0.0,0.0,0.0,0.0,0.0,0.0,0.0,0.0,0.0,5.3197,5.3197,5.3197,5.3197,5.3197,5.3197,5.3197,5.2544,5.214,5.214,5.1491,5.113,0.0,0.0,0.0,0.0,0.0,0.0,0.0,0.0,0.0,0.0,0.0,0.0,0.0,0.0,0.0,0.0,0.0,0.0,0.0,0.0,0.0,0.0,0.0,0.0,0.0,0.0,0.0,0.0,0.0,0.0,0.0,0.0,5.4277,5.5039,0.0,0.0,0.0,0.0,0.0,0.0,0.0,0.0,0.0,0.0,0.0,0.0,0.0,5.7734,5.7734,5.8476,5.8867,5.8867,5.8867,5.8867,5.8867,5.8867,5.8867,5.8867,5.8867,0.0,5.6601,5.6601,0.0,0.0,0.0,0.0,0.0,0.0,0.0,0.0,0.0,0.0,0.0,0.0,0.0,0.0,0.0,0.0,0.0,0.0,0.0,0.0,0.0,0.0,5.5708,5.5708,5.5708,5.567,0.0,5.5535,5.5304,5.4491,5.4337,0.0,0.0,0.0,0.0,0.0,0.0,0.0,5.3197,5.3197,5.3197,5.3197,5.3197,5.3197,5.3197,5.3082,5.3024,5.3024,5.2928,5.2876,5.2876,5.2876,0.0,0.0,0.0,0.0,0.0,0.0,0.0,0.0,0.0,0.0,0.0,0.0,0.0,0.0,0.0,0.0,0.0,0.0,0.0,0.0,0.0,0.0,0.0,0.0,0.0,0.0,0.0,0.0,0.0,5.5469,5.5605,5.5996,5.6035,5.6172,0.0,0.0,0.0,0.0,0.0,0.0,0.0,0.0,0.0,5.8047,5.8437,5.8633,5.8633,5.9004,5.9199,5.9199,5.9199,5.9199,5.9199,5.9199,5.9199,5.9199,5.9199,5.8769,5.8066,5.8066,5.8066,5.8066,0.0,0.0,0.0,0.0,5.7324,5.7265,5.6777,5.6601,5.6601,5.6601,0.0,0.0,0.0,0.0,0.0,0.0,0.0,0.0,0.0,0.0,5.5708,5.5708,5.5708,5.5708,5.5708,5.5708,5.5593,0.0,5.517,5.5049,5.4664,0.0,0.0,0.0,0.0,5.4607,5.4607,5.4607,5.4607,5.4607,5.4607,5.4607,5.4607,5.4184,5.3933,5.3933,5.3472,5.3197,5.3197,5.3197,5.3024,0.0,0.0,0.0,0.0,0.0,0.0,0.0,0.0,0.0,0.0,0.0,0.0,0.0,0.0,0.0,0.0,0.0,0.0,0.0,0.0,0.0,0.0,0.0,0.0,0.0,0.0,0.0,0.0,5.6601,5.668,5.6914,5.6738,5.6777,0.0,0.0,0.0,0.0,0.0,0.0,5.8203,5.8223,5.8535,5.918,5.9394,5.9512,5.9512,5.9726,5.9844,5.9844,5.9844,5.9844,5.9844,5.9844,5.9844,5.9844,5.9844,5.9844,5.9805,5.9375,5.9199,5.9199,5.9199,5.9199,5.9121,5.8476,5.8223,5.8144,5.748,5.7265,5.7265,5.7204,5.6914,5.6578,5.639,0.0,0.0,0.0,0.0,5.5708,5.5708,5.5708,5.5708,5.5708,5.5708,5.5708,5.5708,5.5708,5.5708,0.0,5.5708,5.5708,5.5708,0.0,0.0,0.0,5.5708,5.5708,5.5708,5.5708,5.5708,5.5708,5.5708,5.5708,5.5708,5.5145,5.4799,5.4799,5.4203,5.3837,5.3837,5.3837,5.3741,5.3549,0.0,0.0,0.0,0.0,0.0,0.0,0.0,0.0,0.0,0.0,0.0,0.0,0.0,0.0,0.0,0.0,0.0,0.0,0.0,0.0,0.0,0.0,0.0,0.0,0.0,0.0,0.0,0.0,0.0,5.7734,5.7109,0.0,0.0,0.0,0.0,5.9004,5.9062,5.9082,5.9121,5.9121,5.914,5.9199,5.9941,6.0332,6.0332,6.1152,6.1562,6.1562,6.1562,6.1562,6.1562,6.1562,6.1562,6.1562,6.1562,6.1562,6.1445,5.9863,5.9199,5.9199,5.9199,5.9199,5.9199,5.914,5.9121,5.9121,5.9082,5.9062,5.9042,5.8853,5.805,5.7048,5.6391,5.5982,0.0,0.0,5.5803,5.5708,5.5708,5.5708,5.5708,5.5708,5.5708,5.5708,5.5708,5.5708,5.5708,0.0,5.5708,5.5708,5.5708,0.0,5.5708,5.5708,5.5708,5.5708,5.5708,5.5708,5.5708,5.5708,5.5708,5.5708,5.5708,5.567,5.5651,5.5651,5.5593,5.5574,5.5574,5.5574,5.5203,5.4453,5.4434,0.0,0.0,0.0,0.0,0.0,0.0,0.0,0.0,0.0,0.0,0.0,0.0,0.0,0.0,0.0,0.0,0.0,0.0,0.0,0.0,0.0,0.0,0.0,0.0,0.0,0.0,0.0,0.0,5.8633,5.8457,0.0,5.914,5.8926,5.8867,5.918,5.9199,5.9433,5.9941,5.9961,6.0234,6.0781,6.1094,6.123,6.123,6.1543,6.1699,6.1699,6.1699,6.1699,6.1699,6.1699,6.1699,6.1699,6.1699,6.1656,6.1518,6.0932,6.0733,6.0801,6.0709,6.0679,6.0596,5.9942,5.9703,5.9625,5.9077,5.8882,5.8845,5.8695,5.8377,5.7974,5.7657,5.7471,5.7379,5.7436,5.7414,5.7376,5.7376,5.7376,5.7376,5.7376,5.7376,5.7223,5.6651,5.6536,5.6362,5.5805,5.5708,5.5708,5.5708,5.5708,5.5708,5.5708,5.5708,5.5708,5.5708,5.5708,5.5708,5.5708,5.5708,5.5708,5.5708,5.5708,5.5708,5.5708,5.5708,5.5708,5.5708,5.5708,5.5574,5.5285,5.5266,5.5126,0.0,0.0,0.0,0.0,0.0,0.0,0.0,0.0,0.0,0.0,0.0,0.0,0.0,0.0,0.0,0.0,0.0,0.0,0.0,0.0,0.0,0.0,0.0,0.0,0.0,5.834,5.8652,5.9492,5.9375,5.9414,5.998,5.9785,5.9726,6.0019,6.0039,6.0273,6.0801,6.084,6.1094,6.168,6.1699,6.1699,6.1699,6.1699,6.1699,6.1699,6.1699,6.1699,6.1699,6.1699,6.1699,6.1699,6.1699,6.1656,6.1576,6.1576,6.1584,6.1612,6.1474,6.1436,6.135,6.0678,6.0444,6.0363,5.9777,5.9523,5.9417,5.9059,5.8883,5.8761,5.8413,5.8294,5.8294,5.8294,5.8294,5.8294,5.8294,5.8294,5.8294,5.8294,5.8294,5.8146,5.7555,5.744,5.7267,5.6684,5.6088,5.5708,5.5708,5.5708,5.5708,5.5708,5.5708,5.5708,5.5708,5.5708,5.5708,5.5708,5.5708,5.5708,5.5708,5.5708,5.5708,5.5708,5.5708,5.5708,5.5708,5.5708,5.5708,5.5708,5.5708,5.5708,5.5708,0.0,0.0,0.0,0.0,0.0,0.0,0.0,0.0,0.0,0.0,0.0,0.0,0.0,0.0,0.0,0.0,0.0,0.0,0.0,0.0,0.0,0.0,0.0,5.9238,5.9238,5.9531,6.0332,5.9746,5.9922,6.1543,6.0937,6.0781,6.164,6.1699,6.1699,6.1699,6.1699,6.1699,6.1699,6.1699,6.1699,6.1699,6.1699,6.1699,6.1699,6.1699,6.1699,6.1699,6.1699,6.1699,6.1699,6.1699,6.1699,6.1699,6.1679,6.1607,6.1464,6.1358,6.1303,6.1297,6.1294,6.1271,6.1271,6.1271,6.1161,6.0876,6.0083,5.9703,5.9396,5.8607,5.8377,5.8377,5.8377,5.8377,5.8377,5.8377,5.8377,5.8377,5.8377,5.8377,5.8371,5.8333,5.8333,5.8333,5.8294,5.6934,5.5785,5.5785,5.5785,5.5785,5.5785,5.5785,0.0,5.5785,5.5785,5.5785,5.5785,5.5785,5.5785,5.5785,5.5785,5.5785,5.5785,5.5785,5.5785,5.5785,5.5785,5.5785,5.5785,5.5785,5.5785,5.5785,0.0,0.0,0.0,0.0,0.0,0.0,0.0,0.0,0.0,0.0,0.0,0.0,0.0,0.0,0.0,0.0,0.0,0.0,0.0,0.0,0.0,6.0605,6.0781,6.0156,6.0078,6.039,6.123,6.1152,6.1191,6.166,6.1484,6.1445,6.168,6.1699,6.1699,6.1699,6.1699,6.1699,6.1699,6.1699,6.1699,6.1699,6.1699,6.1699,6.1699,6.1699,6.1699,6.1699,6.1699,6.1699,6.1699,6.1606,6.1502,6.1392,6.1256,6.112,6.1,6.123,6.1214,6.1073,6.0974,6.0943,6.0943,6.0943,6.0897,6.0814,6.0602,6.049,6.0396,6.0185,6.0108,6.0108,6.0108,6.0108,6.0108,6.0108,6.0108,6.0108,6.0108,6.0108,5.9935,5.9319,5.916,5.9006,5.8409,5.7909,5.7588,5.7588,5.7588,5.7588,5.7588,5.7588,0.0,5.7588,5.7588,5.7588,5.7588,5.7588,5.7588,5.7588,5.7588,5.7588,5.7588,5.7588,5.7588,5.7588,5.7588,5.7588,5.7588,5.7588,5.7588,0.0,0.0,0.0,0.0,0.0,0.0,0.0,0.0,0.0,0.0,0.0,0.0,0.0,0.0,0.0,0.0,0.0,0.0,0.0,0.0,0.0,0.0,6.1367,6.1523,6.1015,6.0937,6.1133,6.164,6.1699,6.1699,6.1699,6.1699,6.1699,6.1699,6.1699,6.1699,6.1699,6.1699,6.1699,6.1699,6.1699,6.1699,6.1699,6.1699,6.1699,6.1699,6.1699,6.1678,6.161,6.161,6.1582,6.1538,6.1449,6.1364,6.13,6.116,6.1025,0.0,0.0,0.0,0.0,0.0,6.0806,6.0806,6.0806,6.0806,6.0806,6.0806,6.0806,6.0806,6.0806,6.0806,6.0806,6.0806,6.0806,6.0806,6.0806,6.0806,6.0806,6.0806,6.0806,6.0666,6.0146,6.0031,5.9915,5.9435,5.9358,0.0,5.9358,5.8761,5.8294,5.8294,5.8294,5.8294,5.8294,5.8294,5.8294,5.8294,5.8294,5.8294,5.8294,5.8294,0.0,0.0,0.0,5.8294,5.8294,5.8294,0.0,0.0,0.0,5.8294,5.8294,0.0,0.0,0.0,5.7992,5.803,0.0,0.0,0.0,0.0,0.0,0.0,0.0,0.0,0.0,0.0,0.0,0.0,0.0,0.0,0.0,0.0,6.1699,6.1699,6.1699,6.1699,6.1699,6.1699,6.1699,6.1699,6.1699,6.1699,6.1699,6.1699,6.1699,6.1699,6.1699,6.1699,0.0,0.0,0.0,6.1699,6.1679,6.1679,6.1678,6.1657,6.1657,6.1584,6.1488,6.1488,6.14,6.1306,6.1288,6.1278,6.1278,6.1259,6.1135,6.0977,6.085,6.0806,6.0806,6.0806,6.0806,6.0806,6.0806,0.0,0.0,6.0806,6.0806,6.0806,6.0806,6.0806,6.0806,6.0806,6.0806,6.0806,6.0806,6.0806,6.0806,6.0806,6.0806,6.0806,6.0806,6.0806,6.0806,6.0806,6.0806,6.0806,6.0806,5.9569,5.8583,5.8583,5.8583,5.8583,5.8583,5.8583,5.8583,5.8583,0.0,0.0,5.8583,5.8583,5.8583,5.8583,5.8583,5.8583,5.8583,5.8583,5.8583,5.8583,5.8583,5.8583,5.8583,5.93,5.9646,5.9627,5.8915,5.8583,0.0,0.0,0.0,0.0,0.0,0.0,0.0,0.0,0.0,0.0,0.0,0.0,0.0,0.0,0.0,6.1699,6.1699,6.1699,6.1699,6.1699,6.1699,6.1699,6.1699,6.1699,6.1699,6.1699,6.1699,6.1699,6.1699,6.1699,6.1699,6.1699,6.1699,6.1699,6.1699,6.1656,6.1544,6.1543,6.1474,6.1388,0.0,0.0,6.135,6.135,6.1315,6.13,6.1135,6.1065,6.1052,6.0949,6.0864,6.0847,6.081,6.0806,6.0806,6.0806,6.0806,6.0806,6.0806,6.0806,6.0806,6.0806,6.0806,6.0806,6.0806,6.0806,0.0,6.0806,6.0806,6.0806,6.0806,6.0806,6.0806,6.0806,6.0806,6.0806,6.0806,6.0806,6.0806,6.0806,6.0806,6.0806,6.0806,6.0531,6.0319,6.0319,6.0319,6.0319,6.0319,6.0319,6.0319,6.0319,6.0319,6.0319,6.0319,6.0319,6.0319,6.0319,6.0319,6.0319,6.0319,6.0319,6.0319,6.0319,6.0319,6.0319,6.0319,6.0473,6.055,6.0531,6.0402,6.0319,0.0,0.0,0.0,0.0,0.0,0.0,0.0,0.0,0.0,0.0,0.0,6.1699,6.1699,0.0,6.1699,6.1699,6.1699,6.1699,6.1699,6.1699,6.1699,6.1699,6.1699,6.1699,6.1699,6.1699,6.1699,6.1699,6.1699,6.1678,6.1607,6.1606,6.1576,6.1504,6.1502,6.1464,6.1389,6.1409,6.1379,6.1306,6.1306,6.1243,6.1158,6.1158,6.1101,6.1046,6.0945,6.0909,6.0899,6.0831,6.0806,6.0806,6.0806,6.0806,6.0806,6.0806,6.0806,6.0806,6.0806,6.0806,6.0806,6.0806,6.0806,6.0806,6.0806,6.0806,6.0806,6.0806,6.0806,6.0806,6.0806,6.0806,6.0806,6.0806,6.0806,6.0806,6.0806,6.0806,6.0806,6.0806,6.0806,6.0806,6.0806,6.0806,6.0806,6.0806,6.0806,6.0806,6.0806,6.0806,6.0806,6.0806,6.0806,6.0806,6.0806,6.0806,6.0806,6.0806,6.0806,6.0806,6.0806,6.0806,6.0806,6.0806,6.0806,6.0806,6.0806,6.0806,6.0806,6.0806,6.0806,6.0806,0.0,0.0,0.0,0.0,0.0,0.0,0.0,6.1699,6.1699,6.1699,6.1699,6.1699,6.1699,6.1699,6.1699,6.1699,6.1699,6.1699,6.1658,6.1658,6.1657,6.1632,6.1678,6.1699,6.1699,6.1699,6.1699,6.1658,6.1658,6.1607,6.1464,6.1458,6.142,6.1309,6.1306,6.1271,6.124,6.124,6.122,6.1206,6.1206,6.1124,6.0968,6.0968,6.0895,6.0806,6.0806,6.0806,6.0806,6.0806,6.0806,6.0806,6.0806,6.0806,6.0806,6.0806,6.0806,6.0806,6.0806,6.0806,6.0806,6.0806,6.0806,6.0806,6.0806,6.0806,6.0806,6.0806,6.0806,6.0806,6.0806,6.0806,6.0806,6.0806,6.0806,6.0806,6.0806,6.0806,6.0806,6.0806,6.0806,6.0806,6.0806,6.0806,6.0806,6.0806,6.0806,6.0806,6.0806,6.0806,6.0806,6.0806,6.0806,6.0806,6.0806,6.0806,6.0806,6.0806,6.0806,6.0806,6.0806,6.0806,6.0806,6.0806,6.0806,6.0806,6.0806,6.0806,6.0806,6.0806,6.0806,6.0806,6.1211,6.1484,6.1582,6.168,6.1699,6.1699,0.0,6.1699,6.1699,6.1699,6.1699,6.1699,6.1699,6.1699,6.1699,6.1699,6.1699,6.1657,6.1543,6.1516,6.149,6.1352,6.1551,6.1699,6.1699,6.1699,6.1656,6.152,6.1516,6.146,6.134,6.1312,6.1323,6.1306,6.1306,6.1217,6.104,6.104,6.0973,6.0864,6.0864,6.0847,6.0814,6.0814,6.0816,6.0806,6.0806,6.0806,6.0806,6.0806,6.0806,6.0806,6.0806,6.0806,6.0806,6.0806,6.0806,6.0806,6.0806,6.0806,6.0806,6.0806,6.0806,6.0806,6.0806,6.0806,6.0806,6.0806,6.0806,6.0806,6.0806,6.0806,6.0806,6.0806,6.0806,6.0806,6.0806,6.0806,6.0806,6.0806,6.0806,6.0806,6.0806,6.0806,6.0806,6.0806,6.0806,6.0806,6.0806,6.0806,6.0806,6.0806,6.0806,6.0806,6.0806,6.0806,6.0806,6.0806,6.0806,6.0806,6.0806,6.0806,6.0806,6.0806,6.0806,6.0806,6.0806,6.0806,6.0806,6.0806,6.0806,6.0806,6.1601,6.1699,6.1699,6.1699,6.1699,6.1699,6.1699,6.1699,6.1699,6.1699,6.1635,6.1581,6.1581,6.1515,6.1462,6.1462,6.1462,6.1448,6.1383,6.1376,6.1354,6.1314,6.1409,6.1462,6.1462,6.1462,6.1446,6.1398,6.1376,6.1315,6.1123,6.1135,6.1096,6.102,6.1016,6.0964,6.0873,6.0873,6.0853,6.0806,6.0806,6.0806,6.0806,6.0806,6.0806,6.0806,6.0806,6.0806,6.0806,6.0806,6.0806,6.0806,6.0806,6.0806,6.0806,6.0806,6.0806,6.0806,6.0806,6.0806,6.0806,6.0806,6.0806,6.0806,6.0806,6.0806,6.0806,6.0806,6.0806,6.0806,6.0806,6.0806,6.0806,6.0806,6.0806,6.0806,6.0806,6.0806,6.0806,6.0806,6.0806,6.0806,6.0806,6.0806,6.0806,6.0806,6.0806,6.0806,6.0806,6.0806,6.0806,6.0806,6.0806,6.0806,6.0806,6.0806,6.0806,6.0806,6.0806,6.0806,6.0806,6.0806,6.0806,6.0806,6.0806,6.0806,6.0806,6.0806,6.0806,6.0806,6.0806,6.0806,6.1699,6.1678,6.1657,6.1699,6.1678,6.1636,6.1636,6.161,6.1584,6.1584,6.1511,6.1446,6.1446,6.1376,6.1306,6.1306,6.1306,6.1271,6.1224,6.1217,6.12,6.1166,6.1159,6.1159,6.1159,6.1253,6.1288,6.122,6.1217,6.1135,6.0949,6.094,6.0909,6.0793,6.0806,6.0806,6.0806,6.0806,6.0921,6.1152,6.1152,6.1268,6.1493,6.1493,6.1493,6.1493,6.1493,6.1493,6.1493,6.1493,6.1358,6.1152,6.1152,6.1018,6.0806,6.0806,6.0806,6.0806,6.0806,6.0806,6.0806,6.0806,6.0806,6.0806,6.0806,6.0806,6.0806,6.0806,6.0806,6.0806,6.0806,6.0806,6.0806,6.0806,6.0806,6.0806,6.0806,6.0806,6.0806,6.0806,6.0806,6.0806,6.0806,6.0806,6.0806,6.0806,6.0806,6.0806,6.0806,6.0806,6.0806,6.0806,6.0806,6.0806,6.0806,6.0806,6.0806,6.0806,6.0806,6.0806,6.0806,6.0806,6.0806,6.0806,6.0806,6.0806,6.0806,6.0806,6.0806,6.0806,6.0806,6.0806,6.1658,6.1608,6.1543,6.1678,6.1607,6.1507,6.1507,6.1413,6.1301,6.1301,6.1314,6.1312,6.1312,6.1309,6.1306,6.1306,6.1306,6.123,6.104,6.101,6.0963,6.0831,6.081,6.081,6.081,6.1112,6.122,6.1027,6.101,6.0944,6.0816,6.0818,6.0793,6.0806,6.0806,6.0806,6.0806,6.0806,6.1229,6.2062,6.2062,6.2474,6.3218,6.3218,6.3218,6.3218,6.3218,6.3218,6.3218,6.3218,6.2762,6.2062,6.2062,6.1537,6.0806,6.0806,6.0806,6.0806,6.0806,6.0806,6.0806,6.0806,6.0806,6.0806,6.0806,6.0806,6.0806,6.0806,6.0806,6.0806,6.0806,6.0806,6.0806,6.0806,6.0806,6.0806,6.0806,6.0806,6.0806,6.0806,6.0806,6.0806,6.0806,6.0806,6.0806,6.0806,6.0806,6.0806,6.0806,6.0806,6.0806,6.0806,6.0806,6.0806,6.0806,6.0806,6.0806,6.0806,6.0806,6.0806,6.0806,6.0806,6.0806,6.0806,6.0806,6.0806,6.0806,6.0806,6.0806,6.0806,6.0806,6.0806,6.154,6.1464,6.1388,6.143,6.1392,6.1379,6.1379,6.1323,6.1306,6.1306,6.1197,6.1109,6.1109,6.1027,6.0974,6.0974,6.0974,6.0944,6.0871,6.088,6.0842,6.0818,6.0806,6.0806,6.0806,6.0906,6.0934,6.0866,6.088,6.0856,6.0806,6.0806,6.1075,6.1633,6.1652,6.1922,6.2448,6.2454,6.2608,6.2897,6.2897,6.3051,6.3295,6.3295,6.3295,6.3295,6.3295,6.3295,6.3295,6.3295,6.3141,6.2897,6.2897,6.2397,6.1652,6.1652,6.1306,6.0806,6.0806,6.0806,6.0806,6.0806,6.0806,6.0806,6.0806,6.0806,6.0806,6.0806,6.0806,6.0806,6.0806,6.0806,6.0806,6.0806,6.0806,6.0806,6.0806,6.0806,6.0806,6.0806,6.0806,6.0806,6.0806,6.0806,6.0806,6.0806,6.0806,6.0806,6.0806,6.0806,6.0806,6.0806,6.0806,6.0806,6.0806,6.0806,6.0806,6.0806,6.0806,6.0806,6.0806,6.0806,6.0806,6.0806,6.0806,6.0806,6.0806,6.0806,6.0806,6.0806,6.0806,6.0806,6.1383,6.1303,6.1214,6.1271,6.1243,6.1197,6.1197,6.1162,6.1128,6.1128,6.1018,6.0925,6.0925,6.0858,6.0806,6.0806,6.0806,6.0806,6.0806,6.1075,6.1268,6.1268,6.1518,6.1685,6.1685,6.1685,6.157,6.1287,6.1268,6.1383,6.1685,6.1685,6.1954,6.2518,6.2531,6.2781,6.3295,6.3295,6.3468,6.3775,6.4083,6.4224,6.4224,6.4224,6.4224,6.4224,6.4224,6.4224,6.4224,6.4224,6.4051,6.3756,6.3756,6.3262,6.2531,6.2531,6.1999,6.1229,6.0921,6.0806,6.0806,6.0806,6.0806,6.0806,6.0806,6.0806,6.0806,6.0806,6.0806,6.0806,6.0806,6.0806,6.0806,6.0806,6.0806,6.0806,6.0806,6.0806,6.0806,6.0806,6.0806,6.0806,6.0806,6.0806,6.0806,6.0806,6.0806,6.0806,6.0806,6.0806,6.0806,6.0806,6.0806,6.0806,6.0806,6.0806,6.0806,6.0806,6.0806,6.0806,6.0806,6.0806,6.0806,6.0806,6.0806,6.0806,6.0806,6.0806,6.0806,6.0806,6.0806,6.0806,6.123,6.1147,6.1036,6.122,6.1132,6.0984,6.0984,6.0888,6.0806,6.0806,6.0806,6.0806,6.0806,6.0806,6.0806,6.0806,6.0845,6.0864,6.0864,6.1614,6.2153,6.2153,6.2839,6.3295,6.3295,6.3295,6.2993,6.2287,6.2191,6.2499,6.3256,6.3295,6.3314,6.3372,6.3372,6.3391,6.3429,6.3429,6.3852,6.4686,6.5493,6.5904,6.5904,6.5904,6.5904,6.5904,6.5904,6.5904,6.5904,6.5904,6.5416,6.4666,6.4666,6.4122,6.3372,6.3372,6.2858,6.2037,6.121,6.0864,6.0806,6.0806,6.0806,6.0806,6.0806,6.0806,6.0806,6.0806,6.0806,6.0806,6.0806,6.0806,6.0806,6.0806,6.0806,6.0806,6.0806,6.0806,6.0806,6.0806,6.0806,6.0806,6.0806,6.0806,6.0806,6.0806,6.0806,6.0806,6.0806,6.0806,6.0806,6.0806,6.0806,6.0806,6.0806,6.0806,6.0806,6.0806,6.0806,6.0806,6.0806,6.0806,6.0806,6.0806,6.0806,6.0806,6.0806,6.0806,6.0806,6.0806,6.0806,6.0806,6.1042,6.0973,6.0858,6.0908,6.0896,6.0842,6.0842,6.0819,6.0806,6.0806,6.0806,6.0806,6.0806,6.0806,6.0806,6.0806,6.1345,6.1768,6.1768,6.2474,6.2993,6.2993,6.3179,6.3295,6.3295,6.3295,6.3487,6.3935,6.3358,6.3083,6.3295,6.3295,6.3602,6.4256,6.4282,6.4589,6.5224,6.5243,6.5359,6.557,6.5788,6.5904,6.5904,6.5904,6.5904,6.5904,6.5904,6.5904,6.5904,6.5904,6.5763,6.557,6.557,6.5032,6.4282,6.4282,6.3724,6.2948,6.2743,6.1839,6.0806,6.0806,6.0806,6.0806,6.0806,6.0806,6.0806,6.0806,6.0806,6.0806,6.0806,6.0806,6.0806,6.0806,6.0806,6.0806,6.0806,6.0806,6.0806,6.0806,6.0806,6.0806,6.0806,6.0806,6.0806,6.0806,6.0806,6.0806,6.0806,6.0806,6.0806,6.0806,6.0806,6.0806,6.0806,6.0806,6.0806,6.0806,6.0806,6.0806,6.0806,6.0806,6.0806,6.0806,6.0806,6.0806,6.0806,6.0806,6.0806,6.0806,6.0806,6.0806,6.0888,6.0858,6.0806,6.0806,6.0806,6.0806,6.0806,6.0806,6.0806,6.0806,6.0806,6.0806,6.0806,6.0806,6.0941,6.1306,6.1787,6.221,6.257,6.3339,6.3872,6.3872,6.4205,6.4436,6.4436,6.4436,6.4647,6.5128,6.4359,6.4045,6.4416,6.4436,6.4666,6.5166,6.5166,6.5416,6.5904,6.5904,6.5904,6.5904,6.5904,6.5904,6.5904,6.5904,6.5904,6.5904,6.5904,6.5904,6.5904,6.5904,6.5904,6.5904,6.5904,6.559,6.5166,6.5166,6.4628,6.3872,6.3872,6.3006,6.1839,6.1499,6.1364,6.1306,6.0921,6.0806,6.0806,6.0806,6.0806,6.0806,6.0806,6.0806,6.0806,6.0806,6.0806,6.0806,6.0806,6.0806,6.0806,6.0806,6.0806,6.0921,6.1306,6.1364,6.1499,6.1839,6.1897,6.1897,6.1897,6.1595,6.1518,6.1858,6.1897,6.1897,6.1897,6.1897,6.1897,6.1897,6.1897,6.1743,6.1383,6.1364,6.1191,6.0806,6.0806,6.0806,6.0806,6.0806,6.0806,6.0806,6.0806,6.0806,6.0806,6.0806,6.0806,6.0806,6.0806,6.0806,6.0806,6.0806,6.0806,6.0806,6.0806,6.0806,6.0806,6.0883,6.1229,6.1979,6.2287,6.2691,6.3372,6.4224,6.4762,6.4762,6.5436,6.5904,6.5904,6.5904,6.5904,6.5904,6.5205,6.5109,6.5865,6.5904,6.5904,6.5904,6.5904,6.5904,6.5904,6.5904,6.5904,6.5904,6.5904,6.5904,6.5904,6.5904,6.5904,6.5904,6.5904,6.5904,6.5904,6.5904,6.5904,6.5904,6.5904,6.5904,6.5904,6.5904,6.5416,6.4762,6.4762,6.4282,6.3487,6.2557,6.2268,6.2114,6.1364,6.105,6.0979,6.0979,6.0883,6.0806,6.0806,6.0806,6.0806,6.0806,6.0806,6.0806,6.0806,6.0883,6.0979,6.0979,6.105,6.1364,6.2133,6.2268,6.2499,6.3179,6.3295,6.3333,6.3468,6.2762,6.2531,6.3237,6.3295,6.3295,6.3295,6.3295,6.3295,6.3295,6.3295,6.2993,6.2287,6.2268,6.1903,6.1146,6.1127,6.1127,6.1127,6.1127,6.1075,6.0979,6.0979,6.0921,6.0806,6.0806,6.0806,6.0806,6.0806,6.0806,6.0806,6.0806,6.0806,6.0806,6.0806,6.0806,6.0806,6.1383,6.1922,6.2076,6.3268,6.4224,6.4359,6.5128,6.5667,6.5667,6.5801,6.5904,6.5904,6.5904,6.5904,6.5904,6.5763,6.5743,6.5878,6.5904,6.5904,6.5904,6.5904,6.5904,6.5904,6.5904,6.5904,6.5904,6.5904,6.5904,6.5904,6.5904,6.5904,6.5904,6.5904,0.0,6.5904,6.5904,6.5904,6.5904,6.5904,6.5904,6.5904,6.5904,6.5801,6.5667,6.5667,6.557,6.5186,6.3608,6.3083,6.3064,6.291,6.2397,6.1864,6.1864,6.1364,6.0806,6.0806,6.0806,6.0806,6.0806,6.0806,6.0806,6.0806,6.1364,6.1864,6.1864,6.2416,6.291,6.3064,6.3083,6.3141,6.3275,6.3295,6.3564,6.4282,6.3622,6.3141,6.3295,6.3295,6.3295,6.3295,6.3295,6.3295,6.3295,6.3295,6.3237,6.3102,6.3083,6.3025,6.2871,6.2871,6.2871,6.2871,6.2871,6.2512,6.1864,6.1864,6.1499,6.0806,6.0806,6.0806,6.0806,6.0806,6.0806,6.0806,6.0806,6.0806,6.0806,6.0806,6.0806,6.0806,6.1518,6.223,6.2666,6.3782,6.4762,6.5205,6.5628,6.5904,6.5904,6.5904,6.5904,6.5904,6.5904,6.5904,6.5904,6.5904,6.5904,6.5904,6.5904,6.5904,6.5904,6.5904,6.5904,6.5904,6.5904,6.5904,6.5904,6.5904,6.5904,6.5904,6.5904,6.5904,6.5904,6.5904,6.5904,6.5904,6.5904,6.5904,6.5904,6.5904,6.5904,6.5904,6.5904,6.5904,6.5904,6.5904,6.5904,6.5763,6.4916,6.4359,6.3891,6.3448,6.3031,6.2724,6.2724,6.2416,6.2108,6.2108,6.2108,6.2108,6.2108,6.2108,6.2108,6.2108,6.2435,6.2724,6.2724,6.3051,6.3448,6.3891,6.3968,6.4122,6.4589,6.4647,6.4801,6.5224,6.4916,6.4647,6.4647,6.4647,6.4647,6.4647,6.4647,6.4647,6.4647,6.4647,6.4455,6.4006,6.3968,6.3756,6.3314,6.3295,6.3295,6.3295,6.3295,6.3102,6.2724,6.2724,6.2493,6.0806,6.0806,6.0806,6.0806,6.0806,6.0806,6.0806,6.0806,6.0806,6.0806,6.0806,6.0806,6.0806,6.1652,6.2551,6.3198,6.4179,6.5128,6.5801,6.5904,6.5904,6.5904,6.5904,6.5904,6.5904,6.5904,6.5904,6.5904,6.5904,6.5904,6.5904,6.5904,6.5904,6.5904,6.5904,6.5904,6.5904,6.5904,6.5904,6.5904,6.5904,6.5904,6.5904,6.5904,6.5904,6.5904,6.5904,6.5904,6.5904,6.5904,6.5904,6.5904,6.5904,6.5904,6.5904,6.5904,6.5904,6.5904,6.5904,6.5904,6.5904,6.5904,6.5436,6.4743,6.4064,6.3737,6.3583,6.3583,6.3448,6.3295,6.3295,6.3295,6.3295,6.3295,6.3295,6.3295,6.3295,6.3448,6.3583,6.3583,6.3737,6.4064,6.4762,6.4878,6.5109,6.5807,6.5904,6.5904,6.5904,6.5904,6.5904,6.5904,6.5904,6.5904,6.5904,6.5904,6.5904,6.5904,6.5904,6.559,6.4916,6.4878,6.457,6.3872,6.3852,6.3852,6.3852,6.3852,6.3756,6.3583,6.3583,6.3487,6.0806,6.0806,6.0806,6.0806,6.0806,6.0806,6.0806,6.0806,6.0806,6.0806,6.0806,6.0806,6.0806,6.2108,6.3218,6.3295,6.4705,6.5801,6.5878,6.5904,6.5904,6.5904,6.5904,6.5904,6.5904,6.5904,6.5904,6.5904,6.5904,6.5904,6.5904,6.5904,6.5904,6.5904,6.5904,6.5904,6.5904,6.5904,6.5904,6.5904,6.5904,6.5904,6.5904,6.5904,6.5904,6.5904,6.5904,6.5904,0.0,6.5904,6.5904,6.5904,6.5904,6.5904,6.5904,6.5904,6.5904,6.5904,6.5904,6.5904,6.5904,6.5904,6.5846,6.5763,6.5686,6.5109,6.4474,6.4474,6.391,6.3295,6.3295,6.3295,6.3295,6.3295,6.3295,6.3295,6.3295,6.391,6.4474,6.4474,6.5128,6.5686,6.5763,6.5788,6.5801,6.5878,6.5904,6.5904,6.5904,6.5904,6.5904,6.5904,6.5904,6.5904,6.5904,6.5904,6.5904,6.5904,6.5904,6.5865,6.5788,6.5788,6.5743,6.5647,6.5647,6.5647,6.5647,6.5647,6.5243,6.4474,6.4474,6.4064,6.0806,6.0806,6.0806,6.0806,6.0806,6.0806,6.0806,6.0806,6.0806,6.0806,6.0806,6.0806,6.0806,6.2166,6.3295,6.3295,6.4762,6.5904,6.5904,6.5904,6.5904,6.5904,6.6327,6.6615,6.6615,6.7109,6.7186,6.6654,6.6167,6.5904,6.5904,6.5904,6.5904,6.5904,6.5904,6.5904,6.5904,6.5904,6.5904,6.5904,6.5904,6.5904,6.5904,6.5904,6.5904,6.5904,6.5904,6.5904,0.0,6.5904,6.5904,6.5904,6.5904,6.5904,6.5904,6.5904,6.5904,6.5904,6.5904,6.5904,6.5904,6.5904,6.5904,6.5904,6.5904,6.5647,6.5378,6.5378,6.5128,6.4859,6.4859,6.4859,6.4859,6.4859,6.4859,6.4859,6.4859,6.5147,6.5378,6.5378,6.5647,6.5904,6.5904,6.5904,6.5904,6.5904,6.5904,6.5904,6.5904,6.5904,6.5904,6.5904,6.5904,6.5904,6.5904,6.5904,6.5904,6.5904,6.5904,6.5904,6.5904,6.5904,6.5904,6.5904,6.5904,6.5904,6.5904,6.5904,6.5724,6.5378,6.5378,6.5205,6.0806,6.0806,6.0806,6.0806,6.0806,6.0806,6.0806,6.0806,6.0806,6.0806,6.0806,6.0883,6.1133,6.2339,6.3372,6.3641,6.4936,6.5904,6.5904,6.5904,6.5904,6.5904,6.6615,6.7096,6.7096,6.7898,6.8141,6.7532,6.6955,6.6532,6.6269,6.625,6.6154,6.5904,6.5904,6.5904,6.5904,6.5904,6.5904,6.5904,6.5904,6.5904,6.5904,6.6154,6.625,6.6269,6.6532,6.6647,0.0,6.6647,6.6647,6.6647,6.6647,6.6647,6.6609,6.6346,6.625,6.6231,6.5981,6.5904,6.5904,6.5904,6.5904,6.5904,6.5904,6.5904,6.5904,6.5904,6.5904,6.5904,6.5904,6.5904,6.5904,6.5904,6.5904,6.5904,6.5904,6.5904,6.5904,6.5904,6.5904,6.5904,6.5904,6.5904,6.5904,6.5904,6.5904,6.5904,6.5904,6.5904,6.5904,6.5904,6.5904,6.5904,6.5904,6.5904,6.5904,6.5904,6.5904,6.5904,6.5904,6.5904,6.5904,6.5904,6.5904,6.5904,6.5904,6.5904,6.5904,6.5904,6.5904,6.5904,6.0806,6.0806,6.0806,6.0806,6.0806,6.0806,6.0806,6.0806,6.0806,6.0806,6.0806,6.1056,6.1922,6.2743,6.3583,6.4455,6.532,6.5904,6.5904,6.5904,6.5904,6.5904,6.6615,6.7096,6.7096,6.7898,6.8391,6.8391,6.8372,6.7987,6.7135,6.7096,6.6731,6.5923,6.5904,6.5904,6.5904,6.5904,6.5904,6.5904,6.5904,6.5904,6.5923,6.6731,6.7096,6.7135,6.7987,6.8372,0.0,6.8372,6.8372,6.8372,6.8372,6.8372,6.8276,6.7398,6.7096,6.6981,6.6192,6.5904,6.5904,6.5904,6.5904,6.5904,6.5904,6.5904,6.5904,6.5904,6.5904,6.5904,6.5904,6.5904,6.5904,6.5904,6.5904,6.5904,6.5904,6.5904,6.5904,6.5904,6.5904,6.5904,6.5904,6.5904,6.5904,6.5904,6.5904,6.5904,6.5904,6.5904,6.5904,6.5904,6.5904,6.5904,6.5904,6.5904,6.5904,6.5904,6.5904,6.5904,6.5904,6.5904,6.5904,6.5904,6.5904,6.5904,6.5904,6.5904,6.5904,6.5904,6.5904,6.5904,6.0806,6.0806,6.0806,6.0806,6.0806,6.0806,6.0806,6.0806,6.0806,6.0806,6.0806,6.1075,6.1941,6.2762,6.3583,6.4455,6.532,6.5904,6.5904,6.5904,6.6096,6.6654,6.7994,6.909,6.9629,6.9456,6.9295,6.9295,6.8737,6.8276,6.7987,6.7987,6.7359,6.5936,6.5904,6.5904,6.5904,6.5904,6.6192,6.6731,6.6731,6.7032,6.7628,6.7872,6.7987,6.7987,6.8276,6.8391,6.8391,6.8391,6.8391,6.8391,6.8391,6.8391,6.8372,6.8084,6.7987,6.7878,6.7013,6.6731,6.6635,6.6077,6.5904,6.5904,6.5904,6.5904,6.5904,6.5904,6.5904,6.5904,6.5904,6.5904,6.5904,6.5904,6.5904,6.5904,6.5904,6.5904,6.5904,6.5904,6.5904,6.5904,6.5904,6.5904,6.5904,6.5904,6.5904,6.5904,6.5904,6.5904,6.6109,6.6654,6.6731,6.65,6.5961,6.5904,6.5904,6.5904,6.5904,6.5904,6.5904,6.5904,6.5904,6.5904,6.5904,6.5904,6.5904,6.5904,6.5904,6.5904,6.5904,6.5904,6.0806,6.0806,6.0806,6.0806,6.0806,6.0806,6.0806,6.0806,6.0806,6.0806,6.1056,6.1556,6.2403,6.3224,6.4083,6.4955,6.5551,6.5904,6.5904,6.5904,6.632,6.7455,6.884,7.0014,7.0821,7.0456,7.0148,7.0148,6.9648,6.9199,6.8911,6.8891,6.8257,6.6898,6.684,6.684,6.684,6.684,6.709,6.759,6.759,6.7878,6.841,6.8737,6.8891,6.8911,6.9199,6.9334,0.0,6.9334,6.9334,6.9334,6.9334,6.9334,6.9321,6.9007,6.8891,6.8776,6.7898,6.759,6.7455,6.6609,6.6154,6.5904,6.5904,6.5904,6.5904,6.5904,6.5904,6.5904,6.5904,6.5904,6.5904,6.5904,6.5904,6.5904,6.5904,6.5904,6.5904,6.5904,6.5904,6.5904,6.5904,6.5904,6.5994,6.6308,6.6346,6.6481,6.6801,6.684,6.7032,6.7532,6.759,6.7398,6.6898,6.6532,6.6231,6.5923,6.5904,6.5904,6.5904,6.5904,6.5904,6.5904,6.5904,6.5904,6.5904,6.5904,6.5904,6.5904,6.5904,6.5904,0.0,6.0806,6.0806,6.0806,6.0806,6.0806,6.0806,6.0806,0.0,6.0883,6.1537,6.2364,6.3237,6.4045,6.4897,6.5763,6.5904,6.5904,6.5904,6.5994,6.6686,6.8295,6.9263,7.0071,7.0821,7.0898,7.0898,7.0898,7.0898,7.0571,6.984,6.9783,6.9411,6.8603,6.8584,6.8526,6.8391,6.8391,6.843,6.8487,6.8487,6.8526,6.8603,6.9417,6.9783,6.984,7.0571,7.0898,7.0898,7.0898,7.0898,7.0898,7.0898,7.0898,7.0802,7.0052,6.9783,6.9667,6.8795,6.8487,6.8353,6.7475,6.6692,6.607,6.607,6.5994,6.5904,6.5904,6.5904,6.5904,6.5904,6.5904,6.5904,6.5904,6.5904,6.5904,6.5904,6.5904,6.5904,6.5904,6.5961,6.6,6.6,6.6032,6.632,6.7077,6.7192,6.7475,6.8295,6.8391,6.841,6.8487,6.8487,6.8487,6.8487,6.7686,6.6865,6.6134,6.607,6.607,6.607,6.607,6.607,6.607,6.6019,6.6,6.6,6.5923,6.5904,6.5904,6.5904,6.5904,6.0806,0.0,6.0806,6.0806,6.0806,6.0806,0.0,6.0806,6.0998,6.1652,6.196,6.2557,6.4012,6.4455,6.4897,6.5763,6.5904,6.5904,6.5904,6.6994,6.8199,6.9263,7.0129,7.0687,7.0879,7.0898,7.0898,7.0898,7.0898,7.0821,7.0629,7.0629,7.0514,7.0321,7.0321,6.9699,6.841,6.8391,6.8737,6.9398,6.9398,6.9725,7.0321,7.0514,7.0629,7.0629,7.0821,7.0898,7.0898,7.0898,7.0898,7.0898,7.0898,7.0898,7.0879,7.0687,7.0629,7.0494,6.9687,6.9398,6.9244,6.8372,6.7968,6.7814,6.7814,6.6917,6.5904,6.5904,6.5904,6.5904,6.5904,6.5904,6.5904,6.5904,6.5904,6.5904,6.5904,6.5904,6.5904,6.5904,6.6404,6.6827,6.6827,6.7378,6.7872,6.8071,6.8084,6.816,6.8372,6.8391,6.866,6.9321,6.9398,6.9398,6.9398,6.8603,6.8007,6.7814,6.7814,6.7814,6.7814,6.7814,6.7814,6.7814,6.7167,6.6827,6.6827,6.6211,6.5904,6.5904,6.5904,6.5904,6.0806,6.0806,6.0806,6.0806,6.0806,6.0806,6.0806,6.1114,6.1537,6.1999,6.271,6.3518,6.4436,6.4936,6.5359,6.582,6.5904,6.6038,6.6404,6.7917,6.9161,6.9648,7.0417,7.0898,7.0898,7.0898,7.0898,7.0898,7.0898,7.0898,7.0898,7.0898,7.0898,7.0898,7.0898,7.0456,6.9571,6.9552,6.9783,7.0244,7.0244,7.0475,7.0898,7.0898,7.0898,7.0898,7.0898,7.0898,7.0898,7.0898,7.0898,7.0898,7.0898,7.0898,7.0898,7.0898,7.0898,7.0841,7.0398,7.0014,6.9629,6.9141,6.8737,6.8391,6.8391,6.7776,6.6955,6.6551,6.6192,6.5904,6.5904,6.5904,6.5904,6.5904,6.5904,6.5994,6.6365,6.6442,6.6571,6.6974,6.7398,6.7705,6.7705,6.8084,6.8545,6.893,6.9007,6.9122,6.9507,6.9552,6.9725,7.0206,7.0244,7.0244,7.0244,6.9821,6.9218,6.8449,6.8391,6.8391,6.8391,6.8391,6.8391,6.8391,6.7936,6.7705,6.7705,6.7263,6.7051,6.7032,6.6635,6.6442,6.0806,6.0806,6.0806,6.0806,6.0806,6.0819,6.0979,6.1575,6.2172,6.2422,6.3608,6.4647,6.4762,6.5397,6.5904,6.5904,6.5994,6.6365,6.7186,6.8686,6.9744,6.9879,7.0475,7.0878,7.0784,7.0777,7.0736,7.0652,7.0671,7.0671,7.0671,7.0671,7.0671,7.0671,7.0671,7.0671,7.0671,7.0824,7.0898,7.0898,7.0898,7.0898,7.0898,7.0898,7.0898,7.0898,7.0898,0.0,7.0898,7.0898,7.0898,7.0898,7.0898,7.0898,7.0898,7.0898,7.0898,7.0898,7.0898,7.0456,6.9879,6.9879,6.9379,6.8776,6.8776,6.8699,6.843,6.7705,6.6898,6.6282,6.6282,6.6282,6.6282,6.6282,6.6282,6.6474,6.7154,6.7301,6.7513,6.8257,6.8507,6.8603,6.8603,6.8699,6.9026,6.9763,6.9879,7.0129,7.0802,7.0898,7.0898,7.0898,7.0898,7.0898,7.0898,7.0898,7.0283,6.8872,6.8776,6.8776,6.8776,6.8776,6.8776,6.8776,6.866,6.8603,6.8603,6.8468,6.8391,6.8372,6.7648,6.7301,6.0806,6.0806,6.0806,6.0806,6.0806,6.0998,6.1729,6.1999,6.2499,6.3916,6.4416,6.482,6.5551,6.5801,6.5904,6.5904,6.6481,6.7225,6.8084,6.9064,6.9956,7.0629,7.0821,7.0715,7.0263,7.0222,7.0025,6.9579,6.955,6.955,6.955,6.955,6.955,6.955,6.955,6.955,6.955,7.0455,7.0898,7.0898,7.0898,7.0898,7.0898,7.0898,7.0898,7.0898,0.0,7.0898,7.0898,7.0898,7.0898,7.0898,7.0898,7.0898,7.0898,7.0898,7.0898,7.0898,7.0898,7.0821,7.0725,7.0725,7.0629,7.0514,7.0514,7.0033,6.9475,6.934,6.868,6.8026,6.8026,6.8026,6.8026,6.8026,6.8026,6.8045,6.816,6.8199,6.8237,6.8372,6.9007,6.9494,6.9494,7.0071,7.0552,7.0706,7.0725,7.0764,7.0879,7.0898,7.0898,7.0898,7.0898,7.0898,7.0898,7.0898,7.0783,7.0533,7.0514,7.0514,7.0514,7.0514,7.0514,7.0514,6.986,6.9494,6.9494,6.8757,6.8391,6.8391,6.8257,6.8199,6.0806,6.0806,6.0921,6.1383,6.1499,6.1614,6.1999,6.2807,6.3666,6.4436,6.4974,6.5416,6.582,6.5904,6.6038,6.6481,6.7244,6.8109,6.8975,6.9821,7.038,7.0463,7.0471,7.0266,6.972,6.9673,6.9569,6.9323,6.9302,6.9302,6.9302,6.9302,6.9302,6.9302,6.9302,6.9302,6.9302,6.9794,7.0035,7.0035,7.0035,7.0035,7.0044,7.033,7.0471,7.0486,0.0,7.0898,7.0898,7.0898,7.0898,7.0898,7.0898,7.0898,7.0898,7.0898,7.0898,7.0898,7.0898,7.0898,7.0898,7.0898,7.0898,7.0898,7.0898,7.0648,7.036,7.036,6.9411,6.8391,6.8391,6.8391,6.8391,6.8391,6.8391,6.8526,6.9007,6.9103,6.9218,6.9667,7.0071,7.036,7.036,7.0667,7.0898,7.0898,7.0898,7.0898,7.0898,7.0898,7.0898,7.0898,7.0898,7.0898,7.0898,7.0898,7.0898,7.0898,7.0898,7.0898,7.0898,7.0898,7.0898,7.0898,7.0533,7.036,7.036,6.9956,6.9738,6.9744,6.9295,6.9103,6.0806,6.0806,6.1018,6.1883,6.2095,6.2191,6.2595,6.3685,6.4666,6.4859,6.5436,6.5904,6.5904,6.6051,6.6385,6.7,6.7994,6.8884,6.9416,7.0189,7.0509,6.9973,6.992,6.9701,6.9169,6.9116,6.9053,6.8924,6.8932,6.8932,6.8932,6.8932,6.8932,6.8932,6.8932,6.8932,6.8932,6.8932,6.9053,6.9302,6.9302,6.9302,6.9323,6.9866,7.0103,7.0129,7.0659,7.0898,7.0898,7.0898,7.0898,7.0898,7.0898,7.0898,7.0898,7.0898,7.0898,7.0898,7.0898,7.0898,7.0898,7.0898,7.0898,7.0898,7.0898,7.0898,7.0898,7.0898,6.9975,6.8987,6.8987,6.8987,6.8987,6.8987,6.8987,6.9161,6.984,6.9975,7.0167,7.0783,7.0898,7.0898,7.0898,7.0898,7.0898,7.0898,7.0898,7.0898,7.0898,7.0898,7.0898,7.0898,7.0898,7.0898,7.0898,7.0898,7.0898,7.0898,7.0898,7.0898,7.0898,7.0898,7.0898,7.0898,7.0898,7.0898,7.0898,7.0898,7.0898,7.0898,7.0264,6.9975,6.0806,6.0806,6.1018,6.1883,6.2095,6.2518,6.407,6.4512,6.4839,6.5628,6.5865,6.5904,6.5904,6.6519,6.7039,6.7096,6.8513,6.9428,6.8935,6.9611,6.9964,6.9433,6.9363,6.9148,6.8621,6.8563,6.8351,6.7844,6.781,6.781,6.781,6.781,6.781,6.781,6.781,6.781,6.781,6.781,6.8314,6.9302,6.9302,6.9302,6.9323,6.9866,7.0103,7.0129,7.0659,7.0898,7.0898,7.0898,7.0898,7.0898,7.0898,7.0898,7.0898,7.0898,7.0898,7.0898,7.0898,7.0898,7.0898,7.0898,7.0898,7.0898,7.0898,7.0898,7.0898,7.0898,7.0802,7.0725,7.0725,7.0725,7.0725,7.0725,7.0725,7.0744,7.0802,7.0802,7.0821,7.0898,7.0898,7.0898,7.0898,7.0898,7.0898,7.0898,7.0898,7.0898,7.0898,7.0898,7.0898,7.0898,7.0898,7.0898,7.0898,7.0898,7.0898,7.0898,7.0898,7.0898,7.0898,7.0898,7.0898,7.0898,7.0898,7.0898,7.0898,7.0898,7.0898,7.0898,7.0841,7.0802,6.0806,6.121,6.1806,6.2647,6.3243,6.382,6.4455,6.5013,6.5493,6.582,6.5904,6.6051,6.6558,6.734,6.7959,6.8139,6.8706,6.9137,6.9123,6.9399,6.9394,6.8866,6.8799,6.8598,6.8047,6.8002,6.7917,6.7727,6.77,6.77,6.77,6.77,6.77,6.77,6.77,6.77,6.77,6.77,6.791,6.8302,6.8637,6.8799,6.8832,6.9692,7.0103,7.0129,7.0659,7.0898,7.0898,7.0898,7.0898,7.0898,7.0898,7.0898,7.0898,7.0898,7.0898,7.0898,7.0898,7.0898,7.0898,7.0898,7.0898,7.0898,7.0898,7.0898,7.0898,7.0898,7.0898,7.0898,7.0898,7.0898,7.0898,7.0898,7.0898,7.0898,7.0898,7.0898,7.0898,7.0898,7.0898,7.0898,7.0898,7.0898,7.0898,7.0898,7.0898,7.0898,7.0898,7.0898,7.0898,7.0898,7.0898,7.0898,7.0898,7.0898,7.0898,7.0898,7.0898,7.0898,7.0898,7.0898,7.0898,7.0898,7.0898,7.0898,7.0898,7.0898,7.0898,7.0898,7.0898,7.0898,6.0806,6.1441,6.2287,6.3102,6.3948,6.4666,6.4955,6.5474,6.5904,6.5904,6.598,6.6336,6.734,6.793,6.8395,6.8739,6.8891,6.8991,6.9052,6.9042,6.8855,6.8302,6.8247,6.811,6.7741,6.77,6.77,6.77,6.77,6.77,6.77,6.77,6.77,6.77,6.77,6.77,6.77,6.77,6.77,6.7714,6.8247,6.8404,6.8278,6.9354,6.9857,6.9893,7.0588,7.0898,7.0898,7.0898,7.0898,7.0898,7.0898,7.0898,7.0898,7.0898,7.0898,7.0898,7.0898,7.0898,7.0898,7.0898,7.0898,7.0898,7.0898,7.0898,7.0898,7.0898,7.0898,7.0898,7.0898,7.0898,7.0898,7.0898,7.0898,7.0898,7.0898,7.0898,7.0898,7.0898,7.0898,7.0898,7.0898,7.0898,7.0898,7.0898,7.0898,7.0898,7.0898,7.0898,7.0898,7.0898,7.0898,7.0898,7.0898,7.0898,7.0898,7.0898,7.0898,7.0898,7.0898,7.0898,7.0898,7.0898,7.0898,7.0898,7.0898,7.0898,7.0898,7.0898,7.0898,7.0898,6.0781,6.1441,6.2306,6.3102,6.3948,6.4839,6.5705,6.5904,6.5904,6.5904,6.6128,6.6758,6.8145,6.82,6.8177,6.8705,6.9086,6.9106,6.8574,6.8481,6.8308,6.7762,6.77,6.77,6.77,6.77,6.77,6.77,6.77,6.77,6.77,6.77,6.77,6.77,6.77,6.77,6.77,6.77,6.77,6.7696,6.8235,6.821,6.7749,6.8821,6.9313,6.9383,7.0448,7.0898,7.0898,7.0898,7.0898,7.0898,7.0898,7.0898,7.0898,7.0898,7.0898,7.0898,7.0898,7.0898,7.0898,7.0898,7.0898,7.0898,7.0898,7.0898,7.0898,7.0898,7.0898,7.0898,7.0898,7.0898,7.0898,7.0898,7.0898,7.0898,7.0898,7.0898,7.0898,7.0898,7.0898,7.0898,7.0898,7.0898,7.0898,7.0898,7.0898,7.0898,7.0898,7.0898,7.0898,7.0898,7.0898,7.0898,7.0898,7.0898,7.0898,7.0898,7.0898,7.0898,7.0898,7.0898,7.0898,7.0898,7.0898,7.0898,7.0898,7.0898,7.0898,7.0898,7.0898,7.0898,6.0311,6.1608,6.3006,6.3237,6.4416,6.557,6.5846,6.5904,6.6051,6.6635,6.7457,6.8194,6.8589,6.8817,6.8835,6.8624,6.8664,6.8551,6.8014,6.793,6.7883,6.7727,6.77,6.77,6.77,6.77,6.77,6.77,6.77,6.77,6.77,6.77,6.77,6.77,6.77,6.77,6.77,6.715,6.6861,6.6856,6.7029,6.7691,6.8855,6.9559,7.0069,7.0428,7.0762,7.0898,7.0898,7.0898,7.0898,7.0898,7.0898,7.0898,7.0898,7.0898,7.0898,7.0898,7.0898,7.0898,7.0898,7.0898,7.0898,7.0898,7.0898,7.0898,7.0898,7.0898,7.0898,7.0898,7.0898,7.0898,7.0898,7.0898,7.0898,7.0898,7.0898,7.0898,7.0898,7.0898,7.0898,7.0898,7.0898,7.0898,7.0898,7.0898,7.0898,7.0898,7.0898,7.0898,7.0898,7.0898,7.0898,7.0898,7.0898,7.0898,7.0898,7.0898,7.0898,7.0898,7.0898,7.0898,7.0898,7.0898,7.0898,7.0898,7.0898,7.0898,7.0898,7.0898,7.0898,7.0898,6.0752,6.2075,6.3372,6.3737,6.4718,6.5672,6.6017,6.6242,6.6551,6.717,6.7935,6.8589,6.893,6.883,6.8625,6.8516,6.8314,6.806,6.7736,6.77,6.77,6.77,6.77,6.77,6.77,6.77,6.77,6.77,6.77,6.77,6.77,6.77,6.77,6.77,6.7388,6.7223,6.7223,6.6439,6.6017,6.6017,6.6017,6.701,6.8842,6.9493,6.9955,7.029,7.0707,7.0898,7.0898,7.0898,7.0898,7.0898,7.0898,7.0898,7.0898,7.0898,7.0898,7.0898,7.0898,7.0898,7.0898,7.0898,7.0898,7.0898,7.0898,7.0898,7.0898,7.0898,7.0898,7.0898,7.0898,7.0898,7.0898,7.0898,7.0898,7.0898,7.0898,7.0898,7.0898,7.0898,7.0898,7.0898,7.0898,7.0898,7.0898,7.0898,7.0898,7.0898,7.0898,7.0898,7.0898,7.0898,7.0898,7.0898,7.0898,7.0898,7.0898,7.0898,7.0898,7.0898,7.0898,7.0898,7.0898,7.0898,7.0898,7.0898,7.0898,7.0898,7.0898,7.0898,7.0898,7.0898,6.162,6.2623,6.35,6.4315,6.4814,6.5336,6.6186,6.6782,6.7257,6.7643,6.7929,6.8358,6.909,6.838,6.7857,6.8351,6.8014,6.77,6.77,6.77,6.77,6.77,6.77,6.77,6.77,6.77,6.77,6.77,6.77,6.77,6.77,6.77,6.77,6.77,6.6916,6.6494,6.6494,6.5632,6.5178,6.5178,6.5178,6.6079,6.7779,6.8754,6.9287,6.9501,7.0478,7.0898,7.0898,7.0898,7.0898,7.0898,7.0898,7.0898,7.0898,7.0898,7.0898,7.0898,7.0898,7.0898,7.0898,7.0898,7.0898,7.0898,7.0898,7.0898,7.0898,7.0898,7.0898,7.0898,7.0898,7.0898,7.0898,7.0898,7.0898,7.0898,7.0898,7.0898,7.0898,7.0898,7.0898,7.0898,7.0898,7.0898,7.0898,7.0898,7.0898,7.0898,7.0898,7.0898,7.0898,7.0898,7.0898,7.0898,7.0898,7.0898,7.0898,7.0898,7.0898,7.0898,7.0898,7.0898,7.0898,7.0898,7.0898,7.0898,7.0898,7.0898,7.0898,7.0898,7.0898,7.0898,6.0744,6.2123,6.3405,6.3863,6.4531,6.5309,6.6143,6.694,6.7694,6.8406,6.8811,6.8943,6.8724,6.8129,6.7736,6.7844,6.7776,6.77,6.77,6.77,6.77,6.77,6.77,6.77,6.77,6.77,6.77,6.77,6.77,6.77,6.77,6.77,6.77,6.77,6.6916,6.6494,6.6494,6.5081,6.4347,6.4347,6.4347,6.4566,6.5046,6.7313,6.9167,7.0566,7.0791,7.0898,7.0898,7.0898,7.0898,7.0898,7.0898,7.0898,7.0898,7.0898,7.0898,7.0898,7.0898,7.0898,7.0898,7.0898,7.0898,7.0898,7.0898,7.0898,7.0898,7.0898,7.0898,7.0898,7.0898,7.0898,7.0898,7.0898,7.0898,7.0898,7.0898,7.0898,7.0898,7.0898,7.0898,7.0898,7.0898,7.0898,7.0898,7.0898,7.0898,7.0898,7.0898,7.0898,7.0898,7.0898,7.0898,7.0898,7.0898,7.0898,7.0898,7.0898,7.0898,7.0898,7.0898,7.0898,7.0898,7.0898,7.0898,7.0898,7.0898,7.0898,7.0898,7.0898,7.0898,7.0898,6.0873,6.1939,6.2802,6.3526,6.4231,6.501,6.5974,6.673,6.7494,6.8458,6.8805,6.8743,6.8229,6.7897,6.77,6.77,6.77,6.77,6.77,6.77,6.77,6.77,6.77,6.77,6.77,6.77,6.77,6.77,6.77,6.77,6.77,6.77,6.7517,6.715,6.6347,6.5742,6.5338,6.4108,6.3484,6.3484,6.3484,6.3947,6.4897,6.7092,6.9121,7.0898,7.0898,7.0898,7.0898,7.0898,7.0898,7.0898,7.0898,7.0898,7.0898,7.0898,7.0898,7.0898,7.0898,7.0898,7.0898,7.0898,7.0898,7.0898,7.0898,7.0898,7.0898,7.0898,7.0898,7.0898,7.0898,7.0898,7.0898,7.0898,7.0898,7.0898,7.0898,7.0898,7.0898,7.0898,7.0898,7.0898,7.0898,7.0898,7.0898,7.0898,7.0898,7.0898,7.0898,7.0898,7.0898,7.0898,7.0898,7.0898,7.0898,7.0898,7.0898,7.0898,7.0898,7.0898,7.0898,7.0898,7.0898,7.0898,7.0898,7.0898,7.0898,7.0898,7.0898,7.0898,7.0898,7.0898,6.1215,6.1977,6.2437,6.3482,6.3997,6.4552,6.5627,6.6269,6.6952,6.7954,6.8347,6.8338,6.7797,6.77,6.77,6.77,6.77,6.77,6.77,6.77,6.77,6.77,6.77,6.77,6.77,6.77,6.77,6.77,6.77,6.77,6.77,6.7572,6.7187,6.6512,6.5576,6.4769,6.4103,6.3246,6.2793,6.2793,6.2793,6.3782,6.5653,6.704,6.8778,7.0706,7.0841,7.0898,7.0898,7.0898,7.0898,7.0898,7.0898,7.0898,7.0898,7.0898,7.0898,7.0898,7.0898,7.0898,7.0898,7.0898,7.0898,7.0898,7.0898,7.0898,7.0898,7.0898,7.0898,7.0885,7.0784,7.0762,7.0748,7.0645,7.0622,7.0659,7.0852,7.0898,7.0898,7.0898,7.0898,7.0898,7.0898,7.0898,7.0898,7.0898,7.0898,7.0898,7.0898,7.0898,7.0898,7.0898,7.0898,7.0898,7.0898,7.0898,7.0898,7.0898,7.0898,7.0898,7.0898,7.0898,7.0898,7.0898,7.0898,7.0898,7.0898,7.0898,7.0898,7.0898,7.0898,7.0898,6.082,6.2313,6.3517,6.414,6.3997,6.3941,6.4778,6.5557,6.6244,6.6675,6.7698,6.8338,6.7797,6.77,6.77,6.77,6.77,6.77,6.77,6.77,6.77,6.77,6.77,6.77,6.77,6.77,6.77,6.77,6.77,6.77,6.77,6.7026,6.6604,6.6494,6.5044,6.4213,6.4103,6.3246,6.2793,6.2793,6.2793,6.3782,6.5615,6.5823,6.7362,6.9898,7.0591,7.0898,7.0898,7.0898,7.0898,7.0898,7.0898,7.0898,7.0898,7.0898,7.0898,7.0898,7.0898,7.0898,7.0898,7.0898,7.0898,7.0898,7.0898,7.0898,7.0898,7.0898,7.0898,7.0791,7.0322,7.0214,7.0095,6.9626,6.9521,6.9766,7.07,7.0898,7.0898,7.0898,7.0898,7.0898,7.0898,7.0898,7.0898,7.0898,7.0898,7.0898,7.0898,7.0898,7.0898,7.0898,7.0898,7.0898,7.0898,7.0898,7.0898,7.0898,7.0898,7.0898,7.0898,7.0898,7.0898,7.0898,7.0898,7.0898,7.0898,7.0898,7.0898,7.0898,7.0898,7.0898,6.0303,6.1597,6.2635,6.3323,6.3335,6.3366,6.4228,6.469,6.5232,6.6284,6.6962,6.7446,6.7662,6.77,6.77,6.77,6.77,6.77,6.77,6.77,6.77,6.77,6.77,6.77,6.77,6.77,6.77,6.77,6.77,6.77,6.77,6.6935,6.6292,6.5852,6.4695,6.387,6.3392,6.2994,6.2793,6.2805,6.3419,6.4133,6.4955,6.5979,6.7637,6.9725,7.0071,7.0475,7.0898,7.0898,7.0898,7.0898,7.0898,7.0898,7.0898,7.0898,7.0898,7.0898,7.0898,7.0898,7.0898,7.0898,7.0898,7.0898,7.0898,7.0898,7.0898,7.0898,7.0898,7.0845,7.0615,7.0322,7.0033,6.9802,6.953,6.9433,6.9902,7.0009,7.0086,7.0397,7.07,7.0898,7.0898,7.0898,7.0898,7.0898,7.0898,7.0898,7.0898,7.0898,7.0898,7.0898,7.0898,7.0777,7.0478,7.0444,7.0322,7.0026,7.029,7.0444,7.0444,7.0729,7.0898,7.0898,7.0898,7.0898,7.0898,7.0898,7.0898,7.0898,7.0898,7.0729,6.0015,6.0988,6.1796,6.2591,6.2793,6.2976,6.3613,6.3937,6.4451,6.5632,6.6219,6.6678,6.7278,6.7554,6.77,6.77,6.77,6.77,6.77,6.77,6.77,6.77,6.77,6.77,6.77,6.77,6.77,6.77,6.77,6.7609,6.7407,6.6623,6.5833,6.5026,6.42,6.3466,6.2811,6.2793,6.2793,6.2805,6.3604,6.4049,6.4254,6.5739,6.7314,6.8884,6.9454,7.0033,7.061,7.0821,7.0898,7.0898,7.0898,7.0898,7.0898,7.0898,7.0898,7.0898,7.0898,7.0898,7.0898,7.0898,7.0898,7.0898,7.0898,7.0898,7.0898,7.0898,7.0791,7.0678,7.0536,7.0095,6.9654,6.9521,6.9181,6.8956,6.9241,6.9302,6.9423,6.9811,7.0214,7.0486,7.0486,7.0486,7.0486,7.0486,7.0486,7.0486,7.0486,7.0486,7.0486,7.0486,7.0486,7.0322,6.9938,6.9902,6.9729,6.9333,6.9683,6.9902,6.9902,7.0282,7.0486,7.0486,7.0486,7.0558,7.07,7.07,7.063,7.0486,7.0486,7.0282,6.0169,6.0988,6.1796,6.2591,6.2793,6.2811,6.2866,6.3503,6.4121,6.4213,6.543,6.6512,6.6549,6.7187,6.77,6.77,6.77,6.77,6.77,6.77,6.77,6.77,6.77,6.77,6.77,6.77,6.77,6.77,6.77,6.737,6.6604,6.5802,6.4989,6.4194,6.3319,6.2848,6.2793,6.2793,6.2793,6.2793,6.2867,6.3144,6.3666,6.4264,6.5282,6.6688,6.8793,6.9725,6.9821,7.0591,7.0898,7.0898,7.0898,7.0898,7.0898,7.0898,7.0898,7.0898,7.0898,7.0898,7.0898,7.0898,7.0898,7.0898,7.0898,7.0898,7.0898,7.0898,7.0524,7.0016,6.9521,6.8997,6.8464,6.7943,6.7797,6.806,6.9085,6.9302,6.9313,6.9343,6.9354,6.9374,6.9374,6.9374,6.9374,6.9374,6.9374,6.9374,6.9374,6.9374,6.9374,6.9374,6.9374,6.9373,6.9334,6.9343,6.9333,6.9302,6.9333,6.9343,6.9343,6.9373,6.9374,6.9374,6.9374,6.9636,7.0137,7.0137,6.9884,6.9374,6.9374,6.9373,5.9416,6.0224,6.1025,6.1832,6.2407,6.2793,6.2793,6.3031,6.3429,6.3992,6.4971,6.5888,6.6402,6.7168,6.77,6.77,6.77,6.77,6.77,6.77,6.77,6.77,6.77,6.77,6.77,6.77,6.77,6.77,6.7223,6.6788,6.6512,6.5246,6.4402,6.4103,6.3264,6.2793,6.2793,6.2793,6.2793,6.2793,6.3163,6.3408,6.3634,6.4481,6.5115,6.5664,6.7308,6.8667,6.9725,7.0014,7.0437,7.0898,7.0898,7.0898,7.0898,7.0898,7.0898,7.0898,7.0898,7.0898,7.0898,7.0898,7.0898,7.0898,7.0898,7.0898,7.0898,7.0898,7.0762,7.0494,6.9955,6.9433,6.8788,6.7923,6.77,6.7815,6.8192,6.8539,6.8795,6.8795,6.9064,6.9302,6.9302,6.9302,6.9302,6.9302,6.9302,6.9302,6.9302,6.9302,6.9302,6.9302,6.9302,6.9158,6.881,6.8795,6.8637,6.829,6.8598,6.8795,6.8795,6.9116,6.9302,6.9302,6.9302,6.9384,6.9598,6.9598,6.9501,6.9302,6.9302,6.9116,5.8976,5.9783,6.0584,6.1392,6.2199,6.2793,6.2793,6.2793,6.2958,6.3539,6.4328,6.5063,6.5595,6.6568,6.7388,6.7664,6.77,6.77,6.77,6.77,6.77,6.77,6.77,6.77,6.77,6.7462,6.7297,6.7297,6.6549,6.598,6.5705,6.469,6.3974,6.3668,6.3086,6.2793,6.2793,6.2793,6.2793,6.2793,6.3156,6.3419,6.3634,6.449,6.4952,6.5168,6.6233,6.752,6.884,6.9148,6.9744,7.0494,7.0494,7.0667,7.0898,7.0898,7.0898,7.0898,7.0898,7.0898,7.0898,7.0898,7.0898,7.0898,7.0898,7.0777,7.063,7.063,7.0373,7.0007,6.9664,6.916,6.8586,6.787,6.77,6.77,6.77,6.7994,6.8223,6.8223,6.8516,6.8754,6.8754,6.8754,6.8754,6.8754,6.8754,6.8754,6.8754,6.8754,6.8754,6.8754,6.8754,6.8632,6.8259,6.8223,6.8072,6.7727,6.804,6.8223,6.8223,6.8574,6.8754,6.8754,6.8754,6.8754,6.8754,6.8935,6.8953,6.8754,6.8754,6.8574,0.0,0.0,0.0,6.1374,6.2199,6.2793,6.2793,6.2793,6.2793,6.2793,6.3484,6.4103,6.4103,6.5393,6.6714,6.7499,6.7664,6.77,6.77,6.77,6.77,6.77,6.7682,6.7664,6.7664,6.6935,6.6457,6.6457,6.5723,6.4916,6.4139,6.4084,6.3668,6.2829,6.2793,6.2793,6.2793,6.2793,6.2793,6.2793,6.2793,6.3068,6.3601,6.4157,6.4662,6.5115,6.567,6.6346,6.7135,6.7987,6.8872,6.9667,6.9667,7.0148,7.0821,7.0821,7.0821,7.0821,7.086,7.086,7.086,7.0898,7.0898,7.0898,7.0885,7.0509,7.0103,7.0086,6.9324,6.8516,6.8492,6.811,6.77,6.77,6.77,6.77,6.77,6.77,6.77,6.77,6.77,6.77,6.77,6.77,6.77,6.77,6.77,6.77,6.77,6.77,6.77,6.77,6.77,6.77,6.77,6.77,6.77,6.77,6.77,6.77,6.77,6.77,6.77,6.77,6.77,6.77,6.77,6.8223,6.8216,6.77,6.77,6.77,5.8272,0.0,0.0,0.0,0.0,0.0,6.2793,6.2793,6.2793,6.2793,6.3484,6.4103,6.4103,6.4934,6.5705,6.5925,6.6935,6.77,6.77,6.77,6.77,6.77,6.7187,6.6824,6.6824,6.6109,6.5618,6.5618,6.4897,6.4328,6.4103,6.3503,6.305,6.2811,6.2793,6.2793,6.2793,6.2793,6.2793,6.2793,6.2793,6.2892,6.3044,6.3977,6.4473,6.4645,6.552,6.6038,6.6308,6.7109,6.7975,6.8757,6.8757,6.8891,6.9084,6.9084,6.9084,6.918,6.9821,7.0033,7.0129,7.0706,7.0898,7.0831,7.0436,7.0222,7.0016,6.9636,6.9313,6.8978,6.8609,6.811,6.77,6.77,6.77,6.77,6.77,6.77,6.77,6.77,6.77,6.77,6.77,6.77,6.77,6.77,6.77,6.77,6.77,6.77,6.77,6.77,6.77,6.77,6.77,6.77,6.77,6.77,6.77,6.77,6.77,6.77,6.77,6.77,6.77,6.77,6.77,6.7863,6.785,6.77,6.77,6.77,5.7997,5.8933,5.9985,6.0327,0.0,0.0,6.2719,6.2793,6.2793,6.2793,6.3209,6.3558,6.3558,6.4237,6.4806,6.4806,6.587,6.6696,6.6696,6.6696,6.6696,6.6696,6.6274,6.5999,6.5999,6.5283,6.4806,6.4806,6.4035,6.3558,6.3558,6.3068,6.2793,6.2793,6.2793,6.2793,6.2793,6.2793,6.2793,6.2793,6.2793,6.2923,6.3144,6.3787,6.4294,6.4713,6.531,6.569,6.5936,6.6404,6.709,6.7859,6.7859,6.8084,6.8391,6.8391,6.8391,6.8468,6.8968,6.9161,6.9295,7.0129,7.0398,7.0368,7.0159,6.9946,6.9645,6.9127,6.8818,6.8563,6.8247,6.793,6.77,6.77,6.77,6.77,6.77,6.77,6.77,6.77,6.77,6.77,6.77,6.77,6.77,6.77,6.77,6.77,6.77,6.77,6.77,6.77,6.77,6.77,6.77,6.77,6.77,6.77,6.77,6.77,6.77,6.77,6.77,6.77,6.77,6.77,6.77,6.77,6.77,6.77,6.77,6.77,5.7997,5.8646,5.9508,6.0224,6.1062,0.0,6.2646,6.2793,6.2793,6.2793,6.2793,6.2793,6.2793,6.3429,6.3961,6.3961,6.4567,6.5086,6.527,6.5307,6.5307,6.5307,6.5215,6.5173,6.5173,6.4439,6.3961,6.3961,6.3246,6.2793,6.2793,6.2793,6.2793,6.2793,6.2793,6.2793,6.2793,6.2793,6.2793,6.2793,6.2793,6.3062,6.3502,6.3568,6.4089,6.4943,6.5,6.5325,6.5808,6.5808,6.6269,6.6981,6.6981,6.7436,6.8122,6.8122,6.8122,6.8141,6.8218,6.8257,6.8391,6.9263,6.9571,6.9592,6.9797,6.9531,6.9047,6.8549,6.806,6.77,6.77,6.77,6.77,6.77,6.77,6.77,6.77,6.77,6.77,6.77,6.77,6.77,6.77,6.77,6.77,6.77,6.77,6.77,6.77,6.77,6.77,6.77,6.77,6.77,6.77,6.77,6.77,6.77,6.77,6.77,6.77,6.77,6.77,6.77,6.77,6.77,6.77,6.77,6.77,6.77,6.77,6.77,5.7997,5.9061,6.0187,0.0,6.149,0.0,6.2756,6.2793,6.2793,6.2793,6.2793,6.2793,6.2793,6.2939,6.305,6.305,6.3196,6.3765,6.5105,6.5307,6.5307,6.5307,6.4732,6.4328,6.4328,6.3558,6.305,6.305,6.2903,6.2793,6.2793,6.2793,6.2793,6.2793,6.2793,6.2793,6.2793,6.2793,6.2793,6.2793,6.2793,6.2855,6.2965,6.3397,6.3702,6.3925,6.4351,6.481,6.5268,6.5268,6.5604,6.6134,6.6134,6.625,6.6397,6.6397,6.6397,6.6474,6.7128,6.734,6.7494,6.8372,6.8641,6.8615,6.8466,6.8344,6.8201,6.7932,6.7789,6.77,6.77,6.77,6.77,6.77,6.77,6.77,6.77,6.77,6.77,6.77,6.77,6.77,6.77,6.77,6.77,6.77,6.77,6.77,6.77,6.77,6.77,6.77,6.77,6.77,6.77,6.77,6.77,6.77,6.77,6.77,6.77,6.77,6.77,6.77,6.77,6.77,6.77,6.77,6.77,6.77,6.77,6.77,0.0,0.0,0.0,6.0896,0.0,0.0,0.0,6.2793,6.2793,6.2793,6.2793,6.2793,6.2793,6.2793,6.2793,6.2793,6.2793,6.3086,6.393,6.404,6.404,6.404,6.3704,6.3447,6.3447,6.305,6.2793,6.2793,6.2793,6.2793,6.2793,6.2793,6.2793,6.2793,6.2793,6.2793,6.2793,6.2793,6.2793,6.2793,6.2793,6.2793,6.2805,6.308,6.3347,6.3612,6.3873,6.4426,6.5107,6.5107,6.5425,6.5904,6.5904,6.5904,6.5904,6.5904,6.5904,6.5961,6.6365,6.65,6.6635,6.7475,6.7744,6.7829,6.8273,6.8527,6.8562,6.8203,6.8097,6.804,6.7776,6.77,6.77,6.77,6.77,6.77,6.77,6.77,6.77,6.77,6.77,6.77,6.77,6.77,6.77,6.77,6.77,6.77,6.77,6.77,6.77,6.77,6.77,6.77,6.77,6.77,6.77,6.77,6.77,6.77,6.77,6.77,6.77,6.77,6.77,6.77,6.77,6.77,6.77,6.77,6.77,6.77,0.0,0.0,0.0,0.0,0.0,6.1998,0.0,0.0,0.0,6.2793,6.2793,6.2793,6.2793,6.2793,6.2756,6.2591,6.2701,6.2756,6.2591,6.2701,6.2793,6.2793,6.2793,6.2793,6.2793,6.2793,6.2793,6.2793,6.2793,6.2793,6.2793,6.2793,6.2793,6.2793,6.2793,6.2793,6.2793,6.2793,6.2793,6.2793,6.2793,6.2793,6.2793,6.2793,6.305,6.3442,6.3442,6.4029,6.4968,6.4968,6.5332,6.5904,6.5904,6.5904,6.5904,6.5904,6.5904,6.5904,6.5904,6.5904,6.6019,6.6654,6.689,6.716,6.8247,6.8726,6.8836,6.8576,6.8492,6.8387,6.785,6.7789,6.7836,6.7709,6.77,6.77,6.77,6.77,6.77,6.77,6.77,6.77,6.77,6.77,6.77,6.77,6.77,6.77,6.77,6.77,6.77,6.77,6.77,6.77,6.77,6.77,6.77,6.77,6.77,6.77,6.77,6.77,6.77,6.77,6.77,6.77,6.77,6.77,6.77,6.77,6.77,6.77,0.0,0.0,0.0,0.0,6.2144,0.0,0.0,0.0,6.2793,6.2793,0.0,6.2793,6.2793,0.0,0.0,6.1851,6.2334,6.2554,6.1832,6.2346,6.2793,6.2793,6.2793,6.2793,6.2793,6.2793,6.2793,6.2793,6.2793,6.2793,6.2793,6.2793,6.2793,6.2793,6.2793,6.2793,6.2793,6.2793,6.2793,6.2793,6.2793,6.2793,6.2793,6.2793,6.283,6.2886,6.2886,6.3502,6.4491,6.4491,6.5038,6.5904,6.5904,6.5904,6.5904,6.5904,6.5904,6.5904,6.5904,6.5904,6.5923,6.6019,6.6207,6.6561,6.7455,6.7607,6.7589,6.8299,6.8492,6.8387,6.785,6.8047,6.8296,6.781,6.77,6.77,6.77,6.77,6.77,6.77,6.77,6.77,6.77,6.77,6.77,6.77,6.77,6.77,6.77,6.77,6.77,6.77,6.77,6.77,6.77,6.77,6.77,6.77,6.77,6.77,6.77,6.77,6.77,6.77,6.77,6.77,6.77,6.77,6.77,6.77,6.77,6.77,0.0,0.0,0.0,0.0,0.0,0.0,6.2793,0.0,6.2108,0.0,0.0,0.0,0.0,0.0,0.0,0.0,6.2291,6.2683,6.2334,6.2591,6.2793,6.2793,6.2793,6.2793,6.2793,6.2793,6.2793,6.2793,6.2793,6.2793,6.2793,6.2793,6.2793,6.2793,6.2793,6.2793,6.2793,6.2793,6.2793,6.2793,6.2793,6.2793,6.2793,6.2793,6.2793,6.2793,6.2793,6.322,6.3956,6.4274,6.4801,6.5473,6.5781,6.5904,6.5904,6.5904,6.5904,6.5904,6.5904,6.5904,6.5904,6.5904,6.6293,6.6833,6.7197,6.795,6.8643,6.8679,6.9036,6.9233,6.838,6.8326,6.8363,6.7836,6.77,6.77,6.77,6.77,6.77,6.77,6.77,6.77,6.77,6.77,6.77,6.77,6.77,6.77,6.77,6.77,6.77,6.77,6.77,6.77,6.77,6.77,6.77,6.77,6.77,6.77,6.77,6.77,6.77,6.77,6.77,6.77,6.77,6.77,6.77,6.77,6.77,6.77,6.2793,0.0,0.0,0.0,0.0,0.0,0.0,0.0,0.0,0.0,0.0,0.0,0.0,0.0,6.119,6.097,0.0,6.2132,6.2132,6.2334,6.2554,6.2774,6.2793,6.2793,6.2793,6.2793,6.2793,6.2793,6.2793,6.2793,6.2793,6.2793,6.2793,6.2793,6.2793,6.2793,6.2793,6.2793,6.2793,6.2793,6.2793,6.2793,6.2793,6.2793,6.2793,6.2793,6.2793,6.3191,6.385,6.4245,6.4767,6.5362,6.5749,6.5904,6.5904,6.5904,6.5904,6.5904,6.5904,6.5904,6.5904,6.5904,6.6308,6.6808,6.7039,6.7889,6.8779,6.8785,6.9143,6.937,6.8676,6.8492,6.8363,6.7836,6.77,6.77,6.77,6.77,6.77,6.77,6.77,6.77,6.77,6.77,6.77,6.77,6.77,6.77,6.77,6.77,6.77,6.77,6.77,6.77,6.77,6.77,6.77,6.77,6.77,6.77,6.77,6.77,6.77,6.77,6.77,6.77,6.77,6.77,6.77,6.77,6.77,6.77,0.0,0.0,0.0,6.2793,0.0,0.0,0.0,0.0,6.2536,0.0,0.0,0.0,0.0,0.0,0.0,0.0,5.9948,0.0,0.0,6.1153,6.1924,6.2701,6.2793,6.2793,6.2793,6.2793,6.2793,6.2793,6.2793,6.2793,6.2793,6.2793,6.2793,6.2793,6.2793,6.2793,6.2793,6.2793,6.2793,6.2793,6.2793,6.2793,6.2793,6.2793,6.2793,6.2793,6.2793,6.3408,6.4379,6.4398,6.499,6.5885,6.5897,6.5904,6.5904,6.5904,6.5904,6.5904,6.5904,6.5904,6.5904,6.5904,6.5923,6.6077,6.6865,6.6773,6.6742,6.8351,6.8458,6.8135,6.8431,6.8492,6.8363,6.7836,6.77,6.77,6.77,6.77,6.77,6.77,6.77,6.77,6.77,6.77,6.77,6.77,6.77,6.77,6.77,6.77,6.77,6.77,6.77,6.77,6.77,6.77,6.77,6.77,6.77,6.77,6.77,6.77,6.77,6.77,6.77,6.77,6.77,6.77,6.77,6.77,6.77,6.77,0.0,0.0,6.2793,6.2793,0.0,0.0,0.0,0.0,0.0,0.0,0.0,0.0,0.0,0.0,0.0,0.0,0.0,6.0401,0.0,6.108,6.1686,6.1979,6.2493,6.2793,6.2793,6.2793,6.2793,6.2793,6.2793,6.2793,6.2793,6.2793,6.2793,6.2793,6.2793,6.2793,6.2793,6.2793,6.2793,6.2793,6.2793,6.2793,6.2793,6.2793,6.2793,6.2793,6.2793,6.3215,6.3913,6.4255,6.4784,6.541,6.5756,6.5904,6.5853,6.5501,6.5603,6.5846,6.5494,6.5369,6.5369,6.5369,6.5369,6.5497,6.6121,6.6332,6.6558,6.7424,6.7868,6.8075,6.8153,6.8343,6.8363,6.7836,6.77,6.77,6.77,6.77,6.77,6.77,6.77,6.77,6.77,6.77,6.77,6.77,6.77,6.77,6.77,6.77,6.77,6.77,6.77,6.77,6.77,6.77,6.77,6.77,6.77,6.77,6.77,6.77,6.77,6.77,6.77,6.77,6.77,6.77,6.77,6.77,6.77,6.77,6.2793,6.2793,0.0,6.2793,6.2793,0.0,6.2793,0.0,6.1942,0.0,0.0,0.0,0.0,0.0,0.0,0.0,0.0,0.0,0.0,6.108,6.1716,6.1998,6.2481,6.2793,6.2793,6.2793,6.2793,6.2793,6.2793,6.2793,6.2793,6.2793,6.2793,6.2793,6.2793,6.2793,6.2793,6.2793,6.2793,6.2793,6.2793,6.2793,6.2793,6.2793,6.2793,6.2793,6.2793,6.3103,6.3645,6.4187,6.4689,6.5146,6.569,6.5904,6.5853,6.5508,6.5609,6.5814,6.5283,6.5107,6.5064,6.491,6.486,6.491,6.5265,6.5518,6.5813,6.6399,6.695,6.7416,6.7677,6.7986,6.8135,6.777,6.77,6.77,6.77,6.77,6.77,6.77,6.77,6.77,6.77,6.77,6.77,6.77,6.77,6.77,6.77,6.77,6.77,6.77,6.77,6.77,6.77,6.77,6.77,6.77,6.77,6.77,6.77,6.77,6.77,6.77,6.77,6.77,6.77,6.77,6.77,6.77,6.77,6.77]}]]